[[{"header":{"parameterUnit":"m.s-1","parameterCategory":1,"la1":31.0,"la2":29.5877,"lo1":-88.7671,"lo2":-86.6584,"dy":0.0162,"dx":0.0185,"nx":115,"ny":88,"refTime":"2023-06-27T18:00:00:Z","depth":0,"parameterNumber":2,"parameterNumberName":"U-component_of_WINDS"},"data":[0.0,0.0,0.0,0.0,0.0,0.0,0.0,0.0,0.0,0.0,0.0,0.0,0.0,0.0,0.0,0.0,0.0,0.0,0.0,0.0,0.0,0.0,0.0,0.0,0.0,0.0,0.0,0.0,0.0,0.0,0.0,0.0,0.0,0.0,0.0,0.0,0.0,0.0,0.0,0.0,0.0,0.0,0.0,0.0,0.0,0.0,0.0,0.0,0.0,0.0,0.0,0.0,0.0,0.0,0.0,0.0,0.0,0.0,0.0,0.0,0.0,0.0,0.0,0.0,0.0,0.0,0.0,0.0,0.0,0.0,0.0,0.0,0.0,0.0,0.0,0.0,0.0,0.0,0.0,0.0,0.0,0.0,0.0,0.0,0.0,0.0,0.0,0.0,0.0,0.0,0.0,0.0,0.0,0.0,0.0,0.0,0.0,0.0,0.0,0.0,0.0,0.0,0.0,0.0,0.0,0.0,0.0,0.0,0.0,0.0,0.0,0.0,0.0,0.0,0.0,0.0,0.0,0.0,0.0,0.0,0.0,0.0,0.0,0.0,0.0,0.0,0.0,0.0,0.0,0.0,0.0,0.0,0.0,0.0,0.0,0.0,0.0,0.0,0.0,0.0,0.0,0.0,0.0,0.0,0.0,0.0,0.0,0.0,0.0,0.0,0.0,0.0,0.0,0.0,0.0,0.0,0.0,0.0,0.0,0.0,0.0,0.0,0.0,0.0,0.0,0.0,0.0,0.0,0.0,0.0,0.0,0.0,0.0,0.0,0.0,0.0,0.0,0.0,0.0,0.0,0.0,0.0,0.0,0.0,0.0,0.0,0.0,0.0,0.0,0.0,0.0,0.0,0.0,0.0,0.0,0.0,0.0,0.0,0.0,0.0,0.0,0.0,0.0,0.0,0.0,0.0,0.0,0.0,0.0,0.0,0.0,0.0,0.0,0.0,0.0,0.0,0.0,0.0,0.0,0.0,0.0,0.0,0.0,0.0,0.0,0.0,0.0,0.0,0.0,0.0,0.0,0.0,0.0,0.0,0.0,0.0,0.0,0.0,0.0,0.0,0.0,0.0,0.0,0.0,0.0,0.0,0.0,0.0,0.0,0.0,0.0,0.0,0.0,0.0,0.0,0.0,0.0,0.0,0.0,0.0,0.0,0.0,0.0,0.0,0.0,0.0,0.0,0.0,0.0,0.0,0.0,0.0,0.0,0.0,0.0,0.0,0.0,0.0,0.0,0.0,0.0,0.0,0.0,0.0,0.0,0.0,0.0,0.0,0.0,0.0,0.0,0.0,0.0,0.0,0.0,0.0,0.0,0.0,0.0,0.0,0.0,0.0,0.0,0.0,0.0,0.0,0.0,0.0,0.0,0.0,0.0,0.0,0.0,0.0,0.0,0.0,0.0,0.0,0.0,0.0,0.0,0.0,0.0,0.0,0.0,0.0,0.0,0.0,0.0,0.0,0.0,0.0,0.0,0.0,0.0,0.0,0.0,0.0,0.0,0.0,0.0,0.0,0.0,0.0,0.0,0.0,0.0,0.0,0.0,0.0,0.0,0.0,0.0,0.0,0.0,0.0,0.0,0.0,0.0,0.0,0.0,0.0,0.0,0.0,0.0,0.0,0.0,0.0,0.0,0.0,0.0,0.0,0.0,0.0,0.0,0.0,0.0,0.0,0.0,0.0,0.0,0.0,0.0,0.0,0.0,0.0,0.0,0.0,0.0,0.0,0.0,0.0,0.0,0.0,0.0,0.0,0.0,0.0,0.0,0.0,0.0,0.0,0.0,0.0,0.0,0.0,0.0,0.0,0.0,0.0,0.0,0.0,0.0,0.0,0.0,0.0,0.0,0.0,0.0,0.0,0.0,0.0,0.0,0.0,0.0,0.0,0.0,0.0,0.0,0.0,0.0,0.0,0.0,0.0,0.0,0.0,0.0,0.0,0.0,0.0,0.0,0.0,0.0,0.0,0.0,0.0,0.0,0.0,0.0,0.0,0.0,0.0,0.0,0.0,0.0,0.0,0.0,0.0,0.0,0.0,0.0,0.0,0.0,0.0,0.0,0.0,0.0,0.0,0.0,0.0,0.0,0.0,0.0,0.0,0.0,0.0,0.0,0.0,0.0,0.0,0.0,0.0,0.0,0.0,0.0,0.0,0.0,0.0,0.0,0.0,0.0,0.0,0.0,0.0,0.0,0.0,0.0,0.0,0.0,0.0,0.0,0.0,0.0,0.0,0.0,0.0,0.0,0.0,0.0,0.0,0.0,0.0,0.0,0.0,0.0,0.0,0.0,0.0,0.0,0.0,0.0,0.0,0.0,0.0,0.0,0.0,0.0,0.0,0.0,0.0,0.0,0.0,0.0,0.0,0.0,0.0,0.0,0.0,0.0,0.0,0.0,0.0,0.0,0.0,0.0,0.0,0.0,0.0,0.0,0.0,0.0,0.0,0.0,0.0,0.0,0.0,0.0,0.0,0.0,0.0,0.0,0.0,0.0,0.0,0.0,0.0,0.0,0.0,0.0,0.0,0.0,0.0,0.0,0.0,0.0,0.0,0.0,0.0,0.0,0.0,0.0,0.0,0.0,0.0,0.0,0.0,0.0,0.0,0.0,0.0,0.0,0.0,0.0,0.0,0.0,0.0,0.0,0.0,0.0,0.0,0.0,0.0,0.0,0.0,0.0,0.0,0.0,0.0,0.0,0.0,0.0,0.0,0.0,0.0,0.0,0.0,0.0,0.0,0.0,0.0,0.0,0.0,0.0,0.0,0.0,0.0,0.0,0.0,0.0,0.0,0.0,0.0,0.0,0.0,0.0,0.0,0.0,0.0,0.0,0.0,0.0,0.0,0.0,0.0,0.0,0.0,0.0,0.0,0.0,0.0,0.0,0.0,0.0,0.0,0.0,0.0,0.0,0.0,0.0,0.0,0.0,0.0,0.0,0.0,0.0,0.0,0.0,0.0,0.0,0.0,0.0,0.0,0.0,0.0,0.0,0.0,0.0,0.0,0.0,0.0,0.0,0.0,0.0,0.0,0.0,0.0,0.0,0.0,0.0,0.0,0.0,0.0,0.0,0.0,0.0,0.0,0.0,0.0,0.0,0.0,0.0,0.0,0.0,0.0,0.0,0.0,0.0,0.0,0.0,0.0,0.0,0.0,0.0,0.0,0.0,0.0,0.0,0.0,0.0,0.0,0.0,0.0,0.0,0.0,0.0,0.0,0.0,0.0,0.0,0.0,0.0,0.0,0.0,0.0,0.0,0.0,0.0,0.0,0.0,0.0,0.0,0.0,0.0,0.0,0.0,0.0,0.0,0.0,0.0,0.0,0.0,0.0,0.0,0.0,0.0,0.0,0.0,0.0,0.0,0.0,0.0,0.0,0.0,0.0,0.0,0.0,0.0,0.0,0.0,0.0,0.0,0.0,0.0,0.0,0.0,0.0,0.0,0.0,0.0,0.0,0.0,0.0,0.0,0.0,0.0,0.0,0.0,0.0,0.0,0.0,0.0,0.0,0.0,0.0,0.0,0.0,0.0,0.0,0.0,0.0,0.0,0.0,0.0,0.0,0.0,0.0,0.0,0.0,0.0,0.0,0.0,0.0,0.0,0.0,0.0,0.0,0.0,0.0,0.0,0.0,0.0,0.0,0.0,0.0,0.0,0.0,0.0,0.0,0.0,0.0,0.0,0.0,0.0,0.0,0.0,0.0,0.0,0.0,0.0,0.0,0.0,0.0,0.0,0.0,0.0,0.0,0.0,0.0,0.0,0.0,0.0,0.0,0.0,0.0,0.0,0.0,0.0,0.0,0.0,0.0,0.0,0.0,0.0,0.0,0.0,0.0,0.0,0.0,0.0,0.0,0.0,0.0,0.0,0.0,0.0,0.0,0.0,0.0,0.0,0.0,0.0,0.0,0.0,0.0,0.0,0.0,0.0,0.0,0.0,0.0,0.0,0.0,0.0,0.0,0.0,0.0,0.0,0.0,0.0,0.0,0.0,0.0,0.0,0.0,0.0,0.0,0.0,0.0,0.0,0.0,0.0,0.0,0.0,0.0,0.0,0.0,0.0,0.0,0.0,0.0,0.0,0.0,0.0,0.0,0.0,0.0,0.0,0.0,0.0,0.0,0.0,0.0,0.0,0.0,0.0,0.0,0.0,0.0,0.0,0.0,0.0,0.0,0.0,0.0,0.0,0.0,0.0,0.0,0.0,0.0,0.0,0.0,0.0,0.0,0.0,0.0,0.0,0.0,0.0,0.0,0.0,0.0,0.0,0.0,0.0,0.0,-2.8818,0.0,0.0,0.0,0.0,0.0,0.0,0.0,0.0,0.0,0.0,0.0,0.0,0.0,0.0,0.0,0.0,0.0,0.0,0.0,0.0,0.0,0.0,0.0,0.0,0.0,0.0,0.0,0.0,0.0,0.0,0.0,0.0,0.0,0.0,0.0,0.0,0.0,0.0,0.0,0.0,0.0,0.0,0.0,0.0,0.0,0.0,0.0,0.0,0.0,0.0,0.0,0.0,0.0,0.0,0.0,0.0,0.0,0.0,0.0,0.0,0.0,0.0,0.0,0.0,0.0,0.0,0.0,0.0,0.0,0.0,0.0,0.0,0.0,0.0,0.0,0.0,0.0,0.0,0.0,0.0,0.0,0.0,0.0,0.0,0.0,0.0,0.0,0.0,0.0,0.0,0.0,0.0,0.0,0.0,0.0,0.0,0.0,0.0,0.0,0.0,0.0,0.0,0.0,0.0,0.0,0.0,0.0,0.0,0.0,0.0,-2.8636,-2.8684,-2.8771,-2.8771,-2.8684,0.0,0.0,0.0,0.0,0.0,0.0,0.0,0.0,0.0,0.0,0.0,0.0,0.0,0.0,0.0,0.0,0.0,0.0,0.0,0.0,0.0,0.0,0.0,0.0,0.0,0.0,0.0,0.0,0.0,0.0,0.0,0.0,0.0,0.0,0.0,0.0,0.0,0.0,0.0,0.0,0.0,0.0,0.0,0.0,0.0,0.0,0.0,0.0,0.0,0.0,0.0,0.0,0.0,0.0,0.0,0.0,0.0,0.0,0.0,0.0,0.0,0.0,0.0,0.0,0.0,0.0,0.0,0.0,0.0,0.0,0.0,0.0,0.0,0.0,0.0,0.0,0.0,0.0,0.0,0.0,0.0,0.0,0.0,0.0,0.0,0.0,0.0,0.0,0.0,0.0,0.0,0.0,0.0,0.0,0.0,0.0,0.0,0.0,0.0,0.0,0.0,0.0,0.0,0.0,0.0,0.0,0.0,0.0,0.0,0.0,0.0,0.0,-2.8676,-2.866,-2.8565,0.0,0.0,0.0,0.0,0.0,0.0,0.0,0.0,0.0,0.0,0.0,0.0,0.0,0.0,0.0,0.0,0.0,0.0,0.0,0.0,0.0,0.0,0.0,0.0,0.0,0.0,0.0,0.0,0.0,0.0,0.0,0.0,0.0,0.0,0.0,0.0,0.0,0.0,0.0,0.0,0.0,0.0,0.0,0.0,0.0,0.0,0.0,0.0,0.0,0.0,0.0,0.0,0.0,0.0,0.0,0.0,0.0,0.0,0.0,0.0,0.0,0.0,0.0,0.0,0.0,0.0,0.0,0.0,0.0,0.0,0.0,0.0,0.0,0.0,0.0,0.0,0.0,0.0,0.0,0.0,0.0,0.0,0.0,0.0,0.0,0.0,0.0,0.0,0.0,0.0,0.0,0.0,0.0,0.0,0.0,0.0,0.0,0.0,0.0,0.0,0.0,0.0,0.0,0.0,0.0,0.0,0.0,0.0,0.0,0.0,-2.8436,-2.842,-2.842,0.0,-2.8436,0.0,0.0,0.0,0.0,0.0,0.0,0.0,0.0,0.0,0.0,0.0,0.0,0.0,0.0,0.0,0.0,0.0,0.0,0.0,0.0,0.0,0.0,0.0,0.0,0.0,0.0,0.0,0.0,0.0,0.0,0.0,0.0,0.0,0.0,0.0,0.0,0.0,0.0,0.0,0.0,0.0,0.0,0.0,0.0,0.0,0.0,0.0,0.0,0.0,0.0,0.0,0.0,0.0,0.0,0.0,0.0,0.0,0.0,0.0,0.0,0.0,0.0,0.0,0.0,0.0,0.0,0.0,0.0,0.0,0.0,0.0,0.0,0.0,0.0,0.0,0.0,0.0,0.0,0.0,0.0,0.0,0.0,0.0,0.0,0.0,0.0,0.0,0.0,0.0,0.0,0.0,0.0,0.0,0.0,0.0,0.0,0.0,0.0,0.0,0.0,0.0,0.0,0.0,0.0,0.0,0.0,0.0,0.0,0.0,0.0,-2.7796,-2.7811,-2.7811,-2.7811,0.0,0.0,0.0,0.0,0.0,0.0,0.0,0.0,0.0,0.0,0.0,0.0,0.0,0.0,0.0,0.0,0.0,0.0,0.0,0.0,0.0,0.0,0.0,0.0,0.0,0.0,0.0,0.0,0.0,0.0,0.0,0.0,0.0,0.0,0.0,0.0,0.0,0.0,0.0,0.0,0.0,0.0,0.0,0.0,0.0,0.0,0.0,0.0,0.0,0.0,0.0,0.0,0.0,0.0,0.0,0.0,0.0,0.0,0.0,0.0,0.0,0.0,0.0,0.0,0.0,0.0,0.0,0.0,0.0,0.0,0.0,0.0,0.0,0.0,0.0,0.0,0.0,0.0,0.0,0.0,0.0,0.0,0.0,0.0,0.0,0.0,0.0,0.0,0.0,0.0,0.0,0.0,0.0,0.0,0.0,0.0,0.0,0.0,0.0,0.0,0.0,0.0,0.0,0.0,0.0,0.0,0.0,0.0,0.0,0.0,-2.7642,-2.7303,-2.7119,-2.7119,-2.7211,-2.738,0.0,0.0,0.0,0.0,0.0,0.0,0.0,0.0,0.0,0.0,0.0,0.0,0.0,0.0,0.0,0.0,0.0,0.0,0.0,0.0,0.0,0.0,0.0,0.0,0.0,0.0,0.0,0.0,0.0,0.0,0.0,0.0,0.0,0.0,0.0,0.0,0.0,0.0,0.0,0.0,0.0,0.0,0.0,0.0,0.0,0.0,0.0,0.0,0.0,0.0,0.0,0.0,0.0,0.0,0.0,0.0,0.0,0.0,0.0,0.0,0.0,0.0,0.0,0.0,0.0,0.0,0.0,0.0,0.0,0.0,0.0,0.0,0.0,0.0,0.0,0.0,0.0,0.0,0.0,0.0,0.0,0.0,0.0,0.0,0.0,0.0,0.0,0.0,0.0,0.0,0.0,0.0,0.0,0.0,0.0,0.0,0.0,0.0,0.0,0.0,0.0,0.0,0.0,0.0,0.0,0.0,0.0,0.0,-2.7473,-2.7396,-2.7072,-2.6464,-2.6449,-2.6718,0.0,0.0,0.0,0.0,0.0,0.0,0.0,0.0,0.0,0.0,0.0,0.0,0.0,0.0,0.0,0.0,0.0,0.0,0.0,0.0,0.0,0.0,0.0,0.0,0.0,0.0,0.0,0.0,0.0,0.0,0.0,0.0,0.0,0.0,0.0,0.0,0.0,0.0,0.0,0.0,0.0,0.0,0.0,0.0,0.0,0.0,0.0,0.0,0.0,0.0,0.0,0.0,0.0,0.0,0.0,0.0,0.0,0.0,0.0,0.0,0.0,0.0,0.0,0.0,0.0,0.0,0.0,0.0,0.0,0.0,0.0,0.0,0.0,0.0,0.0,0.0,0.0,0.0,0.0,0.0,0.0,0.0,0.0,0.0,0.0,0.0,0.0,0.0,0.0,0.0,0.0,0.0,0.0,0.0,0.0,0.0,0.0,0.0,0.0,0.0,0.0,0.0,0.0,0.0,0.0,0.0,0.0,0.0,0.0,-2.7411,-2.6511,-2.5733,-2.5102,-2.5472,-2.6026,0.0,0.0,0.0,0.0,0.0,0.0,0.0,0.0,0.0,0.0,0.0,0.0,0.0,0.0,0.0,0.0,0.0,0.0,0.0,0.0,0.0,0.0,0.0,0.0,0.0,0.0,0.0,0.0,0.0,0.0,0.0,0.0,0.0,0.0,0.0,0.0,0.0,0.0,0.0,0.0,0.0,0.0,0.0,0.0,0.0,0.0,0.0,0.0,0.0,0.0,0.0,0.0,0.0,0.0,0.0,0.0,0.0,0.0,0.0,0.0,0.0,0.0,0.0,0.0,0.0,0.0,0.0,0.0,0.0,0.0,0.0,0.0,0.0,0.0,0.0,0.0,0.0,0.0,0.0,0.0,0.0,0.0,0.0,0.0,0.0,0.0,0.0,0.0,0.0,0.0,0.0,0.0,0.0,0.0,0.0,0.0,0.0,0.0,0.0,0.0,0.0,0.0,0.0,0.0,0.0,0.0,0.0,0.0,0.0,-2.7088,0.0,-2.4743,-2.4348,-2.4748,-2.5318,0.0,0.0,0.0,0.0,0.0,0.0,0.0,0.0,0.0,0.0,0.0,0.0,0.0,0.0,0.0,0.0,0.0,0.0,0.0,0.0,0.0,0.0,0.0,0.0,0.0,0.0,0.0,0.0,0.0,0.0,0.0,0.0,0.0,0.0,0.0,0.0,0.0,0.0,0.0,0.0,0.0,0.0,0.0,0.0,0.0,0.0,0.0,0.0,0.0,0.0,0.0,0.0,0.0,0.0,0.0,0.0,0.0,0.0,0.0,0.0,0.0,0.0,0.0,0.0,0.0,0.0,0.0,0.0,0.0,0.0,0.0,0.0,0.0,0.0,0.0,0.0,0.0,0.0,0.0,0.0,0.0,0.0,0.0,0.0,0.0,0.0,0.0,0.0,0.0,0.0,0.0,0.0,0.0,0.0,0.0,0.0,0.0,0.0,0.0,0.0,0.0,0.0,0.0,0.0,0.0,0.0,0.0,0.0,-2.8442,-2.6419,-2.5066,-2.4441,-2.4312,-2.4379,-2.4671,0.0,0.0,0.0,0.0,0.0,0.0,0.0,0.0,0.0,0.0,0.0,0.0,0.0,0.0,0.0,0.0,0.0,0.0,0.0,0.0,0.0,0.0,0.0,0.0,0.0,0.0,0.0,0.0,0.0,0.0,0.0,0.0,0.0,0.0,0.0,0.0,0.0,0.0,0.0,0.0,0.0,0.0,0.0,0.0,0.0,0.0,0.0,0.0,0.0,0.0,0.0,0.0,0.0,0.0,0.0,0.0,0.0,0.0,0.0,0.0,0.0,0.0,0.0,0.0,0.0,0.0,0.0,0.0,0.0,0.0,0.0,0.0,0.0,0.0,0.0,0.0,0.0,0.0,0.0,0.0,0.0,0.0,0.0,0.0,0.0,0.0,0.0,0.0,0.0,0.0,0.0,0.0,0.0,0.0,0.0,0.0,0.0,0.0,0.0,0.0,0.0,0.0,0.0,0.0,0.0,0.0,0.0,0.0,0.0,-2.778,-2.6403,-2.5681,-2.5665,-2.5219,-2.5333,0.0,0.0,0.0,0.0,0.0,0.0,0.0,0.0,0.0,0.0,0.0,0.0,0.0,0.0,0.0,0.0,0.0,0.0,0.0,0.0,0.0,0.0,0.0,0.0,0.0,0.0,0.0,0.0,0.0,0.0,0.0,0.0,0.0,0.0,0.0,0.0,0.0,0.0,0.0,0.0,0.0,0.0,0.0,0.0,0.0,0.0,0.0,0.0,0.0,0.0,0.0,0.0,0.0,0.0,0.0,0.0,0.0,0.0,0.0,0.0,0.0,0.0,0.0,0.0,0.0,0.0,0.0,0.0,0.0,0.0,0.0,0.0,0.0,0.0,0.0,0.0,0.0,0.0,0.0,0.0,0.0,0.0,0.0,0.0,0.0,0.0,0.0,0.0,0.0,0.0,0.0,0.0,0.0,0.0,0.0,0.0,0.0,0.0,0.0,0.0,0.0,0.0,0.0,0.0,0.0,0.0,0.0,0.0,0.0,-2.9489,-2.791,-2.708,-2.7095,-2.6665,-2.6303,-2.601,0.0,0.0,0.0,0.0,0.0,0.0,0.0,0.0,0.0,0.0,0.0,0.0,0.0,0.0,0.0,0.0,0.0,0.0,0.0,0.0,0.0,0.0,0.0,0.0,0.0,0.0,0.0,0.0,0.0,0.0,0.0,0.0,0.0,0.0,0.0,0.0,0.0,0.0,0.0,0.0,0.0,0.0,0.0,0.0,0.0,0.0,0.0,0.0,0.0,0.0,0.0,0.0,0.0,0.0,0.0,0.0,0.0,0.0,0.0,0.0,0.0,0.0,0.0,0.0,0.0,0.0,0.0,0.0,0.0,0.0,0.0,0.0,0.0,0.0,0.0,0.0,0.0,0.0,0.0,0.0,0.0,0.0,0.0,0.0,0.0,0.0,0.0,0.0,0.0,0.0,0.0,0.0,0.0,0.0,0.0,0.0,0.0,0.0,0.0,0.0,0.0,0.0,0.0,0.0,0.0,0.0,0.0,0.0,-3.147,-2.9673,-2.871,-2.8658,-2.8519,-2.7511,0.0,0.0,0.0,0.0,0.0,0.0,0.0,0.0,0.0,0.0,0.0,0.0,0.0,0.0,0.0,0.0,0.0,0.0,0.0,0.0,0.0,0.0,0.0,0.0,0.0,0.0,0.0,0.0,0.0,0.0,0.0,0.0,0.0,0.0,0.0,0.0,0.0,0.0,0.0,0.0,0.0,0.0,0.0,0.0,0.0,0.0,0.0,0.0,0.0,0.0,0.0,0.0,0.0,0.0,0.0,0.0,0.0,0.0,0.0,0.0,0.0,0.0,0.0,0.0,0.0,0.0,0.0,0.0,0.0,0.0,0.0,0.0,0.0,0.0,0.0,0.0,0.0,0.0,0.0,0.0,0.0,0.0,0.0,0.0,0.0,0.0,0.0,0.0,0.0,0.0,0.0,0.0,0.0,0.0,0.0,0.0,0.0,0.0,0.0,0.0,0.0,0.0,0.0,0.0,0.0,0.0,0.0,0.0,0.0,-3.2121,-3.2641,-3.2425,-3.1366,-2.992,-2.8879,0.0,0.0,0.0,0.0,0.0,0.0,0.0,0.0,0.0,0.0,0.0,0.0,0.0,0.0,0.0,0.0,0.0,0.0,0.0,0.0,0.0,0.0,0.0,0.0,0.0,0.0,0.0,0.0,0.0,0.0,0.0,0.0,0.0,0.0,0.0,0.0,0.0,0.0,0.0,0.0,0.0,0.0,0.0,0.0,0.0,0.0,0.0,0.0,0.0,0.0,0.0,0.0,0.0,0.0,0.0,0.0,0.0,0.0,0.0,0.0,0.0,0.0,0.0,0.0,0.0,0.0,0.0,0.0,0.0,0.0,0.0,0.0,0.0,0.0,0.0,0.0,0.0,0.0,0.0,0.0,0.0,0.0,0.0,0.0,0.0,0.0,0.0,0.0,0.0,0.0,0.0,0.0,0.0,0.0,0.0,0.0,0.0,0.0,0.0,0.0,0.0,0.0,0.0,0.0,0.0,0.0,0.0,0.0,-3.2151,-3.2813,-3.4445,-3.4967,-3.4137,-3.2151,-3.0525,0.0,0.0,0.0,0.0,0.0,0.0,0.0,0.0,0.0,0.0,0.0,0.0,0.0,0.0,0.0,0.0,0.0,0.0,0.0,0.0,0.0,0.0,0.0,0.0,0.0,0.0,0.0,0.0,0.0,0.0,0.0,0.0,0.0,0.0,0.0,0.0,0.0,0.0,0.0,0.0,0.0,0.0,0.0,0.0,0.0,0.0,0.0,0.0,0.0,0.0,0.0,0.0,0.0,0.0,0.0,0.0,0.0,0.0,0.0,0.0,0.0,0.0,0.0,0.0,0.0,0.0,0.0,0.0,0.0,0.0,0.0,0.0,0.0,0.0,0.0,0.0,0.0,0.0,0.0,0.0,0.0,0.0,0.0,0.0,0.0,0.0,0.0,0.0,0.0,0.0,0.0,0.0,0.0,0.0,0.0,0.0,0.0,0.0,0.0,0.0,0.0,0.0,0.0,0.0,0.0,0.0,0.0,0.0,-3.2767,-3.3506,-3.546,-3.6492,-3.643,-3.4491,-3.2259,0.0,0.0,0.0,0.0,0.0,0.0,0.0,0.0,0.0,0.0,0.0,0.0,0.0,0.0,0.0,0.0,0.0,0.0,0.0,0.0,0.0,0.0,0.0,0.0,0.0,0.0,0.0,0.0,0.0,0.0,0.0,0.0,0.0,0.0,0.0,0.0,0.0,0.0,0.0,0.0,0.0,0.0,0.0,0.0,0.0,0.0,0.0,0.0,0.0,0.0,0.0,0.0,0.0,0.0,0.0,0.0,0.0,0.0,0.0,0.0,0.0,0.0,0.0,0.0,0.0,0.0,0.0,0.0,0.0,0.0,0.0,0.0,0.0,0.0,0.0,0.0,0.0,0.0,0.0,0.0,0.0,0.0,0.0,0.0,0.0,0.0,0.0,0.0,0.0,0.0,0.0,0.0,0.0,0.0,0.0,0.0,0.0,0.0,0.0,0.0,0.0,0.0,0.0,0.0,0.0,0.0,0.0,0.0,-3.3013,-3.4258,-3.5707,-3.6492,-3.6492,-3.4491,-3.289,0.0,0.0,0.0,0.0,0.0,0.0,0.0,0.0,0.0,0.0,0.0,0.0,0.0,0.0,0.0,0.0,0.0,0.0,0.0,0.0,0.0,0.0,0.0,0.0,0.0,0.0,0.0,0.0,0.0,0.0,0.0,0.0,0.0,0.0,0.0,0.0,0.0,0.0,0.0,0.0,0.0,0.0,0.0,0.0,0.0,0.0,0.0,0.0,-2.1547,0.0,0.0,0.0,0.0,0.0,0.0,0.0,0.0,0.0,0.0,0.0,0.0,0.0,0.0,0.0,0.0,0.0,0.0,0.0,0.0,0.0,0.0,0.0,0.0,0.0,0.0,0.0,0.0,0.0,0.0,0.0,0.0,0.0,0.0,0.0,0.0,0.0,0.0,0.0,0.0,0.0,0.0,0.0,0.0,0.0,0.0,0.0,0.0,0.0,0.0,0.0,0.0,0.0,0.0,0.0,0.0,0.0,0.0,0.0,-3.3213,-3.4936,-3.5953,-3.6492,-3.6445,-3.5122,-3.3752,0.0,0.0,0.0,0.0,0.0,0.0,0.0,0.0,0.0,0.0,0.0,0.0,0.0,0.0,0.0,0.0,0.0,0.0,0.0,0.0,0.0,0.0,0.0,0.0,0.0,0.0,0.0,0.0,0.0,0.0,0.0,0.0,0.0,0.0,0.0,0.0,0.0,0.0,0.0,0.0,0.0,0.0,0.0,0.0,0.0,0.0,0.0,0.0,0.0,0.0,0.0,0.0,0.0,0.0,0.0,0.0,0.0,0.0,0.0,0.0,0.0,0.0,0.0,0.0,0.0,0.0,0.0,0.0,0.0,0.0,0.0,0.0,0.0,0.0,0.0,0.0,0.0,0.0,0.0,0.0,0.0,0.0,0.0,0.0,0.0,0.0,0.0,0.0,0.0,0.0,0.0,0.0,0.0,0.0,0.0,0.0,0.0,0.0,0.0,0.0,0.0,0.0,0.0,0.0,0.0,0.0,0.0,-3.2198,-3.3552,-3.5583,-3.623,-3.6492,-3.6492,-3.5845,-3.4506,-3.249,0.0,0.0,0.0,0.0,0.0,0.0,0.0,0.0,0.0,0.0,0.0,0.0,0.0,0.0,0.0,0.0,0.0,0.0,0.0,0.0,0.0,0.0,0.0,0.0,0.0,0.0,0.0,0.0,0.0,0.0,0.0,0.0,0.0,0.0,0.0,0.0,0.0,0.0,-2.2958,-2.3176,0.0,0.0,0.0,0.0,0.0,0.0,0.0,0.0,-2.3069,0.0,0.0,0.0,0.0,0.0,0.0,0.0,0.0,0.0,0.0,0.0,0.0,0.0,0.0,0.0,0.0,0.0,0.0,0.0,0.0,0.0,0.0,0.0,0.0,0.0,0.0,0.0,0.0,0.0,0.0,0.0,0.0,0.0,0.0,0.0,0.0,0.0,0.0,0.0,0.0,0.0,0.0,0.0,0.0,0.0,0.0,0.0,0.0,0.0,0.0,0.0,0.0,0.0,0.0,0.0,0.0,-3.2225,-3.289,-3.4245,-3.6261,-3.643,-3.6492,-3.6476,-3.5845,-3.4506,-3.2505,0.0,0.0,0.0,0.0,0.0,0.0,0.0,0.0,0.0,0.0,0.0,0.0,0.0,0.0,0.0,0.0,0.0,0.0,0.0,0.0,0.0,0.0,0.0,0.0,0.0,0.0,0.0,0.0,0.0,0.0,0.0,0.0,0.0,0.0,0.0,0.0,0.0,0.0,0.0,-2.3071,-2.3715,0.0,0.0,0.0,0.0,0.0,0.0,0.0,0.0,-2.3791,0.0,0.0,0.0,0.0,0.0,0.0,0.0,0.0,0.0,0.0,0.0,0.0,0.0,0.0,0.0,0.0,0.0,0.0,0.0,0.0,0.0,0.0,0.0,0.0,0.0,0.0,0.0,0.0,0.0,0.0,0.0,0.0,0.0,0.0,0.0,0.0,0.0,0.0,0.0,0.0,0.0,0.0,0.0,0.0,0.0,0.0,0.0,0.0,0.0,0.0,0.0,0.0,0.0,0.0,0.0,-3.229,-3.3429,-3.4783,-3.6415,-3.6492,-3.6492,-3.6476,-3.5491,-3.4181,0.0,0.0,0.0,0.0,0.0,0.0,0.0,0.0,0.0,0.0,0.0,0.0,0.0,0.0,0.0,0.0,0.0,0.0,0.0,0.0,0.0,0.0,0.0,0.0,0.0,0.0,0.0,0.0,0.0,0.0,0.0,0.0,0.0,0.0,0.0,0.0,0.0,0.0,0.0,0.0,-2.4222,-2.5101,-2.4911,0.0,0.0,0.0,0.0,0.0,0.0,-2.5169,-2.4912,0.0,0.0,0.0,0.0,0.0,0.0,0.0,0.0,0.0,0.0,0.0,0.0,0.0,0.0,0.0,0.0,0.0,0.0,0.0,0.0,0.0,0.0,0.0,0.0,0.0,0.0,0.0,0.0,0.0,0.0,0.0,0.0,0.0,0.0,0.0,0.0,0.0,0.0,0.0,0.0,0.0,0.0,0.0,0.0,0.0,0.0,0.0,0.0,0.0,0.0,0.0,0.0,0.0,0.0,0.0,-3.2336,-3.3935,-3.529,-3.643,-3.6492,-3.6492,-3.6461,-3.5059,-3.3627,0.0,0.0,0.0,0.0,0.0,0.0,0.0,0.0,0.0,0.0,0.0,0.0,0.0,0.0,0.0,0.0,0.0,0.0,0.0,0.0,0.0,0.0,0.0,0.0,0.0,0.0,0.0,0.0,0.0,0.0,0.0,0.0,0.0,0.0,0.0,0.0,0.0,0.0,0.0,0.0,0.0,-2.6388,-2.6232,-2.5911,0.0,0.0,0.0,0.0,-2.5871,-2.6264,0.0,0.0,0.0,0.0,0.0,0.0,0.0,0.0,0.0,0.0,0.0,0.0,0.0,0.0,0.0,0.0,0.0,0.0,0.0,0.0,0.0,0.0,0.0,0.0,0.0,0.0,0.0,0.0,0.0,0.0,0.0,0.0,0.0,0.0,0.0,0.0,0.0,0.0,0.0,0.0,0.0,0.0,0.0,0.0,0.0,0.0,0.0,0.0,0.0,0.0,0.0,0.0,0.0,0.0,0.0,0.0,-3.2382,-3.4368,-3.5722,-3.6445,-3.6492,-3.6492,-3.6461,-3.4568,-3.289,0.0,0.0,0.0,0.0,0.0,0.0,0.0,0.0,0.0,0.0,0.0,0.0,0.0,0.0,0.0,0.0,0.0,0.0,0.0,0.0,0.0,0.0,0.0,0.0,0.0,0.0,0.0,0.0,0.0,0.0,0.0,0.0,0.0,0.0,0.0,0.0,0.0,0.0,0.0,0.0,0.0,-2.6794,-2.6633,-2.6981,-2.7092,0.0,0.0,-2.8243,-2.8217,-2.8752,0.0,0.0,0.0,0.0,0.0,0.0,0.0,0.0,0.0,0.0,0.0,0.0,0.0,0.0,0.0,0.0,0.0,0.0,0.0,0.0,0.0,0.0,0.0,0.0,0.0,0.0,0.0,0.0,0.0,0.0,0.0,0.0,0.0,0.0,0.0,0.0,0.0,0.0,0.0,0.0,0.0,0.0,0.0,0.0,0.0,0.0,0.0,0.0,0.0,0.0,0.0,0.0,0.0,0.0,0.0,-3.0782,-3.2413,-3.4799,-3.6184,-3.6476,-3.6492,-3.6492,-3.6492,-3.4491,-3.2952,0.0,0.0,0.0,0.0,0.0,0.0,0.0,0.0,0.0,0.0,0.0,0.0,0.0,0.0,0.0,0.0,0.0,0.0,0.0,0.0,0.0,0.0,0.0,0.0,0.0,0.0,0.0,0.0,0.0,0.0,0.0,0.0,0.0,0.0,0.0,0.0,0.0,0.0,0.0,0.0,0.0,0.0,-2.7118,-2.7754,0.0,0.0,0.0,-2.8547,-2.8056,0.0,0.0,0.0,0.0,0.0,0.0,0.0,0.0,0.0,0.0,0.0,0.0,0.0,0.0,0.0,0.0,0.0,0.0,0.0,0.0,0.0,0.0,0.0,0.0,0.0,0.0,0.0,0.0,0.0,0.0,0.0,0.0,0.0,0.0,0.0,0.0,0.0,0.0,0.0,0.0,0.0,0.0,0.0,0.0,0.0,0.0,0.0,0.0,0.0,0.0,0.0,0.0,0.0,0.0,0.0,0.0,0.0,-3.2413,-3.5106,-3.6492,-3.6492,-3.6492,-3.6492,-3.6461,-3.466,0.0,0.0,0.0,0.0,0.0,0.0,0.0,0.0,0.0,0.0,0.0,0.0,0.0,0.0,0.0,0.0,0.0,0.0,0.0,0.0,0.0,0.0,0.0,0.0,0.0,0.0,0.0,-2.6075,0.0,0.0,0.0,0.0,0.0,0.0,0.0,0.0,0.0,0.0,0.0,0.0,0.0,0.0,-2.7171,-2.7734,-2.8413,-2.8916,0.0,0.0,-2.8723,-2.8297,-2.9109,-2.9123,0.0,0.0,0.0,0.0,0.0,0.0,0.0,0.0,0.0,0.0,0.0,0.0,0.0,0.0,0.0,0.0,0.0,0.0,0.0,0.0,0.0,0.0,0.0,0.0,0.0,0.0,0.0,0.0,0.0,0.0,0.0,0.0,0.0,0.0,0.0,0.0,0.0,0.0,0.0,0.0,0.0,0.0,0.0,0.0,0.0,0.0,0.0,0.0,0.0,0.0,0.0,0.0,0.0,0.0,0.0,-3.2459,-3.5106,-3.6522,-3.6507,-3.6492,-3.6492,-3.6476,-3.5183,-3.3519,0.0,0.0,0.0,0.0,0.0,0.0,0.0,0.0,0.0,0.0,0.0,0.0,0.0,0.0,0.0,0.0,0.0,0.0,0.0,0.0,0.0,0.0,0.0,0.0,0.0,0.0,0.0,0.0,0.0,0.0,0.0,0.0,0.0,0.0,0.0,0.0,0.0,0.0,0.0,0.0,0.0,-2.7953,-2.8554,-2.9087,-2.9724,0.0,0.0,-2.9627,-3.0115,-3.0731,-3.0339,-2.7837,0.0,0.0,0.0,0.0,0.0,0.0,0.0,0.0,0.0,0.0,0.0,0.0,0.0,0.0,0.0,0.0,0.0,0.0,0.0,0.0,0.0,0.0,0.0,0.0,0.0,0.0,0.0,0.0,0.0,0.0,0.0,0.0,0.0,0.0,0.0,0.0,0.0,0.0,0.0,0.0,0.0,0.0,0.0,0.0,0.0,0.0,0.0,0.0,0.0,0.0,0.0,0.0,0.0,-3.2567,-3.3719,-3.6353,-3.7723,-3.7738,-3.7738,-3.7738,-3.7738,-3.6415,-3.4967,0.0,0.0,0.0,0.0,0.0,0.0,0.0,0.0,0.0,0.0,0.0,0.0,0.0,0.0,0.0,0.0,0.0,0.0,0.0,0.0,0.0,0.0,0.0,0.0,0.0,0.0,0.0,0.0,-2.7994,-2.7813,-2.6701,0.0,0.0,0.0,0.0,0.0,0.0,0.0,0.0,0.0,0.0,-2.7749,-2.9064,-2.9702,0.0,0.0,-3.0289,-3.0139,-2.99,-3.0143,-2.9636,-2.7479,-2.5983,0.0,0.0,0.0,0.0,0.0,0.0,0.0,0.0,0.0,0.0,0.0,0.0,0.0,0.0,0.0,0.0,0.0,0.0,0.0,0.0,0.0,0.0,0.0,0.0,0.0,0.0,0.0,0.0,0.0,0.0,0.0,0.0,0.0,0.0,0.0,0.0,0.0,0.0,0.0,0.0,0.0,0.0,0.0,0.0,0.0,0.0,0.0,0.0,0.0,0.0,0.0,0.0,-3.3275,-3.4489,-3.7138,-3.8508,-3.8508,-3.8508,-3.8508,-3.8492,-3.7584,-3.6461,0.0,0.0,0.0,0.0,0.0,0.0,0.0,0.0,0.0,0.0,0.0,0.0,0.0,0.0,0.0,0.0,0.0,0.0,0.0,0.0,0.0,0.0,0.0,0.0,0.0,0.0,0.0,0.0,-2.8058,-2.7488,-2.6036,0.0,0.0,0.0,0.0,0.0,0.0,0.0,0.0,0.0,0.0,-2.8192,-2.9512,-2.9922,-3.0115,-3.0079,-2.9989,-2.9776,-2.9459,-2.9377,-2.8845,-2.7393,0.0,0.0,0.0,0.0,0.0,0.0,0.0,0.0,0.0,0.0,0.0,0.0,0.0,0.0,0.0,0.0,0.0,0.0,0.0,0.0,0.0,0.0,0.0,0.0,0.0,0.0,0.0,0.0,0.0,0.0,-2.5296,0.0,0.0,0.0,0.0,0.0,0.0,0.0,0.0,0.0,0.0,0.0,0.0,0.0,0.0,0.0,0.0,0.0,0.0,0.0,0.0,0.0,0.0,-3.3752,-3.4536,-3.72,-3.8539,-3.8539,-3.8523,-3.8554,-3.8554,-3.8477,-3.7831,-3.6461,0.0,0.0,0.0,0.0,0.0,0.0,0.0,0.0,0.0,0.0,0.0,0.0,0.0,0.0,0.0,0.0,0.0,0.0,0.0,0.0,0.0,0.0,0.0,0.0,0.0,0.0,-2.6955,-2.6847,-2.6592,0.0,0.0,0.0,0.0,0.0,0.0,0.0,0.0,0.0,0.0,-2.8193,-2.9526,-2.9846,-2.9697,-2.9689,-3.0073,-2.8979,-2.8352,-2.9094,-2.8724,-2.8204,0.0,0.0,0.0,0.0,0.0,0.0,0.0,0.0,0.0,0.0,0.0,0.0,0.0,0.0,0.0,0.0,0.0,0.0,0.0,0.0,0.0,0.0,0.0,0.0,0.0,0.0,0.0,-2.9704,-2.9658,0.0,0.0,0.0,0.0,0.0,0.0,0.0,0.0,0.0,0.0,0.0,-3.3781,-3.3596,0.0,0.0,0.0,0.0,0.0,0.0,0.0,0.0,0.0,0.0,0.0,0.0,-3.4705,-3.5907,-3.8492,-3.9813,-3.9828,-3.9813,-3.9813,-3.9813,-3.9382,-3.8338,-3.6553,0.0,0.0,0.0,0.0,0.0,0.0,0.0,0.0,0.0,0.0,0.0,0.0,0.0,0.0,0.0,0.0,0.0,0.0,0.0,0.0,0.0,0.0,0.0,0.0,0.0,-2.8058,0.0,0.0,0.0,0.0,0.0,0.0,0.0,0.0,0.0,0.0,0.0,-2.6843,-2.8023,-2.8478,-2.9046,-2.9912,-2.9491,-2.9449,0.0,0.0,0.0,0.0,0.0,0.0,0.0,0.0,0.0,0.0,0.0,0.0,0.0,0.0,-2.4417,-2.2996,-2.1784,-2.1086,-2.1224,0.0,0.0,0.0,0.0,0.0,0.0,0.0,0.0,0.0,0.0,0.0,0.0,0.0,0.0,-3.2321,0.0,-3.1905,0.0,0.0,0.0,0.0,0.0,0.0,0.0,0.0,-3.5137,-3.5876,-3.5907,-3.5876,-3.5907,0.0,-3.5429,-3.3814,0.0,0.0,0.0,0.0,0.0,0.0,0.0,0.0,-3.5645,-3.6553,-3.9154,-4.0489,-4.0489,-4.0489,-4.0489,-4.0489,-4.0059,-3.9247,-3.7938,-3.7015,-3.5599,0.0,0.0,0.0,0.0,0.0,0.0,0.0,0.0,0.0,0.0,0.0,0.0,0.0,0.0,0.0,0.0,0.0,0.0,0.0,0.0,0.0,0.0,0.0,-2.8125,0.0,0.0,0.0,0.0,0.0,0.0,0.0,0.0,0.0,-2.5491,-2.6741,-2.7988,-2.8933,-2.9107,-2.9322,-2.9739,0.0,0.0,0.0,0.0,0.0,0.0,0.0,-2.7147,-2.7192,-2.6972,-2.6893,-2.7252,-2.718,-2.7177,-2.7336,0.0,0.0,-2.5297,-2.4128,-2.3352,-2.3177,-2.2443,-2.17,-2.1202,-2.111,-2.1197,0.0,0.0,0.0,0.0,0.0,0.0,0.0,0.0,-3.4305,-3.4243,0.0,-3.432,0.0,0.0,0.0,0.0,0.0,-3.3596,0.0,0.0,-3.8862,-3.9767,-3.8585,-3.8539,-3.8554,-3.8492,-3.7261,-3.6615,-3.6476,-3.5306,0.0,0.0,0.0,0.0,0.0,0.0,-3.6507,-3.6661,-3.9185,-4.0489,-4.0489,-4.0489,-4.0489,-4.0489,-4.0489,-4.0459,-4.0428,-3.9216,-3.8231,-3.7492,-3.4968,0.0,0.0,0.0,0.0,0.0,0.0,0.0,0.0,0.0,0.0,0.0,0.0,0.0,0.0,0.0,0.0,0.0,0.0,0.0,0.0,-2.7746,0.0,0.0,0.0,0.0,0.0,0.0,0.0,0.0,0.0,0.0,-2.5904,-2.7744,-2.9215,-2.9215,0.0,0.0,0.0,0.0,-2.9426,-2.8536,-2.7857,-2.7512,-2.7764,-2.7755,-2.7966,-2.8732,0.0,0.0,-2.9155,-2.8088,-2.7494,-2.7949,-2.823,-2.8165,-2.7803,-2.7025,-2.6223,-2.5194,-2.4743,-2.4227,-2.3383,-2.3132,-2.3091,-3.526,0.0,0.0,0.0,0.0,-3.2259,-3.3814,-3.6338,-3.6553,-3.6799,-3.703,-3.6753,0.0,0.0,0.0,0.0,0.0,0.0,-3.6538,-3.7692,-3.9154,-3.9813,-3.992,-3.9939,-3.9905,-3.989,-3.9554,-3.9336,-3.9321,-3.8985,-3.7477,-3.4936,0.0,0.0,0.0,0.0,-3.6953,-3.7969,-3.9613,-4.0489,-4.0489,-4.0489,-4.0489,-4.0489,-4.0489,-4.0489,-4.0489,-4.012,-3.9382,-3.8262,-3.7015,0.0,0.0,0.0,0.0,0.0,0.0,0.0,0.0,0.0,0.0,0.0,0.0,0.0,0.0,0.0,0.0,0.0,0.0,0.0,-2.8864,-2.8587,-2.8003,0.0,0.0,0.0,0.0,0.0,0.0,0.0,0.0,0.0,-2.8166,-2.887,-2.9349,0.0,0.0,-2.9092,-2.8833,-2.8862,-2.9066,-2.951,-2.8731,0.0,-2.908,-2.8604,-2.8308,-2.8805,-2.9736,-3.0401,-3.0222,-3.0145,-3.0155,-3.0275,-3.0265,-3.0168,-2.9956,-2.8722,-2.777,-2.7705,-2.7017,-2.6233,-2.5887,-2.5373,-2.4929,-3.9293,-3.6861,-3.4568,-3.4152,-3.5014,-3.5029,-3.643,-3.8675,-3.8708,-3.8785,-3.8875,-3.8769,-3.78,-3.6245,-3.5598,0.0,0.0,0.0,-3.8015,-3.929,-3.969,-4.0105,-4.0474,-4.0489,-4.0489,-4.0489,-4.0489,-4.0489,-4.0489,-4.0213,-3.9213,-3.7507,0.0,0.0,-3.6307,-3.7215,-3.7954,-3.8554,-3.9847,-4.0489,-4.0489,-4.0489,-4.0489,-4.0489,-4.0489,-4.0489,-4.0489,-4.0489,-4.0105,-3.9339,-3.84,-3.7015,0.0,0.0,0.0,0.0,0.0,0.0,0.0,0.0,0.0,0.0,0.0,-2.8066,0.0,0.0,0.0,0.0,-2.8047,-2.8589,-2.976,-2.9089,0.0,0.0,0.0,0.0,0.0,0.0,0.0,-2.6402,-2.7908,-2.9042,-2.9308,-2.9619,-2.9862,-2.99,-2.9767,-2.9577,-2.9347,0.0,-2.9801,-3.0186,-2.9612,-2.9329,-2.9912,-2.9746,-2.9605,-2.9904,-3.0485,-3.0877,-3.0831,-3.1024,-3.1147,-3.1161,-3.1099,-3.1024,-3.1024,-3.0015,-2.9222,-2.929,-2.8636,-2.8009,-2.7642,-2.7142,-2.6753,-4.2817,-4.2371,-3.7984,-3.683,-3.7877,-3.7908,-3.8954,-4.0628,-4.0659,-4.0305,-3.9782,-4.0397,-3.9598,-3.78,-3.7123,0.0,-3.8662,-3.8677,-3.9339,-4.0489,-4.0489,-4.0489,-4.0489,-4.0489,-4.0489,-4.0489,-4.0489,-4.0489,-4.0474,-3.9908,-3.989,-4.0459,-3.9908,-3.8954,-3.78,-3.8846,-3.9154,-3.8616,-3.9782,-4.0428,-4.0489,-4.0489,-4.0489,-4.0489,-4.0489,-4.0489,-4.0489,-4.0489,-4.0489,-4.0459,-3.9305,-3.8338,-3.7554,0.0,0.0,0.0,0.0,0.0,0.0,0.0,0.0,0.0,0.0,0.0,0.0,0.0,0.0,0.0,-2.9375,0.0,-3.0418,-2.9428,0.0,0.0,0.0,-2.7145,-2.7718,-2.7868,-2.8112,-2.86,0.0,0.0,-2.9719,-3.0188,-3.0729,-3.1173,-3.1289,-3.1097,-3.0554,-3.1015,-3.1246,-3.0763,-3.0655,-3.0669,-3.0842,-3.1162,-3.1537,-3.1693,-3.1617,-3.1481,-3.1358,-3.1232,-3.1219,-3.1271,-3.1168,-3.1194,-3.113,-3.1119,-3.0877,-3.0138,-2.9857,-2.9563,-2.8827,-2.8539,-2.8409,-4.4587,-4.3972,-4.2376,-4.1555,-4.1386,-4.1401,-4.1678,-4.2094,-4.2109,-4.2032,-4.1894,-4.2048,-4.1555,-4.0601,-3.9878,-3.9754,-4.0013,-4.0013,-4.0182,-4.0489,-4.0489,-4.0489,-4.0489,-4.0489,-4.0489,-4.0489,-4.0489,-4.0489,-4.0489,-4.0336,-4.0336,-4.0474,-4.0336,-3.9828,-3.9062,-3.8846,-3.8939,-3.9277,-3.9567,-3.9967,-4.0474,-4.0489,-4.0489,-4.0489,-4.0489,-4.0489,-4.0489,-4.0489,-4.0489,-4.0489,-4.0197,-3.9508,-3.8323,-3.6184,0.0,0.0,0.0,0.0,0.0,0.0,0.0,0.0,0.0,-2.8881,-2.7428,0.0,-2.9639,0.0,-3.0072,-3.092,-3.1056,-3.0418,0.0,0.0,-2.8614,-2.822,-2.837,-2.9197,-2.9645,-2.9325,-3.0201,-3.1029,-3.1512,-3.1702,-3.2155,-3.3019,-3.2105,-3.1232,-3.1124,-3.2042,-3.2566,-3.2297,-3.2553,-3.2842,-3.2662,-3.2925,-3.3133,-3.3322,-3.3183,-3.303,-3.2991,-3.2721,-3.2501,-3.2501,-3.2397,-3.2319,-3.2254,-3.2319,-3.2228,-3.1967,-3.1306,-3.0634,-3.0419,-2.9871,-2.9394,-4.491,-4.4579,-4.4225,-4.3855,-4.3448,-4.2863,-4.2602,-4.2602,-4.2602,-4.2602,-4.2602,-4.2602,-4.2402,-4.2032,-4.1632,-4.1427,-4.1463,-4.1447,-4.1412,-4.1412,-4.1463,-4.1412,-4.1427,-4.1427,-4.1412,-4.1463,-4.1447,-4.1412,-4.1463,-4.1427,-4.1427,-4.1412,-4.1412,-4.1124,-4.0397,-3.9462,-3.9,-3.9077,-3.937,-3.9797,-4.0459,-4.0489,-4.0351,-4.0059,-4.0043,-3.9767,-3.9167,-3.9185,-3.9152,-3.9185,-3.9136,-3.897,-3.8508,-3.6876,-3.5322,0.0,0.0,0.0,0.0,0.0,0.0,0.0,0.0,0.0,0.0,0.0,-3.0197,-2.9566,-3.0589,-3.1178,-3.092,-3.0574,-3.0378,-3.0296,-3.0263,-3.0201,-3.0174,-3.126,-3.1748,-3.1186,-3.1897,-3.2603,-3.2928,-3.2955,-3.3149,-3.3826,-3.3298,-3.2766,-3.2539,-3.3064,-3.342,-3.332,-3.3576,-3.3767,-3.3599,-3.3715,-3.3792,-3.3792,-3.3715,-3.3613,-3.3535,-3.3327,-3.3158,-3.3171,-3.3093,-3.2975,-3.2843,-3.2843,-3.2738,-3.2293,-3.1823,-3.1509,-3.1705,-3.1371,-3.1034,-4.501,-4.4957,-4.481,-4.4756,-4.4779,-4.351,-4.3002,-4.2987,-4.2987,-4.2987,-4.2987,-4.291,-4.2817,-4.2725,-4.2648,-4.2602,-4.2602,-4.2602,-4.2602,-4.2602,-4.2602,-4.2602,-4.2602,-4.2602,-4.2602,-4.2602,-4.2602,-4.2602,-4.2602,-4.2602,-4.2602,-4.2602,-4.2602,-4.2263,-4.1586,-4.0385,-3.9413,-3.8785,-3.9413,-4.0043,-4.0612,-4.0459,-4.009,-3.9521,-3.9398,-3.88,-3.7569,-3.7507,-3.7507,-3.7507,-3.7507,-3.7846,-3.8569,-3.7353,-3.6168,0.0,-3.4051,0.0,0.0,0.0,0.0,0.0,0.0,0.0,0.0,-3.117,-3.1103,-3.0779,-3.1205,-3.1341,-3.0893,-3.0866,-3.107,-3.1585,-3.2087,-3.2413,-3.2426,-3.3298,-3.3718,-3.3264,-3.3634,-3.3921,-3.3975,-3.4016,-3.403,-3.4206,-3.4545,-3.4558,-3.4233,-3.4138,-3.4179,-3.4138,-3.4138,-3.4235,-3.4208,-3.4167,-3.4167,-3.4024,-3.4025,-3.3827,-3.3751,-3.3699,-3.3633,-3.3646,-3.3647,-3.3542,-3.3265,-3.3212,-3.2962,-3.2424,-3.2267,-3.2228,-3.2267,-3.2228,-3.2476,-4.7034,-4.6927,-4.5849,-4.5711,-4.6157,-4.5357,-4.5018,-4.5018,-4.5018,-4.5033,-4.4987,-4.4449,-4.3947,-4.3393,-4.2833,-4.2602,-4.2602,-4.2602,-4.2602,-4.2602,-4.2602,-4.2602,-4.2602,-4.2602,-4.2602,-4.2602,-4.2602,-4.2602,-4.2602,-4.2602,-4.2602,-4.2602,-4.2602,-4.2263,-4.1617,0.0,0.0,0.0,-4.0847,-4.1263,-4.1355,-4.0243,-3.9628,-3.9508,-3.897,0.0,-3.7554,-3.7507,-3.7507,-3.7507,-3.7507,0.0,0.0,0.0,0.0,0.0,0.0,0.0,0.0,0.0,0.0,0.0,-3.5356,-3.4241,-3.3369,-3.3063,-3.2827,-3.2618,-3.2707,-3.2874,-3.3203,-3.3244,-3.3284,-3.3406,-3.3501,-3.3582,-3.3596,-3.3786,-3.3853,-3.3772,-3.3853,-3.4097,-3.4545,-3.4626,-3.4816,-3.5236,-3.5439,-3.5466,-3.5371,-3.5303,-3.5371,-3.5384,-3.5249,-3.5303,-3.5371,-3.533,-3.5222,-3.5304,-3.5184,-3.5036,-3.4956,-3.4861,-3.478,-3.474,-3.463,-3.4522,-3.4441,-3.429,-3.4022,-3.3927,-3.3875,-3.3378,-3.1705,-3.1326,-3.13,-4.7111,0.0,-4.6372,-4.628,0.0,-4.6234,-4.628,-4.6573,-4.6234,-4.608,-4.6065,-4.5726,-4.5387,-4.5033,-4.4726,-4.4587,-4.4572,-4.4572,-4.4572,-4.4587,-4.4572,-4.4572,-4.4572,-4.4233,-4.4079,-4.4064,-4.3741,-4.3587,-4.3587,-4.3571,-4.3587,-4.3571,-4.3571,-4.3417,-4.3079,-4.3079,-4.2402,-4.1063,-4.1417,-4.1755,-4.2048,-4.1417,-4.0709,-4.0013,-3.9644,0.0,0.0,0.0,0.0,0.0,0.0,0.0,0.0,-3.8369,0.0,-3.8,-3.6982,-3.6796,-3.7732,-3.7131,-3.7313,-3.8595,-3.8363,-3.7222,-3.5126,-3.4542,-3.4237,-3.4141,-3.3748,-3.362,-3.3867,-3.3908,-3.3908,-3.3921,-3.4165,-3.4246,-3.4016,-3.4436,-3.4653,-3.4423,-3.4599,-3.491,-3.5221,-3.5262,-3.5466,-3.6049,-3.6157,-3.6266,-3.6442,-3.6035,-3.5723,-3.571,-3.571,-3.571,-3.571,-3.571,-3.5723,-3.5669,-3.5588,-3.5548,-3.5548,-3.548,-3.5399,-3.5399,-3.5318,-3.5236,-3.5072,-3.4977,-3.4733,-3.4277,-3.4157,-3.3696,-3.2175,-3.2058,-3.2267,-4.6773,-4.6757,-4.6634,-4.668,-4.6773,-4.6773,-4.7157,-4.7742,0.0,0.0,0.0,-4.6773,-4.6711,-4.6603,-4.6603,-4.6603,-4.6603,-4.6603,-4.6603,-4.6603,-4.6603,-4.6603,-4.6557,-4.6034,-4.5772,-4.5726,-4.5187,-4.4926,-4.4941,-4.4941,-4.488,-4.4756,-4.4795,-4.4718,-4.461,-4.461,-4.3756,-4.2217,-4.2001,-4.2217,-4.274,-4.254,-4.1894,-4.0705,-4.0551,-3.9598,-3.7754,-3.7677,-3.7631,-3.7507,-3.7507,-3.7861,-3.8631,-3.8659,-3.8492,-3.8092,-3.8031,-3.8292,-3.8816,-3.8829,-3.9305,-4.0413,-4.0489,-3.934,-3.6571,-3.6093,-3.579,-3.5545,-3.4844,-3.4451,-3.4437,-3.4297,-3.4219,-3.4233,-3.4653,-3.4748,-3.4355,-3.5046,-3.548,-3.5222,-3.5534,-3.5927,-3.6035,-3.6035,-3.6198,-3.6632,-3.6768,-3.6917,-3.7241,-3.6659,-3.6144,-3.6157,-3.6212,-3.609,-3.6049,-3.6103,-3.6035,-3.6103,-3.6062,-3.6035,-3.6035,-3.6049,-3.6035,-3.6103,-3.6008,-3.5885,-3.5694,-3.5624,-3.5301,-3.448,-3.4265,-3.4079,-3.351,-3.36,-3.3731,-4.745,-4.7419,-4.6834,-4.6927,-4.7465,-4.7465,-4.785,-4.845,-4.8373,-4.8004,-4.7465,-4.7465,-4.7142,-4.6603,-4.6603,-4.6603,-4.6603,-4.6603,-4.6603,-4.6603,-4.6603,-4.6603,-4.6588,-4.6496,-4.6449,-4.6449,-4.6357,-4.6311,-4.6311,-4.6296,-4.6018,-4.5511,-4.5449,-4.5157,-4.4656,-4.461,-4.4471,-4.4178,-4.3608,-4.3362,-4.3454,-4.2325,-4.1648,-4.1432,-4.0828,-3.9828,-3.8446,-3.84,-3.8092,-3.7538,-3.7507,-3.8077,-3.9244,-3.9336,-3.9567,-4.0028,-4.0074,-4.0105,-4.0197,-4.0228,-4.029,-4.0459,-4.0489,-3.9728,-3.8011,-3.8399,-3.815,-3.6848,-3.6511,-3.6451,-3.6451,-3.5795,-3.5398,-3.5452,-3.5493,-3.5547,-3.5425,-3.5588,-3.5927,-3.6266,-3.6402,-3.6687,-3.7038,-3.716,-3.716,-3.7323,-3.746,-3.7445,-3.754,-3.7363,-3.7241,-3.7241,-3.7241,-3.7241,-3.7106,-3.7228,-3.7133,-3.7241,-3.716,-3.7092,-3.7092,-3.7092,-3.7079,-3.7201,-3.698,-3.6838,-3.6625,-3.6449,-3.6161,-3.5733,-3.562,-3.5564,-3.5351,-3.5195,-3.4593,-4.8158,-4.8112,-4.7819,-4.7865,-4.8142,-4.8142,-4.8327,-4.8604,-4.8604,-4.845,-4.8173,-4.8158,-4.7973,-4.7711,-4.7681,-4.7696,-4.7696,-4.7696,-4.7696,-4.7681,-4.7696,-4.7681,-4.7665,-4.7311,-4.7142,-4.7111,-4.6757,-4.6603,-4.6603,-4.6603,-4.6434,-4.6157,-4.6142,-4.5803,-4.521,-4.511,-4.4979,-4.4625,-4.4317,-4.4163,-4.4148,-4.3525,-4.3033,-4.2715,-4.2325,-4.1724,-4.0786,-4.0739,-4.0416,-3.9754,-3.9739,-3.9831,-4.0013,-4.0062,-4.0166,-4.0474,-4.0489,-4.0489,-4.0489,-4.0489,-4.0489,-4.0489,-4.0489,-3.999,-3.887,-3.9073,-3.8979,-3.8227,-3.7448,-3.6897,-3.6897,-3.6163,-3.5845,-3.6171,-3.6198,-3.6334,-3.6591,-3.6659,-3.6767,-3.7011,-3.7107,-3.7216,-3.7445,-3.7499,-3.7648,-3.7892,-3.819,-3.8464,-3.8477,-3.8464,-3.8204,-3.7648,-3.7499,-3.7499,-3.7512,-3.7499,-3.7499,-3.7499,-3.7499,-3.7499,-3.7499,-3.7512,-3.7512,-3.7499,-3.7342,-3.7201,-3.7029,-3.683,-3.6601,-3.6397,-3.6341,-3.6297,-3.6101,-3.5887,-3.5351,-4.8604,-4.8604,-4.8604,-4.8604,-4.8604,-4.8604,-4.8604,-4.8604,-4.8604,-4.8604,-4.8604,-4.8604,-4.8604,-4.8604,-4.8604,-4.8604,-4.8604,-4.8604,-4.8604,-4.8604,-4.8604,-4.8604,-4.8558,-4.8065,-4.7835,-4.7773,-4.7296,-4.705,-4.705,-4.705,-4.6957,-4.6819,-4.668,-4.6326,-4.5834,-4.5818,-4.5519,-4.4849,-4.4841,-4.4741,-4.4625,-4.461,-4.4348,-4.3886,-4.384,-4.3531,-4.2863,-4.2817,-4.2509,-4.1878,-4.1832,-4.1571,-4.1012,-4.0966,-4.0889,-4.0751,-4.072,-4.0659,-4.0505,-4.0489,-4.0489,-4.0489,-4.0643,-4.0511,-3.9934,-3.9962,-3.9815,-3.9286,-3.835,-3.7767,-3.7733,-3.7198,-3.6849,-3.7099,-3.7071,-3.7166,-3.7433,-3.7499,-3.7553,-3.7648,-3.7702,-3.7716,-3.7838,-3.7892,-3.8095,-3.86,-3.902,-3.9292,-3.9305,-3.9305,-3.8871,-3.8231,-3.7892,-3.796,-3.7892,-3.7933,-3.796,-3.7878,-3.7933,-3.8043,-3.803,-3.7946,-3.7919,-3.7987,-3.7774,-3.7641,-3.7544,-3.7327,-3.7122,-3.6955,-3.6893,-3.677,-3.6663,-3.6593,-3.6253,-4.8604,-4.8604,-4.8604,-4.8604,-4.8604,-4.8604,-4.8604,-4.8604,-4.8604,-4.8604,-4.8604,-4.8604,-4.8604,-4.8604,-4.8604,-4.8604,-4.8604,-4.8604,-4.8604,-4.8604,-4.8604,-4.8604,-4.8604,-4.8527,-4.8527,-4.8496,-4.8389,-4.8296,-4.8296,-4.8343,-4.8096,-4.7511,-4.6911,-4.6619,-4.6511,-4.6511,-4.6172,-4.5511,-4.5495,-4.5203,-4.4641,-4.461,-4.4594,-4.4533,-4.4502,-4.4209,-4.3547,-4.3516,-4.3208,-4.2586,-4.2509,-4.2479,-4.2386,-4.2402,-4.214,-4.1555,-4.1494,-4.1232,-4.0597,-4.0489,-4.0551,-4.0551,-4.1155,-4.1458,-4.1367,-4.1889,-4.1386,-3.998,-3.9808,-3.9936,-4.0055,-3.9764,-3.9247,-3.865,-3.8597,-3.8324,-3.7794,-3.7499,-3.7689,-3.8288,-3.8342,-3.8518,-3.8898,-3.8993,-3.9074,-3.9102,-3.921,-3.9305,-3.9305,-3.9305,-3.9292,-3.9102,-3.9102,-3.9034,-3.9007,-3.9129,-3.8993,-3.9034,-3.9102,-3.9007,-3.8939,-3.8993,-3.9115,-3.8759,-3.8759,-3.8541,-3.834,-3.8235,-3.793,-3.7605,-3.7612,-3.771,-3.7717,-3.7586,-3.7142,-4.8604,-4.8604,-4.8604,-4.8604,-4.8604,-4.8604,-4.8604,-4.8604,-4.8604,-4.8604,-4.8604,-4.8604,-4.8604,-4.8604,-4.8604,-4.8604,-4.8604,-4.8604,-4.8604,-4.8604,-4.8604,-4.8604,-4.8604,-4.8604,-4.8604,-4.8604,-4.8604,-4.8604,-4.8604,-4.8604,-4.8481,-4.8219,-4.7912,-4.7588,-4.7219,-4.7204,-4.6865,-4.6203,-4.6188,-4.5849,-4.5218,-4.4825,-4.461,-4.461,-4.461,-4.4464,-4.424,-4.4209,-4.3901,-4.3248,-4.3171,-4.2987,-4.2617,-4.2602,-4.2494,-4.2202,-4.2186,-4.2078,-4.1786,-4.172,-4.1735,-4.1755,-4.2017,-4.2186,-4.2202,-4.2448,-4.218,-4.1462,-4.1105,-4.101,-4.095,-4.0551,-4.0191,-4.011,-4.0156,-3.9932,-3.9423,-3.9337,-3.929,-3.903,-3.8939,-3.9007,-3.9237,-3.9305,-3.9305,-3.9305,-3.9305,-3.9305,-3.9305,-3.9305,-3.9305,-3.9251,-3.902,-3.8966,-3.921,-3.9305,-3.9305,-3.9305,-3.9305,-3.9305,-3.9305,-3.9305,-3.9305,-3.9305,-3.9056,-3.8832,-3.8581,-3.8362,-3.8135,-3.7979,-3.79,-3.79,-3.79,-3.7612,-3.7246,-4.8604,-4.8604,-4.8604,-4.8604,-4.8604,-4.8604,-4.8604,-4.8604,-4.8604,-4.8604,-4.8604,-4.8604,-4.8604,-4.8604,-4.8604,-4.8604,-4.8604,-4.8604,-4.8604,-4.8604,-4.8604,-4.8604,-4.8604,-4.8604,-4.8604,-4.8604,-4.8604,-4.8604,-4.8604,-4.8604,-4.8604,-4.8604,-4.8604,-4.8373,-4.7927,-4.7881,-4.7558,-4.6942,-4.688,-4.6557,-4.5895,-4.5426,-4.4957,-4.4633,-4.461,-4.461,-4.461,-4.461,-4.4356,-4.3917,-4.3886,-4.367,-4.3187,-4.314,-4.3063,-4.2863,-4.2694,-4.2602,-4.2602,-4.2602,-4.2602,-4.2633,-4.274,-4.2863,-4.2894,-4.3048,-4.314,-4.3067,-4.2612,-4.2266,-4.1965,-4.1628,-4.1538,-4.1689,-4.1547,-4.1182,-4.0633,-4.0446,-3.9899,-3.9424,-3.9251,-3.9305,-3.9305,-3.9305,-3.9305,-3.9305,-3.9305,-3.9305,-3.9305,-3.9305,-3.9264,-3.9102,-3.8803,-3.8884,-3.921,-3.9102,-3.9129,-3.9292,-3.9305,-3.9305,-3.9305,-3.9305,-3.9305,-3.9261,-3.9069,-3.8877,-3.8711,-3.8485,-3.8135,-3.7979,-3.79,-3.79,-3.79,-3.7508,-3.7508,-4.8604,-4.8604,-4.8604,-4.8604,-4.8604,-4.8604,-4.8604,-4.8604,-4.8604,-4.8604,-4.8604,-4.8604,-4.8604,-4.8604,-4.8604,-4.8604,-4.8604,-4.8604,-4.8604,-4.8604,-4.8604,-4.8604,-4.8604,-4.8604,-4.8604,-4.8604,-4.8604,-4.8604,-4.8604,-4.8604,-4.8604,-4.8604,-4.8604,-4.8589,-4.8512,-4.8496,-4.8219,-4.7619,-4.7558,-4.7234,-4.6634,-4.6511,-4.588,-4.4856,-4.4625,-4.4656,-4.461,-4.461,-4.4579,-4.451,-4.4517,-4.4517,-4.4449,-4.4456,-4.4163,-4.3608,-4.2987,-4.2663,-4.2694,-4.2725,-4.2709,-4.274,-4.3248,-4.3562,-4.3608,-4.3987,-4.4317,-4.4433,-4.4272,-4.3997,-4.3567,-4.3677,-4.3723,-4.3159,-4.2475,-4.1697,-4.0788,-4.0287,-3.9469,-3.9349,-3.9349,-3.9305,-3.9305,-3.9305,-3.9278,-3.9251,-3.9264,-3.9224,-3.9129,-3.9197,-3.8966,-3.8681,-3.8762,-3.9224,-3.9224,-3.9061,-3.8939,-3.8939,-3.9047,-3.9251,-3.9305,-3.9305,-3.9305,-3.9261,-3.91,-3.8953,-3.8819,-3.8562,-3.8226,-3.8024,-3.7946,-3.79,-3.79,-3.7887,-3.7835,-4.8604,-4.8604,-4.8604,-4.8604,-4.8604,-4.8604,-4.8604,-4.8604,-4.8604,-4.8604,-4.8604,-4.8604,-4.8604,-4.8604,-4.8604,-4.8604,-4.8604,-4.8604,-4.8604,-4.8604,-4.8604,-4.8604,-4.8604,-4.8604,-4.8604,-4.8604,-4.8604,-4.8604,-4.8604,-4.8604,-4.8604,-4.8604,-4.8604,-4.8604,-4.8604,-4.8604,-4.8481,-4.8281,-4.825,-4.7927,-4.7311,-4.725,-4.6788,-4.5911,-4.5449,-4.5018,-4.461,-4.461,-4.461,-4.461,-4.461,-4.461,-4.461,-4.461,-4.4533,-4.4271,-4.4024,-4.3864,-4.3879,-4.3864,-4.3864,-4.3879,-4.4101,-4.4187,-4.4286,-4.4471,-4.461,-4.461,-4.461,-4.4456,-4.4326,-4.4486,-4.4496,-4.4174,-4.381,-4.319,-4.2519,-4.2029,-4.1449,-4.0374,-3.9719,-3.9305,-3.9349,-3.9305,-3.9156,-3.8817,-3.8749,-3.8627,-3.8244,-3.8136,-3.8163,-3.7851,-3.7704,-3.7718,-3.8122,-3.8762,-3.8966,-3.8613,-3.8545,-3.879,-3.8912,-3.9142,-3.9183,-3.9197,-3.9077,-3.9056,-3.8922,-3.8594,-3.8258,-3.8089,-3.8011,-3.7992,-3.79,-3.7828,-3.7756,-4.8604,-4.8604,-4.8604,-4.8604,-4.8604,-4.8604,-4.8604,-4.8604,-4.8604,-4.8604,-4.8604,-4.8604,-4.8604,-4.8604,-4.8604,-4.8604,-4.8604,-4.8604,-4.8604,-4.8604,-4.8604,-4.8604,-4.8604,-4.8604,-4.8604,-4.8604,-4.8604,-4.8604,-4.8604,-4.8604,-4.8604,-4.8604,-4.8604,-4.8604,-4.8604,-4.8604,-4.8604,-4.8604,-4.8604,-4.8358,-4.7973,-4.7942,-4.7604,-4.6973,-4.6465,-4.5911,-4.5303,-4.5033,-4.4895,-4.4918,-4.4748,-4.461,-4.461,-4.461,-4.461,-4.461,-4.4594,-4.461,-4.461,-4.461,-4.4594,-4.461,-4.4594,-4.461,-4.461,-4.461,-4.461,-4.461,-4.461,-4.461,-4.461,-4.461,-4.461,-4.4534,-4.4381,-4.3966,-4.3349,-4.2991,-4.2263,-4.1239,-4.0287,-3.9837,-3.9662,-3.9469,-3.9173,-3.8735,-3.8708,-3.8491,-3.8149,-3.8098,-3.7946,-3.7853,-3.7826,-3.7704,-3.7905,-3.8545,-3.86,-3.8231,-3.8163,-3.8423,-3.8613,-3.8871,-3.9074,-3.9088,-3.9112,-3.9104,-3.8922,-3.8607,-3.8427,-3.8245,-3.8226,-3.8207,-3.8011,-3.7703,-3.7769,-4.8604,-4.8604,-4.8604,-4.8604,-4.8604,-4.8604,-4.8604,-4.8604,-4.8604,-4.8604,-4.8604,-4.8604,-4.8604,-4.8604,-4.8604,-4.8604,-4.8604,-4.8604,-4.8604,-4.8604,-4.8604,-4.8604,-4.8604,-4.8604,-4.8604,-4.8604,-4.8604,-4.8604,-4.8604,-4.8604,-4.8604,-4.8604,-4.8604,-4.8604,-4.8604,-4.8604,-4.8604,-4.8604,-4.8604,-4.8573,-4.8589,-4.8527,-4.8235,-4.7681,-4.7558,-4.7275,-4.6643,-4.5957,-4.5603,-4.5526,-4.5049,-4.4633,-4.4702,-4.4641,-4.461,-4.461,-4.461,-4.461,-4.461,-4.461,-4.461,-4.461,-4.461,-4.461,-4.461,-4.461,-4.461,-4.461,-4.461,-4.461,-4.461,-4.461,-4.461,-4.4518,-4.4058,-4.3576,-4.3284,-4.2589,-4.2032,-4.1908,-4.1212,-4.0689,-4.0446,-4.0099,-3.9637,-3.9322,-3.9237,-3.9098,-3.8793,-3.8695,-3.8817,-3.8559,-3.8247,-3.803,-3.8193,-3.8369,-3.8095,-3.7892,-3.7946,-3.8082,-3.8274,-3.8491,-3.8871,-3.8979,-3.9169,-3.9176,-3.91,-3.8787,-3.8594,-3.8472,-3.8453,-3.8434,-3.8206,-3.799,-3.7939,-4.8604,-4.8604,-4.8604,-4.8604,-4.8604,-4.8604,-4.8604,-4.8604,-4.8604,-4.8604,-4.8604,-4.8604,-4.8604,-4.8604,-4.8604,-4.8604,-4.8604,-4.8604,-4.8604,-4.8604,-4.8604,-4.8604,-4.8604,-4.8604,-4.8604,-4.8604,-4.8604,-4.8604,-4.8604,-4.8604,-4.8604,-4.8604,-4.8604,-4.8604,-4.8604,-4.8604,-4.8604,-4.8604,-4.8604,-4.8604,-4.8604,-4.8604,-4.8496,-4.8343,-4.845,-4.8465,-4.8177,-4.6976,-4.6311,-4.628,-4.608,-4.5757,-4.5295,-4.4856,-4.461,-4.461,-4.461,-4.461,-4.461,-4.461,-4.461,-4.461,-4.461,-4.461,-4.461,-4.461,-4.461,-4.461,-4.461,-4.461,-4.461,-4.461,-4.4656,-4.461,-4.4328,-4.4135,-4.4058,-4.3403,-4.2966,-4.2805,-4.2099,-4.1645,-4.1561,-4.1184,-4.0661,-3.9814,-3.9659,-3.9348,-3.8476,-3.8385,-3.8014,-3.7824,-3.796,-3.8315,-3.8315,-3.8342,-3.8206,-3.8055,-3.8068,-3.7905,-3.8,-3.8315,-3.8667,-3.8979,-3.9169,-3.922,-3.9145,-3.9011,-3.8832,-3.8697,-3.8679,-3.8557,-3.8421,-3.833,-3.8272,-4.8604,-4.8604,-4.8604,-4.8604,-4.8604,-4.8604,-4.8604,-4.8604,-4.8604,-4.8604,-4.8604,-4.8604,-4.8604,-4.8604,-4.8604,-4.8604,-4.8604,-4.8604,-4.8604,-4.8604,-4.8604,-4.8604,-4.8604,-4.8604,-4.8604,-4.8604,-4.8604,-4.8604,-4.8604,-4.8604,-4.8604,-4.8604,-4.8604,-4.8604,-4.8604,-4.8604,-4.8604,-4.8604,-4.8604,-4.8604,-4.8604,-4.8604,-4.8661,-4.8744,-4.8898,-4.8913,-4.869,-4.7957,-4.7419,-4.7108,-4.6797,-4.6388,-4.5957,-4.5572,-4.5326,-4.5334,-4.511,-4.4972,-4.4926,-4.4726,-4.461,-4.461,-4.461,-4.461,-4.461,-4.461,-4.461,-4.461,-4.4818,-4.4957,-4.5026,-4.5272,-4.5203,-4.501,-4.4726,-4.4625,-4.4496,-4.4135,-4.381,-4.36,-4.3046,-4.2603,-4.2467,-4.2085,-4.1666,-4.0698,-4.0237,-4.0139,-3.9102,-3.8677,-3.8452,-3.8367,-3.8596,-3.8648,-3.8328,-3.8288,-3.8288,-3.8301,-3.8342,-3.8027,-3.7878,-3.8328,-3.8722,-3.9047,-3.9292,-3.9292,-3.9216,-3.9158,-3.9011,-3.8935,-3.8845,-3.8769,-3.8647,-3.8575,-3.853,-4.8604,-4.8604,-4.8604,-4.8604,-4.8604,-4.8604,-4.8604,-4.8604,-4.8604,-4.8604,-4.8604,-4.8604,-4.8604,-4.8604,-4.8604,-4.8604,-4.8604,-4.8604,-4.8604,-4.8604,-4.8604,-4.8604,-4.8604,-4.8604,-4.8604,-4.8604,-4.8604,-4.8604,-4.8604,-4.8604,-4.8604,-4.8604,-4.8604,-4.862,-4.8661,-4.8604,-4.8687,-4.8702,-4.8687,-4.8687,-4.8687,-4.8646,-4.8759,-4.898,-4.9062,-4.891,-4.8698,-4.8776,-4.8711,-4.8019,-4.7139,-4.6643,-4.6619,-4.6619,-4.6449,-4.6372,-4.5926,-4.5664,-4.548,-4.4979,-4.4733,-4.4918,-4.4841,-4.4649,-4.4726,-4.4918,-4.4856,-4.4687,-4.5218,-4.5572,-4.5572,-4.6018,-4.6065,-4.5603,-4.4941,-4.4641,-4.461,-4.4534,-4.4442,-4.4366,-4.3888,-4.3379,-4.3364,-4.275,-4.2371,-4.1918,-4.1363,-4.1277,-4.1068,-4.0449,-4.006,-3.9889,-3.9824,-3.9769,-3.9701,-3.9229,-3.9216,-3.9102,-3.8956,-3.8464,-3.8193,-3.8559,-3.8817,-3.9129,-3.9305,-3.9305,-3.9305,-3.9203,-3.9158,-3.9069,-3.898,-3.9007,-3.8948,-3.8845,-3.8742,-4.8604,-4.8604,-4.8604,-4.8604,-4.8604,-4.8604,-4.8604,-4.8604,-4.8604,-4.8604,-4.8604,-4.8604,-4.8604,-4.8604,-4.8604,-4.8604,-4.8604,-4.8604,-4.8604,-4.8604,-4.8604,-4.8604,-4.8604,-4.8604,-4.8604,-4.8604,-4.8604,-4.8604,-4.8604,-4.8604,-4.8604,-4.862,-4.88,-4.8898,-4.8898,-4.9047,-4.9113,-4.9113,-4.9113,-4.9113,-4.9072,-4.9113,-4.9169,-4.921,-4.9356,-4.9358,-4.9204,-4.8953,-4.8816,-4.868,-4.7499,-4.7009,-4.7244,-4.6896,-4.672,-4.6658,-4.6049,-4.5849,-4.6003,-4.5249,-4.5064,-4.5895,-4.5557,-4.5341,-4.5341,-4.5788,-4.5511,-4.5126,-4.5572,-4.5911,-4.5311,-4.5895,-4.6157,-4.5649,-4.4972,-4.461,-4.461,-4.461,-4.461,-4.4556,-4.4366,-4.4212,-4.4097,-4.3942,-4.3576,-4.3031,-4.2655,-4.2356,-4.2181,-4.1742,-4.1099,-4.1352,-4.1377,-4.1337,-4.1169,-4.0604,-4.0233,-4.0048,-3.9745,-3.9163,-3.8969,-3.9034,-3.9156,-3.9292,-3.9305,-3.9305,-3.9305,-3.9261,-3.9203,-3.9158,-3.9172,-3.9185,-3.9127,-3.9056,-3.8908,-4.8604,-4.8604,-4.8604,-4.8604,-4.8604,-4.8604,-4.8604,-4.8604,-4.8604,-4.8604,-4.8604,-4.8604,-4.8604,-4.8604,-4.8604,-4.8604,-4.8604,-4.8604,-4.8604,-4.8604,-4.8604,-4.8604,-4.8604,-4.8604,-4.8604,-4.862,-4.8718,-4.8774,-4.88,-4.8867,-4.8908,-4.8949,-4.9047,-4.9103,-4.9128,-4.921,-4.9275,-4.9275,-4.9275,-4.9275,-4.9275,-4.9275,-4.9356,-4.9437,-4.9541,-4.9559,-4.9245,-4.8364,-4.8091,-4.8306,-4.7689,-4.7308,-4.7793,-4.7441,-4.7262,-4.7478,-4.6652,-4.6326,-4.6619,-4.5772,-4.5541,-4.628,-4.6188,-4.6065,-4.6065,-4.6388,-4.6065,-4.5341,-4.6049,-4.5942,-4.5442,-4.5741,-4.5911,-4.5588,-4.4987,-4.4625,-4.461,-4.461,-4.461,-4.461,-4.461,-4.461,-4.461,-4.461,-4.4366,-4.3903,-4.3403,-4.3284,-4.3165,-4.2563,-4.2196,-4.2441,-4.2278,-4.2032,-4.1893,-4.1463,-4.1127,-4.0944,-4.0703,-4.0099,-3.9645,-3.9513,-3.9336,-3.9336,-3.9305,-3.9305,-3.9305,-3.9305,-3.9261,-3.9261,-3.9305,-3.9305,-3.9247,-3.9203,-3.9056,-4.8604,-4.8604,-4.8604,-4.8604,-4.8604,-4.8604,-4.8604,-4.8604,-4.8604,-4.8604,-4.8604,-4.8604,-4.8604,-4.8604,-4.8604,-4.8604,-4.8604,-4.8604,-4.8604,-4.8604,-4.8604,-4.8604,-4.8718,-4.8702,-4.8702,-4.8785,-4.8939,-4.898,-4.9062,-4.921,-4.9275,-4.9235,-4.9275,-4.9316,-4.9356,-4.9356,-4.9356,-4.9396,-4.9437,-4.9437,-4.9437,-4.9437,-4.9517,-4.9597,-4.9637,-4.9426,-4.8764,-4.7839,-4.7388,-4.8106,-4.7505,-4.745,-4.7972,-4.7882,-4.8044,-4.8159,-4.7188,-4.6753,-4.7213,-4.6266,-4.595,-4.6689,-4.6773,-4.6603,-4.6557,-4.6665,-4.6372,-4.5311,-4.6157,-4.6219,-4.5834,-4.5664,-4.5541,-4.5434,-4.501,-4.4656,-4.461,-4.461,-4.461,-4.461,-4.461,-4.461,-4.461,-4.461,-4.4572,-4.4343,-4.3966,-4.3888,-4.3756,-4.3403,-4.323,-4.3364,-4.2991,-4.2467,-4.24,-4.2278,-4.2017,-4.1811,-4.1645,-4.1156,-4.0301,-3.9968,-3.9557,-3.9394,-3.9349,-3.9305,-3.9305,-3.9305,-3.9394,-3.9305,-3.9305,-3.9305,-3.9305,-3.9261,-3.9203,-4.8604,-4.8604,-4.8604,-4.8604,-4.8604,-4.8604,-4.8604,-4.8604,-4.8604,-4.8604,-4.8604,-4.8604,-4.862,-4.8604,-4.8604,-4.8604,-4.8604,-4.8604,-4.8604,-4.8604,-4.8604,-4.8702,-4.8857,-4.8924,-4.9006,-4.9128,-4.9194,-4.925,-4.925,-4.9275,-4.9316,-4.9316,-4.9477,-4.9517,-4.9557,-4.9677,-4.9757,-4.9757,-4.9757,-4.9717,-4.9717,-4.9717,-4.9757,-4.9797,-4.9836,-4.9474,-4.8904,-4.8098,-4.7524,-4.7142,-4.6865,-4.6924,-4.7333,-4.7411,-4.7512,-4.7481,-4.6944,-4.6718,-4.7283,-4.6346,-4.5982,-4.7598,-4.7121,-4.6603,-4.6634,-4.705,-4.6449,-4.5526,-4.5849,-4.6372,-4.6126,-4.5326,-4.521,-4.5249,-4.4957,-4.461,-4.461,-4.461,-4.461,-4.461,-4.461,-4.461,-4.461,-4.461,-4.4572,-4.4572,-4.4496,-4.4404,-4.4236,-4.4043,-4.4043,-4.4043,-4.3834,-4.3403,-4.3324,-4.3205,-4.2911,-4.275,-4.2589,-4.2237,-4.1394,-4.0788,-4.0546,-3.9968,-3.9305,-3.9438,-3.9851,-3.9645,-3.9777,-3.9557,-3.9482,-3.9689,-3.9807,-3.9601,-3.9689,-4.8604,-4.8604,-4.8604,-4.8604,-4.8604,-4.8604,-4.8604,-4.8604,-4.8604,-4.8676,-4.8759,-4.8676,-4.8661,-4.8759,-4.8661,-4.8604,-4.862,-4.8744,-4.88,-4.88,-4.8883,-4.9087,-4.925,-4.925,-4.9331,-4.9316,-4.9396,-4.9437,-4.9437,-4.9517,-4.9597,-4.9597,-4.9677,-4.9717,-4.9733,-4.9836,-4.9876,-4.9876,-4.9916,-4.9916,-4.9916,-4.9916,-4.9916,-4.9916,-4.9868,-4.9489,-4.8462,-4.8114,-4.7324,-4.6592,-4.625,-4.6422,-4.6859,-4.694,-4.7027,-4.7176,-4.663,-4.6632,-4.6905,-4.6485,-4.6229,-4.7778,-4.7221,-4.6964,-4.6817,-4.7117,-4.6559,-4.5626,-4.5634,-4.6018,-4.568,-4.5172,-4.4864,-4.4964,-4.4841,-4.461,-4.461,-4.461,-4.461,-4.461,-4.461,-4.461,-4.461,-4.461,-4.461,-4.4572,-4.4572,-4.448,-4.4518,-4.4366,-4.4404,-4.4442,-4.448,-4.4404,-4.4328,-4.4135,-4.381,-4.3717,-4.3639,-4.3205,-4.2589,-4.2085,-4.1657,-4.0958,-4.0315,-4.0617,-4.0944,-4.0574,-4.0445,-4.0688,-4.0774,-4.0645,-4.0603,-4.0774,-4.0859,-4.8702,-4.8702,-4.8702,-4.8702,-4.8702,-4.8728,-4.8728,-4.8728,-4.8687,-4.8883,-4.8996,-4.8759,-4.88,-4.8914,-4.8702,-4.8604,-4.8759,-4.8939,-4.9021,-4.9062,-4.9153,-4.9316,-4.9477,-4.9517,-4.9517,-4.9396,-4.9557,-4.9653,-4.9677,-4.9797,-4.9836,-4.9876,-4.9876,-4.9876,-4.9876,-4.9876,-4.9916,-4.9916,-4.9916,-4.9916,-4.9916,-4.9916,-4.9916,-4.9916,-4.9679,-4.9126,-4.8193,-4.7688,-4.7119,-4.5934,-4.5807,-4.6108,-4.6434,-4.6528,-4.6589,-4.7148,-4.6423,-4.6488,-4.6809,-4.6474,-4.6334,-4.7091,-4.706,-4.6967,-4.6796,-4.6656,-4.6222,-4.575,-4.5442,-4.5249,-4.4664,-4.4603,-4.4625,-4.4656,-4.4625,-4.461,-4.461,-4.461,-4.461,-4.461,-4.461,-4.461,-4.461,-4.461,-4.461,-4.461,-4.461,-4.461,-4.461,-4.461,-4.461,-4.461,-4.461,-4.461,-4.4534,-4.4534,-4.4251,-4.4251,-4.4289,-4.4004,-4.3576,-4.3309,-4.2816,-4.2058,-4.1659,-4.1825,-4.1784,-4.145,-4.1534,-4.199,-4.1825,-4.1408,-4.1534,-4.1949,-4.1908,-4.9194,-4.9194,-4.9194,-4.9194,-4.9194,-4.9178,-4.9153,-4.9194,-4.9153,-4.9194,-4.921,-4.9021,-4.8939,-4.8939,-4.8718,-4.8718,-4.8939,-4.9144,-4.925,-4.925,-4.9316,-4.9437,-4.9597,-4.9637,-4.9677,-4.9797,-4.9836,-4.9836,-4.9852,-4.9892,-4.9916,-4.9916,-4.9916,-4.9916,-4.9916,-4.9916,-4.9916,-4.9916,-4.9916,-4.9916,-4.9916,-4.9916,-4.9916,-4.9852,-4.9457,-4.8731,-4.7972,-4.7293,-4.6613,-4.5918,-4.5823,-4.5886,-4.5976,-4.6008,-4.6066,-4.6124,-4.6055,-4.6155,-4.6435,-4.6037,-4.626,-4.6771,-4.6724,-4.6427,-4.6282,-4.6151,-4.5795,-4.5294,-4.4932,-4.4748,-4.4641,-4.461,-4.461,-4.461,-4.461,-4.461,-4.461,-4.461,-4.461,-4.461,-4.461,-4.461,-4.461,-4.461,-4.461,-4.461,-4.461,-4.461,-4.461,-4.461,-4.461,-4.461,-4.461,-4.461,-4.4572,-4.4572,-4.448,-4.4442,-4.448,-4.448,-4.4251,-4.4381,-4.3966,-4.3046,-4.2482,-4.2319,-4.2278,-4.2278,-4.236,-4.2603,-4.236,-4.2073,-4.24,-4.2725,-4.2441,-4.9275,-4.9275,-4.9275,-4.9275,-4.9275,-4.9275,-4.9275,-4.9275,-4.9316,-4.9356,-4.9372,-4.9266,-4.921,-4.921,-4.9072,-4.9031,-4.921,-4.9372,-4.9437,-4.9477,-4.9557,-4.9637,-4.9797,-4.9797,-4.9797,-4.9876,-4.9916,-4.9955,-4.9916,-4.9876,-4.9916,-4.9916,-4.9916,-4.9916,-4.9916,-4.9916,-4.9916,-4.9916,-4.9916,-4.9916,-4.9916,-4.9916,-4.9916,-4.9726,-4.9259,-4.8573,-4.7909,-4.7182,-4.6503,-4.5965,-4.5807,-4.5807,-4.5807,-4.5807,-4.5807,-4.5807,-4.5823,-4.5882,-4.6071,-4.5803,-4.5966,-4.6306,-4.6159,-4.5943,-4.5837,-4.5694,-4.5472,-4.5051,-4.4836,-4.4723,-4.461,-4.461,-4.461,-4.461,-4.461,-4.461,-4.461,-4.461,-4.461,-4.461,-4.461,-4.461,-4.461,-4.461,-4.461,-4.461,-4.461,-4.461,-4.461,-4.461,-4.461,-4.461,-4.461,-4.461,-4.461,-4.461,-4.461,-4.461,-4.461,-4.461,-4.4572,-4.4572,-4.4366,-4.3849,-4.3403,-4.3046,-4.3364,-4.36,-4.3442,-4.3284,-4.3324,-4.3364,-4.3403,-4.3364,-4.3165,-4.9661,-4.9661,-4.9661,-4.9661,-4.9606,-4.9477,-4.9437,-4.9437,-4.9622,-4.9821,-4.986,-4.9884,-4.9986,-5.0026,-4.9986,-4.9868,-4.9829,-5.0104,-5.0245,-5.0283,-5.04,-5.0416,-5.0377,-5.0338,-5.0477,-5.0631,-5.0554,-5.0292,-5.0175,-4.9995,-4.9995,-5.0097,-5.0058,-4.9916,-4.9916,-4.9916,-4.9916,-4.9916,-4.9916,-4.99,-5.0097,-5.0276,-5.0242,-5.0083,-4.9499,-4.884,-4.8194,-4.7493,-4.6805,-4.6299,-4.6028,-4.5956,-4.5844,-4.5807,-4.5807,-4.5807,-4.5807,-4.5807,-4.5823,-4.5803,-4.5834,-4.5955,-4.585,-4.5714,-4.562,-4.5588,-4.5362,-4.5039,-4.4964,-4.4874,-4.4723,-4.4685,-4.4648,-4.461,-4.461,-4.461,-4.461,-4.461,-4.461,-4.461,-4.461,-4.461,-4.461,-4.461,-4.461,-4.461,-4.461,-4.461,-4.461,-4.461,-4.461,-4.461,-4.461,-4.461,-4.461,-4.461,-4.461,-4.461,-4.461,-4.461,-4.461,-4.4572,-4.4366,-4.4251,-4.4289,-4.4043,-4.448,-4.461,-4.4197,-4.4082,-4.4442,-4.4442,-4.412,-4.4082,-4.4004,-5.0892,-5.0892,-5.0892,-5.0892,-5.0761,-5.0175,-4.9876,-4.9995,-5.0586,-5.0876,-5.0914,-5.1315,-5.1467,-5.1467,-5.1484,-5.1521,-5.1541,-5.1541,-5.1578,-5.1541,-5.1651,-5.1667,-5.1849,-5.1941,-5.1651,-5.1578,-5.174,-5.1537,-5.1086,-5.0432,-5.0354,-5.0723,-5.0432,-4.9979,-5.0237,-5.0276,-4.9916,-4.9955,-4.9979,-5.0315,-5.0897,-5.1451,-5.1326,-5.0873,-5.0115,-4.9372,-4.8664,-4.7993,-4.7334,-4.6805,-4.6689,-4.6407,-4.5936,-4.5807,-4.5807,-4.5807,-4.5807,-4.5807,-4.5807,-4.5807,-4.5807,-4.5807,-4.5807,-4.5771,-4.5698,-4.5589,-4.5442,-4.522,-4.5182,-4.5092,-4.4927,-4.4874,-4.4761,-4.4685,-4.4648,-4.461,-4.461,-4.461,-4.461,-4.461,-4.461,-4.461,-4.461,-4.461,-4.461,-4.461,-4.461,-4.461,-4.461,-4.461,-4.461,-4.461,-4.461,-4.461,-4.461,-4.461,-4.461,-4.461,-4.461,-4.461,-4.461,-4.461,-4.461,-4.4518,-4.461,-4.461,-4.461,-4.461,-4.461,-4.461,-4.461,-4.461,-4.4518,-4.461,-4.461,-5.2134,-5.172,-5.172,-5.172,-5.1683,-5.1336,-5.1187,-5.1278,-5.1574,-5.172,-5.1756,-5.1921,-5.2048,-5.2137,-5.2065,-5.2048,-5.2084,-5.2227,-5.2175,-5.2262,-5.2262,-5.221,-5.2139,-5.2191,-5.2175,-5.2298,-5.2262,-5.2385,-5.1974,-5.1667,-5.1447,-5.1574,-5.1389,-5.1278,-5.1054,-5.1166,-5.1241,-5.1241,-5.1278,-5.1389,-5.1605,-5.1614,-5.1446,-5.1082,-5.0038,-4.9359,-4.8912,-4.8249,-4.7803,-4.7422,-4.7422,-4.7322,-4.7084,-4.7015,-4.7015,-4.6981,-4.6582,-4.6227,-4.588,-4.5844,-4.5807,-4.5807,-4.5807,-4.5807,-4.5771,-4.5698,-4.5589,-4.5405,-4.5368,-4.5278,-4.5145,-4.5092,-4.4964,-4.4836,-4.4723,-4.4648,-4.461,-4.461,-4.461,-4.461,-4.461,-4.461,-4.461,-4.461,-4.461,-4.461,-4.461,-4.461,-4.461,-4.461,-4.461,-4.461,-4.461,-4.461,-4.461,-4.461,-4.461,-4.461,-4.461,-4.461,-4.461,-4.461,-4.461,-4.461,-4.461,-4.461,-4.461,-4.461,-4.461,-4.461,-4.461,-4.461,-4.461,-4.461,-4.461,-5.3332,-5.2769,-5.2596,-5.2491,-5.2472,-5.2298,-5.2139,-5.2208,-5.242,-5.2491,-5.2561,-5.27,-5.2804,-5.2786,-5.2855,-5.2907,-5.2838,-5.2769,-5.2769,-5.2769,-5.2769,-5.2838,-5.2941,-5.2873,-5.2873,-5.2735,-5.2976,-5.318,-5.3281,-5.3095,-5.27,-5.2491,-5.2137,-5.2101,-5.2156,-5.2048,-5.1977,-5.2013,-5.2279,-5.242,-5.2444,-5.2049,-5.1715,-5.1129,-5.0242,-4.9356,-4.9105,-4.88,-4.8497,-4.8144,-4.8127,-4.8031,-4.7787,-4.7704,-4.7704,-4.7638,-4.7288,-4.6931,-4.6458,-4.6171,-4.588,-4.5807,-4.5807,-4.5807,-4.5807,-4.5771,-4.5735,-4.5604,-4.5589,-4.5478,-4.5331,-4.5294,-4.5129,-4.4986,-4.4874,-4.4761,-4.4648,-4.461,-4.461,-4.461,-4.461,-4.461,-4.461,-4.461,-4.461,-4.461,-4.461,-4.461,-4.461,-4.461,-4.461,-4.461,-4.461,-4.461,-4.461,-4.461,-4.461,-4.461,-4.461,-4.461,-4.461,-4.461,-4.461,-4.461,-4.461,-4.461,-4.461,-4.461,-4.461,-4.461,-4.461,-4.461,-4.461,-4.461,-4.461,-5.4399,-5.4286,-5.36,-5.3315,-5.3264,-5.2491,-5.221,-5.2474,-5.3043,-5.3298,-5.3399,-5.3896,-5.4141,-5.4205,-5.4076,-5.4108,-5.4254,-5.4318,-5.4141,-5.4158,-5.4318,-5.4108,-5.4027,-5.4027,-5.4141,-5.4141,-5.3994,-5.4108,-5.4335,-5.4108,-5.3748,-5.3332,-5.2889,-5.2404,-5.2368,-5.2614,-5.2579,-5.27,-5.3043,-5.323,-5.3178,-5.2931,-5.2618,-5.1929,-5.1283,-5.0639,-4.9956,-4.9671,-4.9394,-4.8886,-4.8838,-4.8652,-4.8385,-4.8289,-4.8289,-4.8225,-4.7982,-4.7754,-4.7456,-4.6671,-4.5972,-4.5844,-4.5807,-4.5807,-4.5807,-4.5807,-4.5787,-4.575,-4.575,-4.5662,-4.5552,-4.5426,-4.5315,-4.5077,-4.4949,-4.4799,-4.4685,-4.461,-4.461,-4.461,-4.461,-4.461,-4.461,-4.461,-4.461,-4.461,-4.461,-4.461,-4.461,-4.461,-4.461,-4.461,-4.461,-4.461,-4.461,-4.461,-4.461,-4.461,-4.461,-4.461,-4.461,-4.461,-4.461,-4.461,-4.461,-4.461,-4.461,-4.461,-4.461,-4.461,-4.461,-4.461,-4.461,-4.461,-4.461,-5.4512,-5.448,-5.419,-5.4093,-5.4044,-5.3765,-5.3616,-5.3649,-5.3946,-5.4076,-5.4093,-5.4367,-5.4512,-5.4512,-5.4512,-5.4512,-5.4512,-5.4512,-5.4512,-5.4512,-5.4512,-5.4512,-5.4512,-5.4512,-5.448,-5.4512,-5.4512,-5.4512,-5.448,-5.4494,-5.4399,-5.3962,-5.3565,-5.3665,-5.3599,-5.3466,-5.3499,-5.3599,-5.378,-5.389,-5.332,-5.2829,-5.2304,-5.1545,-5.0804,-5.0355,-5.0016,-4.9982,-4.9801,-4.9649,-4.956,-4.9333,-4.9104,-4.9073,-4.9043,-4.9012,-4.8731,-4.8558,-4.8383,-4.7572,-4.6931,-4.6337,-4.61,-4.588,-4.5972,-4.5844,-4.5807,-4.5807,-4.5807,-4.5735,-4.5698,-4.5662,-4.5552,-4.5241,-4.5002,-4.4889,-4.4776,-4.4685,-4.4648,-4.4648,-4.461,-4.461,-4.461,-4.461,-4.461,-4.461,-4.461,-4.461,-4.461,-4.461,-4.461,-4.461,-4.461,-4.461,-4.461,-4.461,-4.461,-4.461,-4.461,-4.461,-4.461,-4.461,-4.461,-4.461,-4.461,-4.461,-4.461,-4.461,-4.461,-4.461,-4.461,-4.461,-4.461,-4.461,-4.461,-5.4512,-5.4512,-5.4512,-5.4512,-5.4512,-5.4512,-5.4512,-5.4512,-5.448,-5.4512,-5.4512,-5.4512,-5.4512,-5.4512,-5.4512,-5.4512,-5.4512,-5.4512,-5.4512,-5.4512,-5.4512,-5.4512,-5.4512,-5.4512,-5.4512,-5.4512,-5.4477,-5.446,-5.4115,-5.4374,-5.4256,-5.419,-5.4408,-5.4382,-5.4399,-5.4512,-5.4512,-5.4512,-5.446,-5.4322,-5.367,-5.3015,-5.2257,-5.1563,-5.0856,-5.0304,-5.0114,-5.0011,-4.9982,-4.9935,-4.9935,-4.9964,-4.9964,-4.9982,-5.0011,-4.983,-4.959,-4.9222,-4.9009,-4.8368,-4.7721,-4.7153,-4.6844,-4.6598,-4.6388,-4.6262,-4.6191,-4.612,-4.6008,-4.5844,-4.5844,-4.5771,-4.5625,-4.5368,-4.5278,-4.5167,-4.4964,-4.4814,-4.4761,-4.4723,-4.4648,-4.461,-4.461,-4.461,-4.461,-4.461,-4.461,-4.461,-4.461,-4.461,-4.461,-4.461,-4.461,-4.461,-4.461,-4.461,-4.461,-4.461,-4.461,-4.461,-4.461,-4.461,-4.461,-4.461,-4.461,-4.461,-4.461,-4.461,-4.461,-4.461,-4.461,-4.461,-4.461,-4.461,-4.461,-5.4512,-5.4512,-5.4512,-5.4512,-5.4512,-5.4512,-5.4512,-5.4512,-5.4512,-5.4512,-5.4512,-5.4512,-5.4512,-5.4512,-5.4512,-5.4512,-5.4512,-5.4512,-5.4512,-5.4512,-5.4512,-5.4512,-5.4512,-5.4512,-5.4512,-5.4512,-5.4477,-5.4201,-5.3649,-5.4236,-5.4132,-5.3994,-5.427,-5.4512,-5.4512,-5.4512,-5.4512,-5.4512,-5.4512,-5.4425,-5.408,-5.3425,-5.2632,-5.1856,-5.108,-5.0424,-5.0131,-5.0011,-5.0011,-5.0011,-5.0011,-5.0011,-5.0011,-5.0011,-5.0011,-4.9935,-4.9935,-4.9889,-4.983,-4.8654,-4.8112,-4.7885,-4.7556,-4.7505,-4.7522,-4.7254,-4.6793,-4.6775,-4.6423,-4.608,-4.5952,-4.588,-4.5792,-4.5646,-4.5609,-4.5368,-4.5129,-4.498,-4.4927,-4.4889,-4.4739,-4.4625,-4.461,-4.461,-4.4648,-4.4648,-4.461,-4.461,-4.461,-4.461,-4.461,-4.461,-4.461,-4.461,-4.461,-4.461,-4.461,-4.461,-4.461,-4.461,-4.461,-4.461,-4.461,-4.461,-4.461,-4.461,-4.461,-4.461,-4.461,-4.461,-4.461,-4.461,-4.461,-4.461,-4.461,-5.4512,-5.4512,-5.4512,-5.4512,-5.4512,-5.4512,-5.4512,-5.4512,-5.4512,-5.4512,-5.4512,-5.4512,-5.4512,-5.4512,-5.4512,-5.4512,-5.4512,-5.4512,-5.4512,-5.4512,-5.4512,-5.4512,-5.4512,-5.4512,-5.4512,-5.4512,-5.4477,-5.4425,-5.4201,-5.4425,-5.4408,-5.4305,-5.4322,-5.4477,-5.4512,-5.4512,-5.4512,-5.4512,-5.446,-5.427,-5.377,-5.3063,-5.2339,-5.158,-5.0856,-5.0355,-5.0045,-5.0011,-5.0011,-5.0011,-5.0011,-5.0011,-5.0011,-5.0011,-5.0011,-5.0011,-5.0011,-5.0011,-4.9982,-4.9411,-4.9104,-4.8668,-4.8272,-4.8096,-4.7852,-4.7721,-4.7556,-4.7489,-4.7203,-4.705,-4.7237,-4.6705,-4.6461,-4.6159,-4.5909,-4.5499,-4.522,-4.5167,-4.5092,-4.5092,-4.5033,-4.4942,-4.4927,-4.4852,-4.4852,-4.4814,-4.4761,-4.4663,-4.4663,-4.4625,-4.4625,-4.461,-4.461,-4.461,-4.461,-4.461,-4.461,-4.461,-4.461,-4.461,-4.461,-4.461,-4.461,-4.461,-4.461,-4.461,-4.461,-4.461,-4.461,-4.461,-4.461,-4.461,-4.461,-4.461,-4.461,-5.4512,-5.4512,-5.4512,-5.4512,-5.4512,-5.4512,-5.4512,-5.4512,-5.4512,-5.4512,-5.4512,-5.4512,-5.4512,-5.4512,-5.4512,-5.4512,-5.4512,-5.4512,-5.4512,-5.4512,-5.4512,-5.4512,-5.4512,-5.4512,-5.4512,-5.4512,-5.4477,-5.4408,-5.4029,-5.4374,-5.446,-5.446,-5.4512,-5.4512,-5.4512,-5.4512,-5.4512,-5.4512,-5.446,-5.4167,-5.3563,-5.2891,-5.2201,-5.1356,-5.0718,-5.0304,-5.0097,-5.0011,-5.0011,-5.0011,-5.0011,-5.0011,-5.0011,-5.0011,-5.0011,-5.0011,-5.0011,-5.0011,-4.9982,-4.9952,-4.959,-4.9333,-4.8841,-4.8637,-4.8543,-4.8431,-4.8288,-4.8192,-4.808,-4.795,-4.7852,-4.7288,-4.7153,-4.683,-4.6638,-4.623,-4.5853,-4.5817,-4.5541,-4.552,-4.5257,-4.5257,-4.522,-4.5167,-4.5092,-4.5055,-4.4964,-4.4852,-4.4739,-4.4701,-4.4701,-4.4648,-4.4685,-4.4685,-4.4648,-4.461,-4.461,-4.461,-4.461,-4.4648,-4.461,-4.461,-4.461,-4.461,-4.461,-4.461,-4.461,-4.461,-4.461,-4.461,-4.461,-4.461,-4.461,-4.461,-4.461,-5.4512,-5.4512,-5.4512,-5.4512,-5.4512,-5.4512,-5.4512,-5.4512,-5.4512,-5.4477,-5.4443,-5.4443,-5.4425,-5.4425,-5.446,-5.4512,-5.4512,-5.4512,-5.4512,-5.4512,-5.4512,-5.4512,-5.4512,-5.4512,-5.4512,-5.4512,-5.4477,-5.4287,-5.3667,-5.4184,-5.4512,-5.4512,-5.4512,-5.4512,-5.4512,-5.4512,-5.4512,-5.4512,-5.446,-5.408,-5.3477,-5.3132,-5.227,-5.1425,-5.0804,-5.0442,-5.0183,-5.0011,-5.0011,-5.0011,-5.0011,-5.0011,-5.0011,-5.0011,-5.0011,-5.0011,-5.0011,-5.0011,-5.0011,-5.0011,-4.9964,-4.9801,-4.9801,-4.9906,-4.9696,-4.9209,-4.9009,-4.8824,-4.8668,-4.8353,-4.8047,-4.8015,-4.7901,-4.777,-4.7704,-4.7322,-4.688,-4.6585,-4.6214,-4.5925,-4.5499,-4.5368,-4.5368,-4.5331,-4.5426,-4.5331,-4.5241,-4.5129,-4.5017,-4.4927,-4.4889,-4.4814,-4.4799,-4.4799,-4.4761,-4.4761,-4.4776,-4.4814,-4.4776,-4.4776,-4.4701,-4.4685,-4.4761,-4.4776,-4.4685,-4.4685,-4.4776,-4.4739,-4.4701,-4.4685,-4.4685,-4.461,-4.461,-4.461,-4.461,-5.4512,-5.4512,-5.4512,-5.4512,-5.4512,-5.4512,-5.4512,-5.4512,-5.4494,-5.427,-5.3753,-5.4287,-5.427,-5.3787,-5.4253,-5.446,-5.4512,-5.4512,-5.4512,-5.4512,-5.4512,-5.4512,-5.4512,-5.4512,-5.4512,-5.4512,-5.446,-5.4391,-5.427,-5.4512,-5.4512,-5.4512,-5.4512,-5.4512,-5.4512,-5.4512,-5.4512,-5.4512,-5.4512,-5.4063,-5.3408,-5.2925,-5.208,-5.1309,-5.0614,-5.0269,-5.008,-5.0011,-5.0011,-5.0011,-5.0011,-5.0011,-5.0011,-5.0011,-5.0011,-5.0011,-5.0011,-5.0011,-5.0011,-5.0011,-5.0011,-5.0011,-5.0011,-5.0011,-4.9906,-4.9784,-4.9573,-4.9394,-4.9303,-4.9073,-4.8903,-4.8793,-4.8683,-4.8589,-4.8431,-4.8047,-4.7638,-4.7439,-4.7085,-4.6566,-4.614,-4.5941,-4.5884,-4.5703,-4.5776,-4.5662,-4.5515,-4.5405,-4.5278,-4.5204,-4.5039,-4.498,-4.5017,-4.5039,-4.5039,-4.5017,-4.5017,-4.5017,-4.498,-4.4942,-4.498,-4.4964,-4.5017,-4.498,-4.4889,-4.4942,-4.5055,-4.498,-4.4905,-4.4852,-4.4836,-4.4723,-4.4648,-4.4648,-4.461,-5.4512,-5.4512,-5.4512,-5.4512,-5.4512,-5.4512,-5.4512,-5.4512,-5.4512,-5.4218,-5.3925,-5.4322,-5.4253,-5.4011,-5.4322,-5.4512,-5.4512,-5.4512,-5.4512,-5.4512,-5.4512,-5.4512,-5.4512,-5.4512,-5.4512,-5.4512,-5.4512,-5.4477,-5.4512,-5.4512,-5.4512,-5.4512,-5.4512,-5.4512,-5.4512,-5.4512,-5.4512,-5.4512,-5.4408,-5.4046,-5.3391,-5.2632,-5.1843,-5.1102,-5.039,-5.008,-5.0011,-5.0011,-5.0011,-5.0011,-5.0011,-5.0011,-5.0011,-5.0011,-5.0011,-5.0011,-5.0011,-5.0011,-5.0011,-5.0011,-5.0011,-5.0011,-5.0011,-5.0011,-5.0011,-4.9906,-4.9889,-4.983,-4.9906,-4.9906,-4.9772,-4.9666,-4.9483,-4.9346,-4.8978,-4.8668,-4.8463,-4.8319,-4.7868,-4.7322,-4.6999,-4.6809,-4.6582,-4.6353,-4.614,-4.6104,-4.592,-4.5625,-4.5515,-4.5405,-4.5241,-4.5129,-4.522,-4.5294,-4.5294,-4.5257,-4.522,-4.5182,-4.5129,-4.5129,-4.522,-4.5204,-4.5129,-4.5167,-4.5167,-4.522,-4.522,-4.5182,-4.5108,-4.5055,-4.5002,-4.4964,-4.4852,-4.4701,-4.4648,-5.4512,-5.4512,-5.4512,-5.4512,-5.4512,-5.4512,-5.446,-5.4425,-5.4356,-5.4339,-5.4201,-5.427,-5.4083,-5.3856,-5.4132,-5.4391,-5.446,-5.4512,-5.4512,-5.4494,-5.4512,-5.4512,-5.4512,-5.4512,-5.4512,-5.4512,-5.4512,-5.4512,-5.4512,-5.4512,-5.4512,-5.4512,-5.4512,-5.4512,-5.4512,-5.4512,-5.4512,-5.4494,-5.4287,-5.3942,-5.3356,-5.2632,-5.1843,-5.1132,-5.0476,-5.0011,-5.0011,-5.0011,-5.0011,-5.0011,-5.0011,-5.0011,-5.0011,-5.0011,-5.0011,-5.0011,-5.0011,-5.0011,-5.0011,-5.0011,-5.0011,-5.0011,-5.0011,-5.0011,-5.0011,-5.0011,-5.0011,-5.0011,-5.0011,-5.0011,-4.9877,-4.983,-4.9755,-4.9696,-4.95,-4.9256,-4.9118,-4.8855,-4.8415,-4.7933,-4.7622,-4.7439,-4.7304,-4.7067,-4.6931,-4.6759,-4.6601,-4.6262,-4.6084,-4.5977,-4.5682,-4.5484,-4.5442,-4.5515,-4.5442,-4.5405,-4.5331,-4.5294,-4.5352,-4.5331,-4.5442,-4.5368,-4.5241,-4.5315,-4.5405,-4.5331,-4.5331,-4.5331,-4.5331,-4.5257,-4.5204,-4.5167,-4.5055,-4.4852,-4.4776,-5.4512,-5.4512,-5.4512,-5.4512,-5.4512,-5.4512,-5.4167,-5.3684,-5.3667,-5.3339,-5.2825,-5.2774,-5.286,-5.3097,-5.3511,-5.3873,-5.4374,-5.4218,-5.446,-5.4356,-5.4322,-5.427,-5.446,-5.4374,-5.446,-5.4512,-5.4512,-5.4512,-5.4512,-5.4512,-5.4512,-5.4512,-5.4512,-5.4512,-5.4512,-5.4512,-5.4494,-5.4356,-5.3977,-5.3684,-5.3253,-5.2597,-5.1873,-5.1149,-5.0493,-5.0097,-5.0045,-5.0011,-5.0011,-5.0011,-5.0011,-5.0011,-5.0011,-5.0011,-5.0011,-5.0011,-5.0011,-5.0011,-5.0011,-5.0011,-5.0011,-5.0011,-5.0011,-5.0011,-5.0011,-5.0011,-5.0011,-5.0011,-5.0011,-5.0011,-5.0011,-5.0011,-5.0011,-5.0011,-4.9982,-4.983,-4.9696,-4.9316,-4.89,-4.8589,-4.824,-4.808,-4.8015,-4.7852,-4.7688,-4.7622,-4.7589,-4.7439,-4.7304,-4.7135,-4.6477,-4.6211,-4.5828,-4.5755,-4.5755,-4.5884,-4.5977,-4.5905,-4.5941,-4.5848,-4.5698,-4.5589,-4.5515,-4.5625,-4.5662,-4.5589,-4.5552,-4.5662,-4.5625,-4.5478,-4.5405,-4.5405,-4.5204,-4.4964,-4.4874,-5.4512,-5.4512,-5.4512,-5.4512,-5.4512,-5.4512,-5.408,-5.3425,-5.3028,-5.2442,-5.189,-5.2033,-5.239,-5.2528,-5.2891,-5.3304,-5.3839,-5.358,-5.3391,-5.3425,-5.3667,-5.3718,-5.3856,-5.4063,-5.4305,-5.4374,-5.4477,-5.4512,-5.4512,-5.4512,-5.4512,-5.4512,-5.4512,-5.4512,-5.4512,-5.4494,-5.4322,-5.3994,-5.358,-5.3235,-5.2977,-5.239,-5.1839,-5.1149,-5.0752,-5.0355,-5.0045,-5.0011,-5.0011,-5.0011,-5.0011,-5.0011,-5.0011,-5.0011,-5.0011,-5.0011,-5.0011,-5.0011,-5.0011,-5.0011,-5.0011,-5.0011,-5.0011,-5.0011,-5.0011,-5.0011,-5.0011,-5.0011,-5.0011,-5.0011,-5.0011,-5.0011,-5.0011,-5.0011,-5.0011,-4.9906,-4.9877,-4.9696,-4.9483,-4.9394,-4.9182,-4.9152,-4.8964,-4.8589,-4.8431,-4.824,-4.824,-4.8015,-4.7999,-4.8193,-4.7539,-4.7101,-4.6844,-4.6722,-4.6913,-4.6931,-4.6896,-4.6775,-4.6547,-4.6477,-4.6372,-4.5992,-4.5807,-4.5864,-4.5864,-4.5771,-4.5771,-4.6008,-4.5844,-4.5662,-4.5625,-4.5589,-4.5389,-4.5173,-4.5114,-5.4167,-5.4218,-5.4305,-5.427,-5.4253,-5.4322,-5.3839,-5.3028,-5.2343,-5.1666,-5.105,-5.1567,-5.2373,-5.2632,-5.2511,-5.2804,-5.2942,-5.2804,-5.2429,-5.236,-5.2377,-5.2774,-5.3184,-5.3425,-5.3908,-5.4305,-5.4494,-5.4512,-5.4512,-5.4512,-5.4512,-5.4512,-5.4512,-5.4512,-5.4494,-5.4339,-5.408,-5.3701,-5.327,-5.2753,-5.2425,-5.2101,-5.1649,-5.1287,-5.0976,-5.0631,-5.02,-5.0011,-5.0011,-5.0011,-5.0011,-5.0011,-5.0011,-5.0011,-5.0011,-5.0011,-5.0011,-5.0011,-5.0011,-5.0011,-5.0011,-5.0011,-5.0011,-5.0011,-5.0011,-5.0011,-5.0011,-5.0011,-5.0011,-5.0011,-5.0011,-5.0011,-5.0011,-5.0011,-5.0011,-5.0011,-4.9982,-4.9982,-4.9935,-4.9935,-4.9906,-4.9877,-4.9666,-4.9269,-4.9118,-4.8917,-4.87,-4.84,-4.8321,-4.8654,-4.856,-4.8353,-4.8225,-4.8161,-4.7917,-4.7754,-4.7589,-4.7505,-4.7271,-4.7187,-4.7051,-4.674,-4.6423,-4.6084,-4.6048,-4.6333,-4.6369,-4.6528,-4.6262,-4.6136,-4.6048,-4.6084,-4.5832,-4.5635,-4.5447,-5.2619,-5.267,-5.3339,-5.327,-5.2825,-5.3356,-5.2839,-5.1666,-5.1442,-5.0907,-5.0459,-5.0373,-5.0838,-5.1545,-5.1442,-5.1752,-5.2274,-5.205,-5.2136,-5.2205,-5.1877,-5.2166,-5.2615,-5.3132,-5.3804,-5.4201,-5.4443,-5.4512,-5.4512,-5.4512,-5.4512,-5.4512,-5.4512,-5.4477,-5.4408,-5.4167,-5.3753,-5.3391,-5.2528,-5.1787,-5.1977,-5.1683,-5.1338,-5.0942,-5.0528,-5.0252,-5.0028,-5.0011,-5.0011,-5.0011,-5.0011,-5.0011,-5.0011,-5.0011,-5.0011,-5.0011,-5.0011,-5.0011,-5.0011,-5.0011,-5.0011,-5.0011,-5.0011,-5.0011,-5.0011,-5.0011,-5.0011,-5.0011,-5.0011,-5.0011,-5.0011,-5.0011,-5.0011,-5.0011,-5.0011,-5.0011,-4.9982,-4.9982,-4.9964,-4.9964,-4.9964,-4.9935,-4.9906,-4.9713,-4.9764,-4.9628,-4.9564,-4.9324,-4.9382,-4.9483,-4.9441,-4.9381,-4.9303,-4.8748,-4.8161,-4.8193,-4.8096,-4.8032,-4.7917,-4.7737,-4.7605,-4.7556,-4.7221,-4.6793,-4.6999,-4.7372,-4.7388,-4.7084,-4.722,-4.7118,-4.6759,-4.6585,-4.6321,-4.5961,-4.5646]},{"header":{"parameterUnit":"m.s-1","parameterCategory":1,"la1":31.0,"la2":29.5877,"lo1":-88.7671,"lo2":-86.6584,"dy":0.0162,"dx":0.0185,"nx":115,"ny":88,"refTime":"2023-06-27T18:00:00:Z","depth":0,"parameterNumber":3,"parameterNumberName":"V-component_of_WINDS"},"data":[0.0,0.0,0.0,0.0,0.0,0.0,0.0,0.0,0.0,0.0,0.0,0.0,0.0,0.0,0.0,0.0,0.0,0.0,0.0,0.0,0.0,0.0,0.0,0.0,0.0,0.0,0.0,0.0,0.0,0.0,0.0,0.0,0.0,0.0,0.0,0.0,0.0,0.0,0.0,0.0,0.0,0.0,0.0,0.0,0.0,0.0,0.0,0.0,0.0,0.0,0.0,0.0,0.0,0.0,0.0,0.0,0.0,0.0,0.0,0.0,0.0,0.0,0.0,0.0,0.0,0.0,0.0,0.0,0.0,0.0,0.0,0.0,0.0,0.0,0.0,0.0,0.0,0.0,0.0,0.0,0.0,0.0,0.0,0.0,0.0,0.0,0.0,0.0,0.0,0.0,0.0,0.0,0.0,0.0,0.0,0.0,0.0,0.0,0.0,0.0,0.0,0.0,0.0,0.0,0.0,0.0,0.0,0.0,0.0,0.0,0.0,0.0,0.0,0.0,0.0,0.0,0.0,0.0,0.0,0.0,0.0,0.0,0.0,0.0,0.0,0.0,0.0,0.0,0.0,0.0,0.0,0.0,0.0,0.0,0.0,0.0,0.0,0.0,0.0,0.0,0.0,0.0,0.0,0.0,0.0,0.0,0.0,0.0,0.0,0.0,0.0,0.0,0.0,0.0,0.0,0.0,0.0,0.0,0.0,0.0,0.0,0.0,0.0,0.0,0.0,0.0,0.0,0.0,0.0,0.0,0.0,0.0,0.0,0.0,0.0,0.0,0.0,0.0,0.0,0.0,0.0,0.0,0.0,0.0,0.0,0.0,0.0,0.0,0.0,0.0,0.0,0.0,0.0,0.0,0.0,0.0,0.0,0.0,0.0,0.0,0.0,0.0,0.0,0.0,0.0,0.0,0.0,0.0,0.0,0.0,0.0,0.0,0.0,0.0,0.0,0.0,0.0,0.0,0.0,0.0,0.0,0.0,0.0,0.0,0.0,0.0,0.0,0.0,0.0,0.0,0.0,0.0,0.0,0.0,0.0,0.0,0.0,0.0,0.0,0.0,0.0,0.0,0.0,0.0,0.0,0.0,0.0,0.0,0.0,0.0,0.0,0.0,0.0,0.0,0.0,0.0,0.0,0.0,0.0,0.0,0.0,0.0,0.0,0.0,0.0,0.0,0.0,0.0,0.0,0.0,0.0,0.0,0.0,0.0,0.0,0.0,0.0,0.0,0.0,0.0,0.0,0.0,0.0,0.0,0.0,0.0,0.0,0.0,0.0,0.0,0.0,0.0,0.0,0.0,0.0,0.0,0.0,0.0,0.0,0.0,0.0,0.0,0.0,0.0,0.0,0.0,0.0,0.0,0.0,0.0,0.0,0.0,0.0,0.0,0.0,0.0,0.0,0.0,0.0,0.0,0.0,0.0,0.0,0.0,0.0,0.0,0.0,0.0,0.0,0.0,0.0,0.0,0.0,0.0,0.0,0.0,0.0,0.0,0.0,0.0,0.0,0.0,0.0,0.0,0.0,0.0,0.0,0.0,0.0,0.0,0.0,0.0,0.0,0.0,0.0,0.0,0.0,0.0,0.0,0.0,0.0,0.0,0.0,0.0,0.0,0.0,0.0,0.0,0.0,0.0,0.0,0.0,0.0,0.0,0.0,0.0,0.0,0.0,0.0,0.0,0.0,0.0,0.0,0.0,0.0,0.0,0.0,0.0,0.0,0.0,0.0,0.0,0.0,0.0,0.0,0.0,0.0,0.0,0.0,0.0,0.0,0.0,0.0,0.0,0.0,0.0,0.0,0.0,0.0,0.0,0.0,0.0,0.0,0.0,0.0,0.0,0.0,0.0,0.0,0.0,0.0,0.0,0.0,0.0,0.0,0.0,0.0,0.0,0.0,0.0,0.0,0.0,0.0,0.0,0.0,0.0,0.0,0.0,0.0,0.0,0.0,0.0,0.0,0.0,0.0,0.0,0.0,0.0,0.0,0.0,0.0,0.0,0.0,0.0,0.0,0.0,0.0,0.0,0.0,0.0,0.0,0.0,0.0,0.0,0.0,0.0,0.0,0.0,0.0,0.0,0.0,0.0,0.0,0.0,0.0,0.0,0.0,0.0,0.0,0.0,0.0,0.0,0.0,0.0,0.0,0.0,0.0,0.0,0.0,0.0,0.0,0.0,0.0,0.0,0.0,0.0,0.0,0.0,0.0,0.0,0.0,0.0,0.0,0.0,0.0,0.0,0.0,0.0,0.0,0.0,0.0,0.0,0.0,0.0,0.0,0.0,0.0,0.0,0.0,0.0,0.0,0.0,0.0,0.0,0.0,0.0,0.0,0.0,0.0,0.0,0.0,0.0,0.0,0.0,0.0,0.0,0.0,0.0,0.0,0.0,0.0,0.0,0.0,0.0,0.0,0.0,0.0,0.0,0.0,0.0,0.0,0.0,0.0,0.0,0.0,0.0,0.0,0.0,0.0,0.0,0.0,0.0,0.0,0.0,0.0,0.0,0.0,0.0,0.0,0.0,0.0,0.0,0.0,0.0,0.0,0.0,0.0,0.0,0.0,0.0,0.0,0.0,0.0,0.0,0.0,0.0,0.0,0.0,0.0,0.0,0.0,0.0,0.0,0.0,0.0,0.0,0.0,0.0,0.0,0.0,0.0,0.0,0.0,0.0,0.0,0.0,0.0,0.0,0.0,0.0,0.0,0.0,0.0,0.0,0.0,0.0,0.0,0.0,0.0,0.0,0.0,0.0,0.0,0.0,0.0,0.0,0.0,0.0,0.0,0.0,0.0,0.0,0.0,0.0,0.0,0.0,0.0,0.0,0.0,0.0,0.0,0.0,0.0,0.0,0.0,0.0,0.0,0.0,0.0,0.0,0.0,0.0,0.0,0.0,0.0,0.0,0.0,0.0,0.0,0.0,0.0,0.0,0.0,0.0,0.0,0.0,0.0,0.0,0.0,0.0,0.0,0.0,0.0,0.0,0.0,0.0,0.0,0.0,0.0,0.0,0.0,0.0,0.0,0.0,0.0,0.0,0.0,0.0,0.0,0.0,0.0,0.0,0.0,0.0,0.0,0.0,0.0,0.0,0.0,0.0,0.0,0.0,0.0,0.0,0.0,0.0,0.0,0.0,0.0,0.0,0.0,0.0,0.0,0.0,0.0,0.0,0.0,0.0,0.0,0.0,0.0,0.0,0.0,0.0,0.0,0.0,0.0,0.0,0.0,0.0,0.0,0.0,0.0,0.0,0.0,0.0,0.0,0.0,0.0,0.0,0.0,0.0,0.0,0.0,0.0,0.0,0.0,0.0,0.0,0.0,0.0,0.0,0.0,0.0,0.0,0.0,0.0,0.0,0.0,0.0,0.0,0.0,0.0,0.0,0.0,0.0,0.0,0.0,0.0,0.0,0.0,0.0,0.0,0.0,0.0,0.0,0.0,0.0,0.0,0.0,0.0,0.0,0.0,0.0,0.0,0.0,0.0,0.0,0.0,0.0,0.0,0.0,0.0,0.0,0.0,0.0,0.0,0.0,0.0,0.0,0.0,0.0,0.0,0.0,0.0,0.0,0.0,0.0,0.0,0.0,0.0,0.0,0.0,0.0,0.0,0.0,0.0,0.0,0.0,0.0,0.0,0.0,0.0,0.0,0.0,0.0,0.0,0.0,0.0,0.0,0.0,0.0,0.0,0.0,0.0,0.0,0.0,0.0,0.0,0.0,0.0,0.0,0.0,0.0,0.0,0.0,0.0,0.0,0.0,0.0,0.0,0.0,0.0,0.0,0.0,0.0,0.0,0.0,0.0,0.0,0.0,0.0,0.0,0.0,0.0,0.0,0.0,0.0,0.0,0.0,0.0,0.0,0.0,0.0,0.0,0.0,0.0,0.0,0.0,0.0,0.0,0.0,0.0,0.0,0.0,0.0,0.0,0.0,0.0,0.0,0.0,0.0,0.0,0.0,0.0,0.0,0.0,0.0,0.0,0.0,0.0,0.0,0.0,0.0,0.0,0.0,0.0,0.0,0.0,0.0,0.0,0.0,0.0,0.0,0.0,0.0,0.0,0.0,0.0,0.0,0.0,0.0,0.0,0.0,0.0,0.0,0.0,0.0,0.0,0.0,0.0,0.0,0.0,0.0,0.0,0.0,0.0,0.0,0.0,0.0,0.0,0.0,0.0,0.0,0.0,0.0,0.0,0.0,0.0,0.0,0.0,0.0,0.0,0.0,0.0,0.0,0.0,0.0,0.0,0.0,0.0,0.0,0.0,0.0,0.0,0.0,-2.1667,0.0,0.0,0.0,0.0,0.0,0.0,0.0,0.0,0.0,0.0,0.0,0.0,0.0,0.0,0.0,0.0,0.0,0.0,0.0,0.0,0.0,0.0,0.0,0.0,0.0,0.0,0.0,0.0,0.0,0.0,0.0,0.0,0.0,0.0,0.0,0.0,0.0,0.0,0.0,0.0,0.0,0.0,0.0,0.0,0.0,0.0,0.0,0.0,0.0,0.0,0.0,0.0,0.0,0.0,0.0,0.0,0.0,0.0,0.0,0.0,0.0,0.0,0.0,0.0,0.0,0.0,0.0,0.0,0.0,0.0,0.0,0.0,0.0,0.0,0.0,0.0,0.0,0.0,0.0,0.0,0.0,0.0,0.0,0.0,0.0,0.0,0.0,0.0,0.0,0.0,0.0,0.0,0.0,0.0,0.0,0.0,0.0,0.0,0.0,0.0,0.0,0.0,0.0,0.0,0.0,0.0,0.0,0.0,0.0,0.0,-2.1874,-2.1812,-2.173,-2.173,-2.1812,0.0,0.0,0.0,0.0,0.0,0.0,0.0,0.0,0.0,0.0,0.0,0.0,0.0,0.0,0.0,0.0,0.0,0.0,0.0,0.0,0.0,0.0,0.0,0.0,0.0,0.0,0.0,0.0,0.0,0.0,0.0,0.0,0.0,0.0,0.0,0.0,0.0,0.0,0.0,0.0,0.0,0.0,0.0,0.0,0.0,0.0,0.0,0.0,0.0,0.0,0.0,0.0,0.0,0.0,0.0,0.0,0.0,0.0,0.0,0.0,0.0,0.0,0.0,0.0,0.0,0.0,0.0,0.0,0.0,0.0,0.0,0.0,0.0,0.0,0.0,0.0,0.0,0.0,0.0,0.0,0.0,0.0,0.0,0.0,0.0,0.0,0.0,0.0,0.0,0.0,0.0,0.0,0.0,0.0,0.0,0.0,0.0,0.0,0.0,0.0,0.0,0.0,0.0,0.0,0.0,0.0,0.0,0.0,0.0,0.0,0.0,0.0,-2.1855,-2.1843,-2.1968,0.0,0.0,0.0,0.0,0.0,0.0,0.0,0.0,0.0,0.0,0.0,0.0,0.0,0.0,0.0,0.0,0.0,0.0,0.0,0.0,0.0,0.0,0.0,0.0,0.0,0.0,0.0,0.0,0.0,0.0,0.0,0.0,0.0,0.0,0.0,0.0,0.0,0.0,0.0,0.0,0.0,0.0,0.0,0.0,0.0,0.0,0.0,0.0,0.0,0.0,0.0,0.0,0.0,0.0,0.0,0.0,0.0,0.0,0.0,0.0,0.0,0.0,0.0,0.0,0.0,0.0,0.0,0.0,0.0,0.0,0.0,0.0,0.0,0.0,0.0,0.0,0.0,0.0,0.0,0.0,0.0,0.0,0.0,0.0,0.0,0.0,0.0,0.0,0.0,0.0,0.0,0.0,0.0,0.0,0.0,0.0,0.0,0.0,0.0,0.0,0.0,0.0,0.0,0.0,0.0,0.0,0.0,0.0,0.0,0.0,-2.2166,-2.2154,-2.2154,0.0,-2.2166,0.0,0.0,0.0,0.0,0.0,0.0,0.0,0.0,0.0,0.0,0.0,0.0,0.0,0.0,0.0,0.0,0.0,0.0,0.0,0.0,0.0,0.0,0.0,0.0,0.0,0.0,0.0,0.0,0.0,0.0,0.0,0.0,0.0,0.0,0.0,0.0,0.0,0.0,0.0,0.0,0.0,0.0,0.0,0.0,0.0,0.0,0.0,0.0,0.0,0.0,0.0,0.0,0.0,0.0,0.0,0.0,0.0,0.0,0.0,0.0,0.0,0.0,0.0,0.0,0.0,0.0,0.0,0.0,0.0,0.0,0.0,0.0,0.0,0.0,0.0,0.0,0.0,0.0,0.0,0.0,0.0,0.0,0.0,0.0,0.0,0.0,0.0,0.0,0.0,0.0,0.0,0.0,0.0,0.0,0.0,0.0,0.0,0.0,0.0,0.0,0.0,0.0,0.0,0.0,0.0,0.0,0.0,0.0,0.0,0.0,-2.1716,-2.1728,-2.1728,-2.1728,0.0,0.0,0.0,0.0,0.0,0.0,0.0,0.0,0.0,0.0,0.0,0.0,0.0,0.0,0.0,0.0,0.0,0.0,0.0,0.0,0.0,0.0,0.0,0.0,0.0,0.0,0.0,0.0,0.0,0.0,0.0,0.0,0.0,0.0,0.0,0.0,0.0,0.0,0.0,0.0,0.0,0.0,0.0,0.0,0.0,0.0,0.0,0.0,0.0,0.0,0.0,0.0,0.0,0.0,0.0,0.0,0.0,0.0,0.0,0.0,0.0,0.0,0.0,0.0,0.0,0.0,0.0,0.0,0.0,0.0,0.0,0.0,0.0,0.0,0.0,0.0,0.0,0.0,0.0,0.0,0.0,0.0,0.0,0.0,0.0,0.0,0.0,0.0,0.0,0.0,0.0,0.0,0.0,0.0,0.0,0.0,0.0,0.0,0.0,0.0,0.0,0.0,0.0,0.0,0.0,0.0,0.0,0.0,0.0,0.0,-2.1596,-2.1332,-2.1187,-2.1187,-2.126,-2.1392,0.0,0.0,0.0,0.0,0.0,0.0,0.0,0.0,0.0,0.0,0.0,0.0,0.0,0.0,0.0,0.0,0.0,0.0,0.0,0.0,0.0,0.0,0.0,0.0,0.0,0.0,0.0,0.0,0.0,0.0,0.0,0.0,0.0,0.0,0.0,0.0,0.0,0.0,0.0,0.0,0.0,0.0,0.0,0.0,0.0,0.0,0.0,0.0,0.0,0.0,0.0,0.0,0.0,0.0,0.0,0.0,0.0,0.0,0.0,0.0,0.0,0.0,0.0,0.0,0.0,0.0,0.0,0.0,0.0,0.0,0.0,0.0,0.0,0.0,0.0,0.0,0.0,0.0,0.0,0.0,0.0,0.0,0.0,0.0,0.0,0.0,0.0,0.0,0.0,0.0,0.0,0.0,0.0,0.0,0.0,0.0,0.0,0.0,0.0,0.0,0.0,0.0,0.0,0.0,0.0,0.0,0.0,0.0,-2.1464,-2.1404,-2.1151,-2.0629,-2.0617,-2.0875,0.0,0.0,0.0,0.0,0.0,0.0,0.0,0.0,0.0,0.0,0.0,0.0,0.0,0.0,0.0,0.0,0.0,0.0,0.0,0.0,0.0,0.0,0.0,0.0,0.0,0.0,0.0,0.0,0.0,0.0,0.0,0.0,0.0,0.0,0.0,0.0,0.0,0.0,0.0,0.0,0.0,0.0,0.0,0.0,0.0,0.0,0.0,0.0,0.0,0.0,0.0,0.0,0.0,0.0,0.0,0.0,0.0,0.0,0.0,0.0,0.0,0.0,0.0,0.0,0.0,0.0,0.0,0.0,0.0,0.0,0.0,0.0,0.0,0.0,0.0,0.0,0.0,0.0,0.0,0.0,0.0,0.0,0.0,0.0,0.0,0.0,0.0,0.0,0.0,0.0,0.0,0.0,0.0,0.0,0.0,0.0,0.0,0.0,0.0,0.0,0.0,0.0,0.0,0.0,0.0,0.0,0.0,0.0,0.0,-2.1416,-2.0759,-2.0105,-1.9612,-1.9901,-2.0334,0.0,0.0,0.0,0.0,0.0,0.0,0.0,0.0,0.0,0.0,0.0,0.0,0.0,0.0,0.0,0.0,0.0,0.0,0.0,0.0,0.0,0.0,0.0,0.0,0.0,0.0,0.0,0.0,0.0,0.0,0.0,0.0,0.0,0.0,0.0,0.0,0.0,0.0,0.0,0.0,0.0,0.0,0.0,0.0,0.0,0.0,0.0,0.0,0.0,0.0,0.0,0.0,0.0,0.0,0.0,0.0,0.0,0.0,0.0,0.0,0.0,0.0,0.0,0.0,0.0,0.0,0.0,0.0,0.0,0.0,0.0,0.0,0.0,0.0,0.0,0.0,0.0,0.0,0.0,0.0,0.0,0.0,0.0,0.0,0.0,0.0,0.0,0.0,0.0,0.0,0.0,0.0,0.0,0.0,0.0,0.0,0.0,0.0,0.0,0.0,0.0,0.0,0.0,0.0,0.0,0.0,0.0,0.0,0.0,-2.1163,0.0,-1.9375,-1.9023,-1.9336,-1.978,0.0,0.0,0.0,0.0,0.0,0.0,0.0,0.0,0.0,0.0,0.0,0.0,0.0,0.0,0.0,0.0,0.0,0.0,0.0,0.0,0.0,0.0,0.0,0.0,0.0,0.0,0.0,0.0,0.0,0.0,0.0,0.0,0.0,0.0,0.0,0.0,0.0,0.0,0.0,0.0,0.0,0.0,0.0,0.0,0.0,0.0,0.0,0.0,0.0,0.0,0.0,0.0,0.0,0.0,0.0,0.0,0.0,0.0,0.0,0.0,0.0,0.0,0.0,0.0,0.0,0.0,0.0,0.0,0.0,0.0,0.0,0.0,0.0,0.0,0.0,0.0,0.0,0.0,0.0,0.0,0.0,0.0,0.0,0.0,0.0,0.0,0.0,0.0,0.0,0.0,0.0,0.0,0.0,0.0,0.0,0.0,0.0,0.0,0.0,0.0,0.0,0.0,0.0,0.0,0.0,0.0,0.0,0.0,-2.2221,-2.0687,-1.9627,-1.9095,-1.9037,-1.9047,-1.9275,0.0,0.0,0.0,0.0,0.0,0.0,0.0,0.0,0.0,0.0,0.0,0.0,0.0,0.0,0.0,0.0,0.0,0.0,0.0,0.0,0.0,0.0,0.0,0.0,0.0,0.0,0.0,0.0,0.0,0.0,0.0,0.0,0.0,0.0,0.0,0.0,0.0,0.0,0.0,0.0,0.0,0.0,0.0,0.0,0.0,0.0,0.0,0.0,0.0,0.0,0.0,0.0,0.0,0.0,0.0,0.0,0.0,0.0,0.0,0.0,0.0,0.0,0.0,0.0,0.0,0.0,0.0,0.0,0.0,0.0,0.0,0.0,0.0,0.0,0.0,0.0,0.0,0.0,0.0,0.0,0.0,0.0,0.0,0.0,0.0,0.0,0.0,0.0,0.0,0.0,0.0,0.0,0.0,0.0,0.0,0.0,0.0,0.0,0.0,0.0,0.0,0.0,0.0,0.0,0.0,0.0,0.0,0.0,0.0,-2.1704,-2.0675,-2.0109,-2.0097,-1.9748,-1.9793,0.0,0.0,0.0,0.0,0.0,0.0,0.0,0.0,0.0,0.0,0.0,0.0,0.0,0.0,0.0,0.0,0.0,0.0,0.0,0.0,0.0,0.0,0.0,0.0,0.0,0.0,0.0,0.0,0.0,0.0,0.0,0.0,0.0,0.0,0.0,0.0,0.0,0.0,0.0,0.0,0.0,0.0,0.0,0.0,0.0,0.0,0.0,0.0,0.0,0.0,0.0,0.0,0.0,0.0,0.0,0.0,0.0,0.0,0.0,0.0,0.0,0.0,0.0,0.0,0.0,0.0,0.0,0.0,0.0,0.0,0.0,0.0,0.0,0.0,0.0,0.0,0.0,0.0,0.0,0.0,0.0,0.0,0.0,0.0,0.0,0.0,0.0,0.0,0.0,0.0,0.0,0.0,0.0,0.0,0.0,0.0,0.0,0.0,0.0,0.0,0.0,0.0,0.0,0.0,0.0,0.0,0.0,0.0,0.0,-2.3039,-2.1855,-2.1205,-2.1217,-2.088,-2.055,-2.0322,0.0,0.0,0.0,0.0,0.0,0.0,0.0,0.0,0.0,0.0,0.0,0.0,0.0,0.0,0.0,0.0,0.0,0.0,0.0,0.0,0.0,0.0,0.0,0.0,0.0,0.0,0.0,0.0,0.0,0.0,0.0,0.0,0.0,0.0,0.0,0.0,0.0,0.0,0.0,0.0,0.0,0.0,0.0,0.0,0.0,0.0,0.0,0.0,0.0,0.0,0.0,0.0,0.0,0.0,0.0,0.0,0.0,0.0,0.0,0.0,0.0,0.0,0.0,0.0,0.0,0.0,0.0,0.0,0.0,0.0,0.0,0.0,0.0,0.0,0.0,0.0,0.0,0.0,0.0,0.0,0.0,0.0,0.0,0.0,0.0,0.0,0.0,0.0,0.0,0.0,0.0,0.0,0.0,0.0,0.0,0.0,0.0,0.0,0.0,0.0,0.0,0.0,0.0,0.0,0.0,0.0,0.0,0.0,-2.4532,-2.3183,-2.2481,-2.239,-2.2282,-2.1542,0.0,0.0,0.0,0.0,0.0,0.0,0.0,0.0,0.0,0.0,0.0,0.0,0.0,0.0,0.0,0.0,0.0,0.0,0.0,0.0,0.0,0.0,0.0,0.0,0.0,0.0,0.0,0.0,0.0,0.0,0.0,0.0,0.0,0.0,0.0,0.0,0.0,0.0,0.0,0.0,0.0,0.0,0.0,0.0,0.0,0.0,0.0,0.0,0.0,0.0,0.0,0.0,0.0,0.0,0.0,0.0,0.0,0.0,0.0,0.0,0.0,0.0,0.0,0.0,0.0,0.0,0.0,0.0,0.0,0.0,0.0,0.0,0.0,0.0,0.0,0.0,0.0,0.0,0.0,0.0,0.0,0.0,0.0,0.0,0.0,0.0,0.0,0.0,0.0,0.0,0.0,0.0,0.0,0.0,0.0,0.0,0.0,0.0,0.0,0.0,0.0,0.0,0.0,0.0,0.0,0.0,0.0,0.0,0.0,-2.5095,-2.5445,-2.5276,-2.4506,-2.3376,-2.2614,0.0,0.0,0.0,0.0,0.0,0.0,0.0,0.0,0.0,0.0,0.0,0.0,0.0,0.0,0.0,0.0,0.0,0.0,0.0,0.0,0.0,0.0,0.0,0.0,0.0,0.0,0.0,0.0,0.0,0.0,0.0,0.0,0.0,0.0,0.0,0.0,0.0,0.0,0.0,0.0,0.0,0.0,0.0,0.0,0.0,0.0,0.0,0.0,0.0,0.0,0.0,0.0,0.0,0.0,0.0,0.0,0.0,0.0,0.0,0.0,0.0,0.0,0.0,0.0,0.0,0.0,0.0,0.0,0.0,0.0,0.0,0.0,0.0,0.0,0.0,0.0,0.0,0.0,0.0,0.0,0.0,0.0,0.0,0.0,0.0,0.0,0.0,0.0,0.0,0.0,0.0,0.0,0.0,0.0,0.0,0.0,0.0,0.0,0.0,0.0,0.0,0.0,0.0,0.0,0.0,0.0,0.0,0.0,-2.5119,-2.5636,-2.6911,-2.7258,-2.6671,-2.5119,-2.3902,0.0,0.0,0.0,0.0,0.0,0.0,0.0,0.0,0.0,0.0,0.0,0.0,0.0,0.0,0.0,0.0,0.0,0.0,0.0,0.0,0.0,0.0,0.0,0.0,0.0,0.0,0.0,0.0,0.0,0.0,0.0,0.0,0.0,0.0,0.0,0.0,0.0,0.0,0.0,0.0,0.0,0.0,0.0,0.0,0.0,0.0,0.0,0.0,0.0,0.0,0.0,0.0,0.0,0.0,0.0,0.0,0.0,0.0,0.0,0.0,0.0,0.0,0.0,0.0,0.0,0.0,0.0,0.0,0.0,0.0,0.0,0.0,0.0,0.0,0.0,0.0,0.0,0.0,0.0,0.0,0.0,0.0,0.0,0.0,0.0,0.0,0.0,0.0,0.0,0.0,0.0,0.0,0.0,0.0,0.0,0.0,0.0,0.0,0.0,0.0,0.0,0.0,0.0,0.0,0.0,0.0,0.0,0.0,-2.56,-2.6178,-2.7705,-2.851,-2.8462,-2.6947,-2.5204,0.0,0.0,0.0,0.0,0.0,0.0,0.0,0.0,0.0,0.0,0.0,0.0,0.0,0.0,0.0,0.0,0.0,0.0,0.0,0.0,0.0,0.0,0.0,0.0,0.0,0.0,0.0,0.0,0.0,0.0,0.0,0.0,0.0,0.0,0.0,0.0,0.0,0.0,0.0,0.0,0.0,0.0,0.0,0.0,0.0,0.0,0.0,0.0,0.0,0.0,0.0,0.0,0.0,0.0,0.0,0.0,0.0,0.0,0.0,0.0,0.0,0.0,0.0,0.0,0.0,0.0,0.0,0.0,0.0,0.0,0.0,0.0,0.0,0.0,0.0,0.0,0.0,0.0,0.0,0.0,0.0,0.0,0.0,0.0,0.0,0.0,0.0,0.0,0.0,0.0,0.0,0.0,0.0,0.0,0.0,0.0,0.0,0.0,0.0,0.0,0.0,0.0,0.0,0.0,0.0,0.0,0.0,0.0,-2.5793,-2.6705,-2.7897,-2.851,-2.851,-2.6947,-2.5697,0.0,0.0,0.0,0.0,0.0,0.0,0.0,0.0,0.0,0.0,0.0,0.0,0.0,0.0,0.0,0.0,0.0,0.0,0.0,0.0,0.0,0.0,0.0,0.0,0.0,0.0,0.0,0.0,0.0,0.0,0.0,0.0,0.0,0.0,0.0,0.0,0.0,0.0,0.0,0.0,0.0,0.0,0.0,0.0,0.0,0.0,0.0,0.0,-2.2956,0.0,0.0,0.0,0.0,0.0,0.0,0.0,0.0,0.0,0.0,0.0,0.0,0.0,0.0,0.0,0.0,0.0,0.0,0.0,0.0,0.0,0.0,0.0,0.0,0.0,0.0,0.0,0.0,0.0,0.0,0.0,0.0,0.0,0.0,0.0,0.0,0.0,0.0,0.0,0.0,0.0,0.0,0.0,0.0,0.0,0.0,0.0,0.0,0.0,0.0,0.0,0.0,0.0,0.0,0.0,0.0,0.0,0.0,0.0,-2.5949,-2.7234,-2.8089,-2.851,-2.8474,-2.744,-2.637,0.0,0.0,0.0,0.0,0.0,0.0,0.0,0.0,0.0,0.0,0.0,0.0,0.0,0.0,0.0,0.0,0.0,0.0,0.0,0.0,0.0,0.0,0.0,0.0,0.0,0.0,0.0,0.0,0.0,0.0,0.0,0.0,0.0,0.0,0.0,0.0,0.0,0.0,0.0,0.0,0.0,0.0,0.0,0.0,0.0,0.0,0.0,0.0,0.0,0.0,0.0,0.0,0.0,0.0,0.0,0.0,0.0,0.0,0.0,0.0,0.0,0.0,0.0,0.0,0.0,0.0,0.0,0.0,0.0,0.0,0.0,0.0,0.0,0.0,0.0,0.0,0.0,0.0,0.0,0.0,0.0,0.0,0.0,0.0,0.0,0.0,0.0,0.0,0.0,0.0,0.0,0.0,0.0,0.0,0.0,0.0,0.0,0.0,0.0,0.0,0.0,0.0,0.0,0.0,0.0,0.0,0.0,-2.5155,-2.6214,-2.7738,-2.8242,-2.851,-2.851,-2.8005,-2.6959,-2.5384,0.0,0.0,0.0,0.0,0.0,0.0,0.0,0.0,0.0,0.0,0.0,0.0,0.0,0.0,0.0,0.0,0.0,0.0,0.0,0.0,0.0,0.0,0.0,0.0,0.0,0.0,0.0,0.0,0.0,0.0,0.0,0.0,0.0,0.0,0.0,0.0,0.0,0.0,-2.3878,-2.4157,0.0,0.0,0.0,0.0,0.0,0.0,0.0,0.0,-2.4902,0.0,0.0,0.0,0.0,0.0,0.0,0.0,0.0,0.0,0.0,0.0,0.0,0.0,0.0,0.0,0.0,0.0,0.0,0.0,0.0,0.0,0.0,0.0,0.0,0.0,0.0,0.0,0.0,0.0,0.0,0.0,0.0,0.0,0.0,0.0,0.0,0.0,0.0,0.0,0.0,0.0,0.0,0.0,0.0,0.0,0.0,0.0,0.0,0.0,0.0,0.0,0.0,0.0,0.0,0.0,0.0,-2.512,-2.5697,-2.6755,-2.833,-2.8462,-2.851,-2.8498,-2.8005,-2.6959,-2.5396,0.0,0.0,0.0,0.0,0.0,0.0,0.0,0.0,0.0,0.0,0.0,0.0,0.0,0.0,0.0,0.0,0.0,0.0,0.0,0.0,0.0,0.0,0.0,0.0,0.0,0.0,0.0,0.0,0.0,0.0,0.0,0.0,0.0,0.0,0.0,0.0,0.0,0.0,0.0,-2.4472,-2.5046,0.0,0.0,0.0,0.0,0.0,0.0,0.0,0.0,-2.5963,0.0,0.0,0.0,0.0,0.0,0.0,0.0,0.0,0.0,0.0,0.0,0.0,0.0,0.0,0.0,0.0,0.0,0.0,0.0,0.0,0.0,0.0,0.0,0.0,0.0,0.0,0.0,0.0,0.0,0.0,0.0,0.0,0.0,0.0,0.0,0.0,0.0,0.0,0.0,0.0,0.0,0.0,0.0,0.0,0.0,0.0,0.0,0.0,0.0,0.0,0.0,0.0,0.0,0.0,0.0,-2.5228,-2.6117,-2.7176,-2.845,-2.851,-2.851,-2.8498,-2.7729,-2.6645,0.0,0.0,0.0,0.0,0.0,0.0,0.0,0.0,0.0,0.0,0.0,0.0,0.0,0.0,0.0,0.0,0.0,0.0,0.0,0.0,0.0,0.0,0.0,0.0,0.0,0.0,0.0,0.0,0.0,0.0,0.0,0.0,0.0,0.0,0.0,0.0,0.0,0.0,0.0,0.0,-2.5749,-2.68,-2.6949,0.0,0.0,0.0,0.0,0.0,0.0,-2.7588,-2.7426,0.0,0.0,0.0,0.0,0.0,0.0,0.0,0.0,0.0,0.0,0.0,0.0,0.0,0.0,0.0,0.0,0.0,0.0,0.0,0.0,0.0,0.0,0.0,0.0,0.0,0.0,0.0,0.0,0.0,0.0,0.0,0.0,0.0,0.0,0.0,0.0,0.0,0.0,0.0,0.0,0.0,0.0,0.0,0.0,0.0,0.0,0.0,0.0,0.0,0.0,0.0,0.0,0.0,0.0,0.0,-2.5264,-2.6453,-2.751,-2.8462,-2.851,-2.851,-2.8486,-2.733,-2.6213,0.0,0.0,0.0,0.0,0.0,0.0,0.0,0.0,0.0,0.0,0.0,0.0,0.0,0.0,0.0,0.0,0.0,0.0,0.0,0.0,0.0,0.0,0.0,0.0,0.0,0.0,0.0,0.0,0.0,0.0,0.0,0.0,0.0,0.0,0.0,0.0,0.0,0.0,0.0,0.0,0.0,-2.8484,-2.8627,-2.8339,0.0,0.0,0.0,0.0,-2.8295,-2.8915,0.0,0.0,0.0,0.0,0.0,0.0,0.0,0.0,0.0,0.0,0.0,0.0,0.0,0.0,0.0,0.0,0.0,0.0,0.0,0.0,0.0,0.0,0.0,0.0,0.0,0.0,0.0,0.0,0.0,0.0,0.0,0.0,0.0,0.0,0.0,0.0,0.0,0.0,0.0,0.0,0.0,0.0,0.0,0.0,0.0,0.0,0.0,0.0,0.0,0.0,0.0,0.0,0.0,0.0,0.0,0.0,-2.53,-2.6851,-2.7909,-2.8474,-2.851,-2.851,-2.8486,-2.7007,-2.5697,0.0,0.0,0.0,0.0,0.0,0.0,0.0,0.0,0.0,0.0,0.0,0.0,0.0,0.0,0.0,0.0,0.0,0.0,0.0,0.0,0.0,0.0,0.0,0.0,0.0,0.0,0.0,0.0,0.0,0.0,0.0,0.0,0.0,0.0,0.0,0.0,0.0,0.0,0.0,0.0,0.0,-2.9304,-2.945,-2.99,-2.9957,0.0,0.0,-3.089,-3.0861,-3.1377,0.0,0.0,0.0,0.0,0.0,0.0,0.0,0.0,0.0,0.0,0.0,0.0,0.0,0.0,0.0,0.0,0.0,0.0,0.0,0.0,0.0,0.0,0.0,0.0,0.0,0.0,0.0,0.0,0.0,0.0,0.0,0.0,0.0,0.0,0.0,0.0,0.0,0.0,0.0,0.0,0.0,0.0,0.0,0.0,0.0,0.0,0.0,0.0,0.0,0.0,0.0,0.0,0.0,0.0,0.0,-2.4049,-2.5324,-2.7188,-2.827,-2.8498,-2.851,-2.851,-2.851,-2.6947,-2.5745,0.0,0.0,0.0,0.0,0.0,0.0,0.0,0.0,0.0,0.0,0.0,0.0,0.0,0.0,0.0,0.0,0.0,0.0,0.0,0.0,0.0,0.0,0.0,0.0,0.0,0.0,0.0,0.0,0.0,0.0,0.0,0.0,0.0,0.0,0.0,0.0,0.0,0.0,0.0,0.0,0.0,0.0,-3.0118,-3.0622,0.0,0.0,0.0,-3.1221,-3.0955,0.0,0.0,0.0,0.0,0.0,0.0,0.0,0.0,0.0,0.0,0.0,0.0,0.0,0.0,0.0,0.0,0.0,0.0,0.0,0.0,0.0,0.0,0.0,0.0,0.0,0.0,0.0,0.0,0.0,0.0,0.0,0.0,0.0,0.0,0.0,0.0,0.0,0.0,0.0,0.0,0.0,0.0,0.0,0.0,0.0,0.0,0.0,0.0,0.0,0.0,0.0,0.0,0.0,0.0,0.0,0.0,0.0,-2.5324,-2.7428,-2.851,-2.851,-2.851,-2.851,-2.8486,-2.7079,0.0,0.0,0.0,0.0,0.0,0.0,0.0,0.0,0.0,0.0,0.0,0.0,0.0,0.0,0.0,0.0,0.0,0.0,0.0,0.0,0.0,0.0,0.0,0.0,0.0,0.0,0.0,-2.6018,0.0,0.0,0.0,0.0,0.0,0.0,0.0,0.0,0.0,0.0,0.0,0.0,0.0,0.0,-3.0044,-3.0667,-3.1211,-3.1625,0.0,0.0,-3.1483,-3.129,-3.2188,-3.2202,0.0,0.0,0.0,0.0,0.0,0.0,0.0,0.0,0.0,0.0,0.0,0.0,0.0,0.0,0.0,0.0,0.0,0.0,0.0,0.0,0.0,0.0,0.0,0.0,0.0,0.0,0.0,0.0,0.0,0.0,0.0,0.0,0.0,0.0,0.0,0.0,0.0,0.0,0.0,0.0,0.0,0.0,0.0,0.0,0.0,0.0,0.0,0.0,0.0,0.0,0.0,0.0,0.0,0.0,0.0,-2.536,-2.7428,-2.8534,-2.8522,-2.851,-2.851,-2.8498,-2.7426,-2.6129,0.0,0.0,0.0,0.0,0.0,0.0,0.0,0.0,0.0,0.0,0.0,0.0,0.0,0.0,0.0,0.0,0.0,0.0,0.0,0.0,0.0,0.0,0.0,0.0,0.0,0.0,0.0,0.0,0.0,0.0,0.0,0.0,0.0,0.0,0.0,0.0,0.0,0.0,0.0,0.0,0.0,-3.0573,-3.1161,-3.1812,-3.2367,0.0,0.0,-3.2403,-3.2937,-3.3537,-3.3182,-3.0916,0.0,0.0,0.0,0.0,0.0,0.0,0.0,0.0,0.0,0.0,0.0,0.0,0.0,0.0,0.0,0.0,0.0,0.0,0.0,0.0,0.0,0.0,0.0,0.0,0.0,0.0,0.0,0.0,0.0,0.0,0.0,0.0,0.0,0.0,0.0,0.0,0.0,0.0,0.0,0.0,0.0,0.0,0.0,0.0,0.0,0.0,0.0,0.0,0.0,0.0,0.0,0.0,0.0,-2.5444,-2.6285,-2.8402,-2.9472,-2.9484,-2.9484,-2.9484,-2.9484,-2.845,-2.7258,0.0,0.0,0.0,0.0,0.0,0.0,0.0,0.0,0.0,0.0,0.0,0.0,0.0,0.0,0.0,0.0,0.0,0.0,0.0,0.0,0.0,0.0,0.0,0.0,0.0,0.0,0.0,0.0,-2.8926,-2.8802,-2.765,0.0,0.0,0.0,0.0,0.0,0.0,0.0,0.0,0.0,0.0,-3.0283,-3.1648,-3.2414,0.0,0.0,-3.291,-3.2676,-3.263,-3.2752,-3.213,-3.0186,-2.8984,0.0,0.0,0.0,0.0,0.0,0.0,0.0,0.0,0.0,0.0,0.0,0.0,0.0,0.0,0.0,0.0,0.0,0.0,0.0,0.0,0.0,0.0,0.0,0.0,0.0,0.0,0.0,0.0,0.0,0.0,0.0,0.0,0.0,0.0,0.0,0.0,0.0,0.0,0.0,0.0,0.0,0.0,0.0,0.0,0.0,0.0,0.0,0.0,0.0,0.0,0.0,0.0,-2.5997,-2.6885,-2.9015,-3.0086,-3.0086,-3.0086,-3.0086,-3.0074,-2.9364,-2.8486,0.0,0.0,0.0,0.0,0.0,0.0,0.0,0.0,0.0,0.0,0.0,0.0,0.0,0.0,0.0,0.0,0.0,0.0,0.0,0.0,0.0,0.0,0.0,0.0,0.0,0.0,0.0,0.0,-2.9055,-2.8464,-2.6961,0.0,0.0,0.0,0.0,0.0,0.0,0.0,0.0,0.0,0.0,-3.0699,-3.1926,-3.2583,-3.2937,-3.297,-3.2442,-3.2001,-3.1868,-3.1572,-3.1,-2.9894,0.0,0.0,0.0,0.0,0.0,0.0,0.0,0.0,0.0,0.0,0.0,0.0,0.0,0.0,0.0,0.0,0.0,0.0,0.0,0.0,0.0,0.0,0.0,0.0,0.0,0.0,0.0,0.0,0.0,0.0,-1.9808,0.0,0.0,0.0,0.0,0.0,0.0,0.0,0.0,0.0,0.0,0.0,0.0,0.0,0.0,0.0,0.0,0.0,0.0,0.0,0.0,0.0,0.0,-2.637,-2.6922,-2.9063,-3.011,-3.011,-3.0098,-3.0122,-3.0122,-3.0062,-2.9556,-2.8486,0.0,0.0,0.0,0.0,0.0,0.0,0.0,0.0,0.0,0.0,0.0,0.0,0.0,0.0,0.0,0.0,0.0,0.0,0.0,0.0,0.0,0.0,0.0,0.0,0.0,0.0,-2.7974,-2.7862,-2.7537,0.0,0.0,0.0,0.0,0.0,0.0,0.0,0.0,0.0,0.0,-3.0432,-3.2152,-3.1936,-3.2127,-3.2188,-3.1829,-3.0874,-3.0337,-3.0793,-3.0335,-3.0048,0.0,0.0,0.0,0.0,0.0,0.0,0.0,0.0,0.0,0.0,0.0,0.0,0.0,0.0,0.0,0.0,0.0,0.0,0.0,0.0,0.0,0.0,0.0,0.0,0.0,0.0,0.0,-2.3207,-2.3171,0.0,0.0,0.0,0.0,0.0,0.0,0.0,0.0,0.0,0.0,0.0,-2.6333,-2.6189,0.0,0.0,0.0,0.0,0.0,0.0,0.0,0.0,0.0,0.0,0.0,0.0,-2.7054,-2.799,-3.0074,-3.1175,-3.1187,-3.1175,-3.1175,-3.1175,-3.0838,-2.9953,-2.8558,0.0,0.0,0.0,0.0,0.0,0.0,0.0,0.0,0.0,0.0,0.0,0.0,0.0,0.0,0.0,0.0,0.0,0.0,0.0,0.0,0.0,0.0,0.0,0.0,0.0,-2.9055,0.0,0.0,0.0,0.0,0.0,0.0,0.0,0.0,0.0,0.0,0.0,-2.8163,-2.9789,-3.0406,-3.0945,-3.1659,-3.1625,-3.1718,0.0,0.0,0.0,0.0,0.0,0.0,0.0,0.0,0.0,0.0,0.0,0.0,0.0,0.0,-2.9229,-2.8525,-2.8262,-2.8302,-2.888,0.0,0.0,0.0,0.0,0.0,0.0,0.0,0.0,0.0,0.0,0.0,0.0,0.0,0.0,-2.5252,0.0,-2.4927,0.0,0.0,0.0,0.0,0.0,0.0,0.0,0.0,-2.7452,-2.8029,-2.799,-2.8029,-2.799,0.0,-2.7618,-2.6418,0.0,0.0,0.0,0.0,0.0,0.0,0.0,0.0,-2.7786,-2.8558,-3.0591,-3.1705,-3.1705,-3.1705,-3.1705,-3.1705,-3.1368,-3.0663,-2.9641,-2.8919,-2.7813,0.0,0.0,0.0,0.0,0.0,0.0,0.0,0.0,0.0,0.0,0.0,0.0,0.0,0.0,0.0,0.0,0.0,0.0,0.0,0.0,0.0,0.0,0.0,-2.9125,0.0,0.0,0.0,0.0,0.0,0.0,0.0,0.0,0.0,-2.7157,-2.8179,-2.9365,-3.0757,-3.0941,-3.1034,-3.1338,0.0,0.0,0.0,0.0,0.0,0.0,0.0,-2.8358,-2.9096,-2.9114,-2.9478,-3.0601,-3.0925,-3.1058,-3.1308,0.0,0.0,-3.0148,-2.9796,-2.9889,-3.0688,-3.0819,-3.0918,-3.1286,-3.1371,-3.1501,0.0,0.0,0.0,0.0,0.0,0.0,0.0,0.0,-2.6741,-2.6693,0.0,-2.6753,0.0,0.0,0.0,0.0,0.0,-2.6189,0.0,0.0,-3.0362,-3.1139,-3.0146,-3.011,-3.0122,-3.0074,-2.9112,-2.8607,-2.8498,-2.7522,0.0,0.0,0.0,0.0,0.0,0.0,-2.8522,-2.8643,-3.0615,-3.1705,-3.1705,-3.1705,-3.1705,-3.1705,-3.1705,-3.1681,-3.1657,-3.0639,-2.9869,-2.9292,-2.732,0.0,0.0,0.0,0.0,0.0,0.0,0.0,0.0,0.0,0.0,0.0,0.0,0.0,0.0,0.0,0.0,0.0,0.0,0.0,0.0,-2.8731,0.0,0.0,0.0,0.0,0.0,0.0,0.0,0.0,0.0,0.0,-2.7357,-2.93,-3.0786,-3.0786,0.0,0.0,0.0,0.0,-3.1418,-3.0137,-2.9355,-2.8928,-2.8876,-2.8804,-2.9278,-3.0811,0.0,0.0,-3.2594,-3.1817,-3.1351,-3.194,-3.1978,-3.1905,-3.2196,-3.1782,-3.1741,-3.2612,-3.2834,-3.3193,-3.3864,-3.3894,-3.3993,-2.7548,0.0,0.0,0.0,0.0,-2.5204,-2.6418,-2.839,-2.8558,-2.8751,-2.8931,-2.8715,0.0,0.0,0.0,0.0,0.0,0.0,-2.8546,-2.9448,-3.0591,-3.1175,-3.1259,-3.1204,-3.1247,-3.1235,-3.0903,-3.0802,-3.079,-3.0458,-2.928,-2.7234,0.0,0.0,0.0,0.0,-2.8871,-2.9665,-3.1019,-3.1705,-3.1705,-3.1705,-3.1705,-3.1705,-3.1705,-3.1705,-3.1705,-3.1416,-3.0838,-2.9893,-2.8919,0.0,0.0,0.0,0.0,0.0,0.0,0.0,0.0,0.0,0.0,0.0,0.0,0.0,0.0,0.0,0.0,0.0,0.0,0.0,-2.9824,-2.9602,-2.8998,0.0,0.0,0.0,0.0,0.0,0.0,0.0,0.0,0.0,-2.9681,-3.0224,-3.0658,0.0,0.0,-3.039,-2.9989,-3.015,-3.0496,-3.1098,-3.0276,0.0,-3.0913,-3.0208,-2.9896,-3.0957,-3.1958,-3.2673,-3.2838,-3.3042,-3.327,-3.3477,-3.3539,-3.3652,-3.3711,-3.326,-3.3095,-3.3683,-3.3889,-3.3957,-3.4198,-3.4605,-3.495,-3.0699,-2.8799,-2.7007,-2.6683,-2.7356,-2.7368,-2.8462,-3.0284,-3.0242,-3.0302,-3.0441,-3.029,-2.9532,-2.8318,-2.775,0.0,0.0,0.0,-2.9701,-3.0766,-3.1079,-3.1404,-3.1693,-3.1705,-3.1705,-3.1705,-3.1705,-3.1705,-3.1705,-3.1488,-3.0706,-2.9304,0.0,0.0,-2.8366,-2.9076,-2.9653,-3.0122,-3.1132,-3.1705,-3.1705,-3.1705,-3.1705,-3.1705,-3.1705,-3.1705,-3.1705,-3.1705,-3.1404,-3.0735,-3.0001,-2.8919,0.0,0.0,0.0,0.0,0.0,0.0,0.0,0.0,0.0,0.0,0.0,-2.4397,0.0,0.0,0.0,0.0,-2.8355,-2.9219,-3.075,-3.0122,0.0,0.0,0.0,0.0,0.0,0.0,0.0,-2.734,-2.89,-3.014,-3.0616,-3.0805,-3.1059,-3.1508,-3.1095,-3.0628,-3.0389,0.0,-3.0928,-3.1533,-3.1001,-3.0839,-3.1659,-3.1278,-3.1197,-3.2068,-3.2835,-3.3403,-3.3499,-3.3931,-3.4216,-3.423,-3.4312,-3.438,-3.438,-3.4076,-3.3989,-3.4599,-3.4738,-3.482,-3.5063,-3.5452,-3.5745,-3.3452,-3.3104,-2.9677,-2.8775,-2.9593,-2.9617,-3.0434,-3.1813,-3.1837,-3.156,-3.1151,-3.1633,-3.1007,-2.9532,-2.9003,0.0,-3.0206,-3.0218,-3.0735,-3.1705,-3.1705,-3.1705,-3.1705,-3.1705,-3.1705,-3.1705,-3.1705,-3.1705,-3.1693,-3.118,-3.1235,-3.1681,-3.118,-3.0434,-2.9532,-3.035,-3.0591,-3.017,-3.1151,-3.1657,-3.1705,-3.1705,-3.1705,-3.1705,-3.1705,-3.1705,-3.1705,-3.1705,-3.1705,-3.1681,-3.0778,-2.9953,-2.934,0.0,0.0,0.0,0.0,0.0,0.0,0.0,0.0,0.0,0.0,0.0,0.0,0.0,0.0,0.0,-3.0089,0.0,-3.1499,-3.0474,0.0,0.0,0.0,-2.8171,-2.8703,-2.8858,-2.9111,-2.9617,0.0,0.0,-3.0708,-3.126,-3.196,-3.2778,-3.2613,-3.2202,-3.164,-3.2117,-3.2356,-3.1926,-3.1814,-3.1828,-3.2148,-3.241,-3.2944,-3.3764,-3.4129,-3.4281,-3.4447,-3.4535,-3.452,-3.4578,-3.454,-3.4569,-3.4574,-3.4637,-3.4747,-3.5365,-3.5347,-3.5467,-3.5917,-3.6121,-3.6199,-3.4835,-3.4354,-3.3033,-3.2466,-3.2334,-3.2346,-3.2563,-3.2887,-3.2899,-3.2839,-3.2731,-3.2851,-3.2466,-3.1721,-3.1156,-3.106,-3.1332,-3.1332,-3.1464,-3.1705,-3.1705,-3.1705,-3.1705,-3.1705,-3.1705,-3.1705,-3.1705,-3.1705,-3.1705,-3.1585,-3.1585,-3.1693,-3.1585,-3.1187,-3.0518,-3.035,-3.0422,-3.0687,-3.0983,-3.1296,-3.1693,-3.1705,-3.1705,-3.1705,-3.1705,-3.1705,-3.1705,-3.1705,-3.1705,-3.1705,-3.1476,-3.0867,-2.9941,-2.827,0.0,0.0,0.0,0.0,0.0,0.0,0.0,0.0,0.0,-2.5834,-2.5801,0.0,-2.8436,0.0,-3.0937,-3.2019,-3.2159,-3.1499,0.0,0.0,-2.9631,-2.9223,-2.9378,-3.0235,-3.0698,-3.0301,-3.1274,-3.2131,-3.2561,-3.2757,-3.3297,-3.4417,-3.3318,-3.2342,-3.223,-3.3108,-3.3797,-3.3811,-3.408,-3.4533,-3.4569,-3.4696,-3.4687,-3.4885,-3.5044,-3.5188,-3.5224,-3.5475,-3.5624,-3.5624,-3.5745,-3.5816,-3.5822,-3.5816,-3.5872,-3.5974,-3.5307,-3.4702,-3.4839,-3.5285,-3.5657,-3.5088,-3.4751,-3.4474,-3.4186,-3.3945,-3.3489,-3.3284,-3.3284,-3.3284,-3.3284,-3.3284,-3.3284,-3.3128,-3.2839,-3.2527,-3.244,-3.2394,-3.2382,-3.2427,-3.2427,-3.2394,-3.2427,-3.244,-3.244,-3.2427,-3.2394,-3.2382,-3.2427,-3.2394,-3.244,-3.244,-3.2427,-3.2427,-3.213,-3.1633,-3.0831,-3.047,-3.053,-3.0759,-3.1163,-3.1681,-3.1705,-3.1597,-3.1368,-3.1356,-3.1139,-3.0669,-3.0615,-3.0657,-3.0615,-3.0645,-3.0446,-3.0086,-2.8811,-2.7596,0.0,0.0,0.0,0.0,0.0,0.0,0.0,0.0,0.0,0.0,0.0,-2.9545,-3.0285,-3.1606,-3.2286,-3.2019,-3.1729,-3.1457,-3.1373,-3.1269,-3.1274,-3.1246,-3.237,-3.2876,-3.2224,-3.3031,-3.3761,-3.4098,-3.4126,-3.4401,-3.5105,-3.4556,-3.393,-3.3769,-3.4239,-3.4683,-3.4806,-3.5074,-3.5351,-3.5484,-3.5373,-3.53,-3.53,-3.5373,-3.5498,-3.5571,-3.5739,-3.587,-3.5884,-3.5956,-3.6065,-3.6158,-3.6158,-3.6121,-3.5865,-3.5343,-3.4994,-3.5212,-3.5536,-3.5779,-3.5087,-3.5124,-3.4931,-3.4968,-3.4907,-3.3994,-3.3597,-3.3585,-3.3585,-3.3585,-3.3585,-3.3525,-3.3452,-3.338,-3.332,-3.3284,-3.3284,-3.3284,-3.3284,-3.3284,-3.3284,-3.3284,-3.3284,-3.3284,-3.3284,-3.3284,-3.3284,-3.3284,-3.3284,-3.3284,-3.3284,-3.3284,-3.3284,-3.302,-3.2491,-3.1553,-3.0862,-3.0302,-3.0862,-3.1356,-3.1801,-3.1681,-3.1392,-3.0946,-3.085,-3.0314,-2.9352,-2.9304,-2.9304,-2.9304,-2.9304,-2.9569,-3.0134,-2.9184,-2.8194,0.0,-2.6843,0.0,0.0,0.0,0.0,0.0,0.0,0.0,0.0,-3.0365,-3.1239,-3.1803,-3.2314,-3.2455,-3.1991,-3.1963,-3.2174,-3.2707,-3.3227,-3.3564,-3.3578,-3.4556,-3.4992,-3.4371,-3.4829,-3.5203,-3.5259,-3.5302,-3.5316,-3.5498,-3.585,-3.5864,-3.5527,-3.5428,-3.547,-3.5428,-3.5428,-3.5606,-3.5578,-3.5536,-3.5536,-3.5619,-3.5699,-3.5725,-3.5957,-3.598,-3.5988,-3.6002,-3.6082,-3.6127,-3.6223,-3.6324,-3.6209,-3.6011,-3.5915,-3.5872,-3.5836,-3.5872,-3.6069,-3.6747,-3.6663,-3.5821,-3.5713,-3.6062,-3.5437,-3.5172,-3.5172,-3.5172,-3.5184,-3.5148,-3.4727,-3.4258,-3.3826,-3.3464,-3.3284,-3.3284,-3.3284,-3.3284,-3.3284,-3.3284,-3.3284,-3.3284,-3.3284,-3.3284,-3.3284,-3.3284,-3.3284,-3.3284,-3.3284,-3.3284,-3.3284,-3.3284,-3.302,-3.2515,0.0,0.0,0.0,-3.1913,-3.2238,-3.231,-3.1512,-3.1031,-3.0867,-3.0446,0.0,-2.934,-2.9304,-2.9304,-2.9304,-2.9304,0.0,0.0,0.0,0.0,0.0,0.0,0.0,0.0,0.0,0.0,0.0,-2.9145,-2.8987,-2.9458,-3.0899,-3.233,-3.3556,-3.3796,-3.4042,-3.4458,-3.45,-3.4542,-3.4669,-3.4767,-3.4851,-3.4866,-3.5062,-3.5133,-3.5048,-3.5133,-3.5386,-3.585,-3.5934,-3.6131,-3.6567,-3.6778,-3.6806,-3.6708,-3.6638,-3.6627,-3.6641,-3.6581,-3.6638,-3.6627,-3.6585,-3.6553,-3.6718,-3.6834,-3.692,-3.6916,-3.7059,-3.7215,-3.7173,-3.7381,-3.7428,-3.7503,-3.7667,-3.762,-3.768,-3.7622,-3.707,-3.5212,-3.4791,-3.4762,-3.6807,0.0,-3.623,-3.6158,0.0,-3.6122,-3.6158,-3.6386,-3.6122,-3.6002,-3.599,-3.5725,-3.5461,-3.5184,-3.4944,-3.4835,-3.4823,-3.4823,-3.4823,-3.4835,-3.4823,-3.4823,-3.4823,-3.4559,-3.4438,-3.4426,-3.4174,-3.4054,-3.4054,-3.4042,-3.4054,-3.4042,-3.4042,-3.3921,-3.3657,-3.3657,-3.3128,-3.2082,-3.2358,-3.2623,-3.2851,-3.2358,-3.1805,-3.1332,-3.1043,0.0,0.0,0.0,0.0,0.0,0.0,0.0,0.0,-2.9977,0.0,-2.9689,-2.9024,-2.9008,-2.9745,-2.9403,-2.9614,-3.07,-3.0584,-3.0412,-3.0267,-3.1861,-3.3207,-3.3918,-3.4418,-3.4815,-3.5147,-3.5189,-3.5189,-3.5203,-3.5456,-3.5541,-3.5302,-3.5738,-3.5963,-3.5723,-3.5906,-3.623,-3.6473,-3.6515,-3.6806,-3.733,-3.7442,-3.7555,-3.7819,-3.7397,-3.6993,-3.6978,-3.6978,-3.6978,-3.6978,-3.6978,-3.6993,-3.7017,-3.7095,-3.7134,-3.7134,-3.7226,-3.7303,-3.7303,-3.738,-3.7457,-3.761,-3.7672,-3.7738,-3.7653,-3.7604,-3.7178,-3.5656,-3.5604,-3.5836,-3.6543,-3.6531,-3.6435,-3.6471,-3.6543,-3.6543,-3.6843,-3.73,0.0,0.0,0.0,-3.6543,-3.6495,-3.6411,-3.6411,-3.6411,-3.6411,-3.6411,-3.6411,-3.6411,-3.6411,-3.6411,-3.6374,-3.5966,-3.5761,-3.5725,-3.5304,-3.51,-3.5112,-3.5112,-3.5064,-3.4968,-3.4919,-3.4859,-3.4775,-3.4775,-3.4186,-3.2984,-3.2815,-3.2984,-3.3392,-3.3236,-3.2731,-3.1874,-3.1753,-3.1007,-2.9496,-2.9436,-2.94,-2.9304,-2.9304,-2.9581,-3.0182,-3.0272,-3.0074,-2.9761,-2.9713,-2.9917,-3.0326,-3.0405,-3.0778,-3.1645,-3.1705,-3.1645,-3.1581,-3.2857,-3.3815,-3.4101,-3.4844,-3.5288,-3.5274,-3.5438,-3.5513,-3.5527,-3.5963,-3.6061,-3.5653,-3.637,-3.6821,-3.6553,-3.6877,-3.7203,-3.7316,-3.7397,-3.7484,-3.7934,-3.8074,-3.8229,-3.8649,-3.8044,-3.7428,-3.7442,-3.7498,-3.7372,-3.733,-3.7386,-3.7316,-3.7467,-3.7425,-3.7316,-3.7316,-3.733,-3.7316,-3.7467,-3.7369,-3.7568,-3.7696,-3.787,-3.7691,-3.7546,-3.7558,-3.7436,-3.7135,-3.7317,-3.7462,-3.7072,-3.7048,-3.6591,-3.6663,-3.7084,-3.7084,-3.7385,-3.7853,-3.7793,-3.7505,-3.7084,-3.7084,-3.6831,-3.6411,-3.6411,-3.6411,-3.6411,-3.6411,-3.6411,-3.6411,-3.6411,-3.6411,-3.6398,-3.6326,-3.629,-3.629,-3.6218,-3.6182,-3.6182,-3.617,-3.5954,-3.5557,-3.5509,-3.528,-3.4811,-3.4775,-3.4667,-3.4438,-3.3994,-3.3802,-3.3874,-3.3068,-3.2539,-3.237,-3.197,-3.1187,-3.0037,-3.0001,-2.9761,-2.9328,-2.9304,-2.9749,-3.073,-3.0802,-3.0983,-3.1344,-3.138,-3.1404,-3.1476,-3.15,-3.1548,-3.1681,-3.1705,-3.2315,-3.3703,-3.3379,-3.3752,-3.5197,-3.549,-3.5664,-3.5664,-3.6267,-3.6655,-3.6712,-3.6835,-3.681,-3.6764,-3.6933,-3.7203,-3.7555,-3.7695,-3.799,-3.8438,-3.8564,-3.8564,-3.8733,-3.8791,-3.886,-3.8958,-3.8775,-3.8649,-3.8649,-3.8649,-3.8649,-3.8508,-3.8635,-3.8536,-3.8649,-3.8564,-3.8494,-3.8494,-3.8494,-3.848,-3.8607,-3.8629,-3.8819,-3.9019,-3.9344,-3.9291,-3.9338,-3.9387,-3.9412,-3.9262,-3.9088,-3.842,-3.7625,-3.7589,-3.736,-3.7397,-3.7613,-3.7613,-3.7757,-3.7974,-3.7974,-3.7853,-3.7637,-3.7625,-3.7481,-3.7276,-3.7252,-3.7264,-3.7264,-3.7264,-3.7264,-3.7252,-3.7264,-3.7252,-3.724,-3.6964,-3.6831,-3.6807,-3.6531,-3.6411,-3.6411,-3.6411,-3.6278,-3.6062,-3.605,-3.5785,-3.5243,-3.5244,-3.5063,-3.4787,-3.4546,-3.4426,-3.4414,-3.4006,-3.3621,-3.3298,-3.3068,-3.2599,-3.1865,-3.1829,-3.1577,-3.106,-3.1048,-3.112,-3.1332,-3.13,-3.1452,-3.1693,-3.1705,-3.1705,-3.1705,-3.1705,-3.1705,-3.1705,-3.1705,-3.2239,-3.3492,-3.3224,-3.3365,-3.4194,-3.5074,-3.5709,-3.5709,-3.648,-3.7119,-3.7456,-3.7484,-3.7625,-3.7974,-3.8044,-3.8157,-3.841,-3.8426,-3.8538,-3.886,-3.8916,-3.9071,-3.9324,-3.9633,-3.9831,-3.9845,-3.9831,-3.9647,-3.9071,-3.8916,-3.8916,-3.893,-3.8916,-3.8916,-3.8916,-3.8916,-3.8916,-3.8916,-3.893,-3.893,-3.8916,-3.9093,-3.9201,-3.9363,-3.9496,-3.9682,-3.9895,-3.9921,-3.996,-4.0006,-3.9857,-3.9262,-3.7974,-3.7974,-3.7974,-3.7974,-3.7974,-3.7974,-3.7974,-3.7974,-3.7974,-3.7974,-3.7974,-3.7974,-3.7974,-3.7974,-3.7974,-3.7974,-3.7974,-3.7974,-3.7974,-3.7974,-3.7974,-3.7974,-3.7938,-3.7553,-3.7372,-3.7324,-3.6952,-3.6759,-3.6759,-3.6759,-3.6687,-3.6579,-3.6471,-3.6194,-3.5809,-3.5797,-3.5483,-3.504,-3.4955,-3.4956,-3.4787,-3.4775,-3.457,-3.421,-3.4174,-3.3934,-3.3489,-3.3452,-3.3212,-3.2719,-3.2683,-3.2478,-3.2114,-3.2078,-3.2018,-3.191,-3.1886,-3.1837,-3.1717,-3.1705,-3.1705,-3.1705,-3.1825,-3.2151,-3.2773,-3.3015,-3.304,-3.3185,-3.4379,-3.5219,-3.5341,-3.6157,-3.701,-3.767,-3.7806,-3.8069,-3.8763,-3.8916,-3.8972,-3.9071,-3.9127,-3.9141,-3.9268,-3.9324,-3.9535,-3.9971,-4.0407,-4.0688,-4.0702,-4.0702,-4.0252,-3.9676,-3.9324,-3.9394,-3.9324,-3.9366,-3.9394,-3.931,-3.9366,-3.9395,-3.9381,-3.938,-3.9352,-3.9422,-3.9545,-3.9752,-3.9737,-3.9941,-4.0158,-4.0418,-4.0527,-4.0481,-4.063,-4.0641,-4.0263,-3.7974,-3.7974,-3.7974,-3.7974,-3.7974,-3.7974,-3.7974,-3.7974,-3.7974,-3.7974,-3.7974,-3.7974,-3.7974,-3.7974,-3.7974,-3.7974,-3.7974,-3.7974,-3.7974,-3.7974,-3.7974,-3.7974,-3.7974,-3.7914,-3.7914,-3.789,-3.7805,-3.7733,-3.7733,-3.7769,-3.7577,-3.712,-3.6651,-3.6423,-3.6338,-3.6338,-3.6074,-3.5557,-3.5545,-3.5316,-3.4799,-3.4775,-3.4763,-3.4715,-3.4691,-3.4462,-3.3946,-3.3922,-3.3682,-3.3272,-3.3212,-3.3188,-3.3116,-3.3128,-3.2923,-3.2466,-3.2418,-3.2214,-3.1789,-3.1705,-3.1753,-3.1753,-3.2154,-3.2464,-3.2611,-3.3022,-3.3215,-3.3177,-3.3626,-3.4109,-3.4059,-3.5258,-3.6439,-3.7324,-3.7436,-3.7826,-3.8712,-3.8916,-3.9113,-3.9648,-3.9704,-3.9887,-4.028,-4.0378,-4.0463,-4.0491,-4.0603,-4.0702,-4.0702,-4.0702,-4.0688,-4.0491,-4.0491,-4.0421,-4.0393,-4.0519,-4.0378,-4.0421,-4.0491,-4.0393,-4.0322,-4.0378,-4.0505,-4.0224,-4.0576,-4.0703,-4.1025,-4.1363,-4.1484,-4.149,-4.1589,-4.179,-4.1889,-4.1744,-4.125,-3.7974,-3.7974,-3.7974,-3.7974,-3.7974,-3.7974,-3.7974,-3.7974,-3.7974,-3.7974,-3.7974,-3.7974,-3.7974,-3.7974,-3.7974,-3.7974,-3.7974,-3.7974,-3.7974,-3.7974,-3.7974,-3.7974,-3.7974,-3.7974,-3.7974,-3.7974,-3.7974,-3.7974,-3.7974,-3.7974,-3.7878,-3.7673,-3.7433,-3.718,-3.6892,-3.6879,-3.6615,-3.6098,-3.6086,-3.5821,-3.5328,-3.4943,-3.4775,-3.4775,-3.4775,-3.4739,-3.4486,-3.4462,-3.4222,-3.3789,-3.3729,-3.3585,-3.3296,-3.3284,-3.32,-3.2971,-3.2959,-3.2875,-3.2647,-3.2668,-3.268,-3.2623,-3.2827,-3.2959,-3.2971,-3.3164,-3.3252,-3.3277,-3.3809,-3.4259,-3.4361,-3.525,-3.6188,-3.6915,-3.7038,-3.7565,-3.891,-3.908,-3.9376,-4.0153,-4.0322,-4.0393,-4.0631,-4.0702,-4.0702,-4.0702,-4.0702,-4.0702,-4.0702,-4.0702,-4.0702,-4.0645,-4.0407,-4.035,-4.0603,-4.0702,-4.0702,-4.0702,-4.0702,-4.0702,-4.0702,-4.0702,-4.0702,-4.0702,-4.0887,-4.11,-4.1282,-4.1591,-4.18,-4.1995,-4.2092,-4.2092,-4.2092,-4.1773,-4.1366,-3.7974,-3.7974,-3.7974,-3.7974,-3.7974,-3.7974,-3.7974,-3.7974,-3.7974,-3.7974,-3.7974,-3.7974,-3.7974,-3.7974,-3.7974,-3.7974,-3.7974,-3.7974,-3.7974,-3.7974,-3.7974,-3.7974,-3.7974,-3.7974,-3.7974,-3.7974,-3.7974,-3.7974,-3.7974,-3.7974,-3.7974,-3.7974,-3.7974,-3.7793,-3.7445,-3.7409,-3.7156,-3.6675,-3.6627,-3.6374,-3.5857,-3.5411,-3.5124,-3.4871,-3.4775,-3.4775,-3.4775,-3.4775,-3.4655,-3.4234,-3.421,-3.4042,-3.3741,-3.3705,-3.3645,-3.3489,-3.3356,-3.3284,-3.3284,-3.3284,-3.3284,-3.3308,-3.3392,-3.3489,-3.3513,-3.3633,-3.3705,-3.3799,-3.4277,-3.461,-3.4516,-3.5163,-3.5871,-3.656,-3.6839,-3.7653,-3.8982,-3.9401,-3.9899,-4.0559,-4.0645,-4.0702,-4.0702,-4.0702,-4.0702,-4.0702,-4.0702,-4.0702,-4.0702,-4.0702,-4.0659,-4.0491,-4.0182,-4.0266,-4.0603,-4.0491,-4.0519,-4.0688,-4.0702,-4.0702,-4.0702,-4.0702,-4.0702,-4.0744,-4.0901,-4.1057,-4.1241,-4.1451,-4.18,-4.1995,-4.2092,-4.2092,-4.2092,-4.1657,-4.1657,-3.7974,-3.7974,-3.7974,-3.7974,-3.7974,-3.7974,-3.7974,-3.7974,-3.7974,-3.7974,-3.7974,-3.7974,-3.7974,-3.7974,-3.7974,-3.7974,-3.7974,-3.7974,-3.7974,-3.7974,-3.7974,-3.7974,-3.7974,-3.7974,-3.7974,-3.7974,-3.7974,-3.7974,-3.7974,-3.7974,-3.7974,-3.7974,-3.7974,-3.7962,-3.7902,-3.789,-3.7673,-3.7204,-3.7156,-3.6904,-3.6435,-3.6338,-3.5845,-3.4967,-3.4787,-3.4811,-3.4775,-3.4775,-3.4751,-3.4775,-3.4703,-3.4703,-3.4727,-3.4655,-3.4426,-3.3994,-3.3585,-3.3332,-3.3356,-3.338,-3.3368,-3.3392,-3.3789,-3.3958,-3.3994,-3.4366,-3.4546,-3.4715,-3.4667,-3.4607,-3.4269,-3.4665,-3.5327,-3.6135,-3.7086,-3.7958,-3.8961,-3.959,-4.0516,-4.0659,-4.0659,-4.0702,-4.0702,-4.0702,-4.0674,-4.0645,-4.0659,-4.0617,-4.0519,-4.0589,-4.035,-4.0055,-4.014,-4.0617,-4.0617,-4.0449,-4.0322,-4.0322,-4.0435,-4.0645,-4.0702,-4.0702,-4.0702,-4.0744,-4.0845,-4.0958,-4.1085,-4.1353,-4.1717,-4.1953,-4.2051,-4.2092,-4.2092,-4.2078,-4.202,-3.7974,-3.7974,-3.7974,-3.7974,-3.7974,-3.7974,-3.7974,-3.7974,-3.7974,-3.7974,-3.7974,-3.7974,-3.7974,-3.7974,-3.7974,-3.7974,-3.7974,-3.7974,-3.7974,-3.7974,-3.7974,-3.7974,-3.7974,-3.7974,-3.7974,-3.7974,-3.7974,-3.7974,-3.7974,-3.7974,-3.7974,-3.7974,-3.7974,-3.7974,-3.7974,-3.7974,-3.7878,-3.7721,-3.7697,-3.7445,-3.6964,-3.6916,-3.6555,-3.5869,-3.5509,-3.5172,-3.4775,-3.4775,-3.4775,-3.4775,-3.4775,-3.4775,-3.4775,-3.4775,-3.4715,-3.451,-3.4318,-3.427,-3.4282,-3.427,-3.427,-3.4282,-3.4378,-3.4523,-3.4522,-3.4667,-3.4775,-3.4775,-3.4775,-3.4655,-3.4631,-3.4679,-3.492,-3.5295,-3.5715,-3.6402,-3.7124,-3.7678,-3.8315,-3.9502,-4.0243,-4.0702,-4.0659,-4.0702,-4.0547,-4.0196,-4.0126,-3.9999,-3.969,-3.9577,-3.9605,-3.9282,-3.9044,-3.9058,-3.9563,-4.014,-4.035,-3.9985,-3.9915,-4.0168,-4.0294,-4.0533,-4.0575,-4.0589,-4.0731,-4.0887,-4.1015,-4.1296,-4.166,-4.1841,-4.1939,-4.2009,-4.2092,-4.192,-4.1932,-3.7974,-3.7974,-3.7974,-3.7974,-3.7974,-3.7974,-3.7974,-3.7974,-3.7974,-3.7974,-3.7974,-3.7974,-3.7974,-3.7974,-3.7974,-3.7974,-3.7974,-3.7974,-3.7974,-3.7974,-3.7974,-3.7974,-3.7974,-3.7974,-3.7974,-3.7974,-3.7974,-3.7974,-3.7974,-3.7974,-3.7974,-3.7974,-3.7974,-3.7974,-3.7974,-3.7974,-3.7974,-3.7974,-3.7974,-3.7781,-3.7481,-3.7457,-3.7192,-3.6699,-3.6302,-3.5869,-3.5315,-3.5184,-3.5076,-3.5015,-3.4883,-3.4775,-3.4775,-3.4775,-3.4775,-3.4775,-3.4763,-3.4775,-3.4775,-3.4775,-3.4763,-3.4775,-3.4763,-3.4775,-3.4775,-3.4775,-3.4775,-3.4775,-3.4775,-3.4775,-3.4775,-3.4775,-3.4775,-3.4872,-3.5066,-3.5523,-3.6213,-3.6637,-3.7474,-3.8541,-3.959,-4.0099,-4.0272,-4.0516,-4.0476,-4.0112,-4.0083,-3.9859,-3.9591,-3.9451,-3.938,-3.9198,-3.917,-3.9044,-3.9338,-3.9915,-3.9971,-3.9676,-3.9605,-3.9788,-3.9985,-4.0252,-4.0463,-4.0477,-4.059,-4.076,-4.1015,-4.1311,-4.1479,-4.1646,-4.1717,-4.1787,-4.1755,-4.1691,-4.1763,-3.7974,-3.7974,-3.7974,-3.7974,-3.7974,-3.7974,-3.7974,-3.7974,-3.7974,-3.7974,-3.7974,-3.7974,-3.7974,-3.7974,-3.7974,-3.7974,-3.7974,-3.7974,-3.7974,-3.7974,-3.7974,-3.7974,-3.7974,-3.7974,-3.7974,-3.7974,-3.7974,-3.7974,-3.7974,-3.7974,-3.7974,-3.7974,-3.7974,-3.7974,-3.7974,-3.7974,-3.7974,-3.7974,-3.7974,-3.795,-3.7962,-3.7914,-3.7685,-3.7252,-3.7156,-3.6852,-3.636,-3.5905,-3.5629,-3.5569,-3.5196,-3.4871,-3.4847,-3.4799,-3.4775,-3.4775,-3.4775,-3.4775,-3.4775,-3.4775,-3.4775,-3.4775,-3.4775,-3.4775,-3.4775,-3.4775,-3.4775,-3.4775,-3.4775,-3.4775,-3.4775,-3.4775,-3.4775,-3.486,-3.544,-3.6001,-3.632,-3.7103,-3.7763,-3.79,-3.8599,-3.9121,-3.9401,-3.9837,-4.0159,-4.0277,-4.0278,-4.0223,-4.0083,-4.0069,-4.0196,-3.9929,-3.9606,-3.9381,-3.955,-3.9732,-3.9535,-3.9324,-3.938,-3.9521,-3.9634,-3.9859,-4.0252,-4.0364,-4.0561,-4.0745,-4.0845,-4.1142,-4.1296,-4.1437,-4.1507,-4.1578,-4.1603,-4.1641,-4.1767,-3.7974,-3.7974,-3.7974,-3.7974,-3.7974,-3.7974,-3.7974,-3.7974,-3.7974,-3.7974,-3.7974,-3.7974,-3.7974,-3.7974,-3.7974,-3.7974,-3.7974,-3.7974,-3.7974,-3.7974,-3.7974,-3.7974,-3.7974,-3.7974,-3.7974,-3.7974,-3.7974,-3.7974,-3.7974,-3.7974,-3.7974,-3.7974,-3.7974,-3.7974,-3.7974,-3.7974,-3.7974,-3.7974,-3.7974,-3.7974,-3.7974,-3.7974,-3.789,-3.7769,-3.7599,-3.7357,-3.7219,-3.6537,-3.6182,-3.6158,-3.6002,-3.5749,-3.5388,-3.4967,-3.4775,-3.4775,-3.4775,-3.4775,-3.4775,-3.4775,-3.4775,-3.4775,-3.4775,-3.4775,-3.4775,-3.4775,-3.4775,-3.4775,-3.4775,-3.4775,-3.4775,-3.4775,-3.4811,-3.4775,-3.5102,-3.5343,-3.544,-3.6178,-3.6696,-3.6883,-3.7658,-3.816,-3.8251,-3.8657,-3.8925,-3.9125,-3.9143,-3.9262,-3.9411,-3.9662,-3.9451,-3.9254,-3.9394,-3.9676,-3.9676,-3.9704,-3.9564,-3.9493,-3.9507,-3.9338,-3.9436,-3.9676,-4.0041,-4.0364,-4.0561,-4.0702,-4.0802,-4.093,-4.11,-4.1226,-4.1297,-4.1438,-4.1564,-4.1647,-4.1675,-3.7974,-3.7974,-3.7974,-3.7974,-3.7974,-3.7974,-3.7974,-3.7974,-3.7974,-3.7974,-3.7974,-3.7974,-3.7974,-3.7974,-3.7974,-3.7974,-3.7974,-3.7974,-3.7974,-3.7974,-3.7974,-3.7974,-3.7974,-3.7974,-3.7974,-3.7974,-3.7974,-3.7974,-3.7974,-3.7974,-3.7974,-3.7974,-3.7974,-3.7974,-3.7974,-3.7974,-3.7974,-3.7974,-3.7974,-3.7974,-3.7974,-3.7974,-3.7933,-3.7826,-3.7691,-3.7447,-3.7192,-3.6799,-3.6633,-3.6557,-3.648,-3.6242,-3.5905,-3.5605,-3.5412,-3.5339,-3.5244,-3.5136,-3.51,-3.4944,-3.4775,-3.4775,-3.4775,-3.4775,-3.4775,-3.4775,-3.4775,-3.4775,-3.5016,-3.5124,-3.5099,-3.5291,-3.5316,-3.5087,-3.4944,-3.4787,-3.492,-3.5343,-3.5715,-3.5941,-3.6602,-3.7116,-3.7243,-3.7645,-3.7847,-3.8118,-3.8435,-3.8425,-3.8762,-3.9186,-3.9215,-3.9299,-3.962,-3.976,-3.969,-3.9648,-3.9648,-3.9662,-3.9704,-3.9465,-3.931,-3.969,-4.0097,-4.0435,-4.0688,-4.0688,-4.0787,-4.0816,-4.093,-4.1029,-4.1114,-4.1213,-4.1354,-4.1367,-4.1409,-3.7974,-3.7974,-3.7974,-3.7974,-3.7974,-3.7974,-3.7974,-3.7974,-3.7974,-3.7974,-3.7974,-3.7974,-3.7974,-3.7974,-3.7974,-3.7974,-3.7974,-3.7974,-3.7974,-3.7974,-3.7974,-3.7974,-3.7974,-3.7974,-3.7974,-3.7974,-3.7974,-3.7974,-3.7974,-3.7974,-3.7974,-3.7974,-3.7974,-3.7986,-3.7933,-3.7974,-3.7868,-3.788,-3.7868,-3.7868,-3.7868,-3.7921,-3.7838,-3.7584,-3.7477,-3.7192,-3.6697,-3.6755,-3.6873,-3.6847,-3.6581,-3.636,-3.6423,-3.6423,-3.629,-3.623,-3.5881,-3.5677,-3.5533,-3.5063,-3.4871,-3.5015,-3.4955,-3.4883,-3.4944,-3.5015,-3.4967,-3.4835,-3.5328,-3.5605,-3.5605,-3.5954,-3.599,-3.5629,-3.5112,-3.4799,-3.4775,-3.4872,-3.4957,-3.5054,-3.5619,-3.6238,-3.6225,-3.6917,-3.7322,-3.7743,-3.8235,-3.8156,-3.8381,-3.8807,-3.9626,-3.9715,-3.9392,-3.9337,-3.91,-3.9573,-3.9559,-3.9617,-3.9815,-3.9831,-3.955,-3.9929,-4.0196,-4.0519,-4.0702,-4.0702,-4.0702,-4.0773,-4.0816,-4.0901,-4.0986,-4.1015,-4.1043,-4.1114,-4.1184,-3.7974,-3.7974,-3.7974,-3.7974,-3.7974,-3.7974,-3.7974,-3.7974,-3.7974,-3.7974,-3.7974,-3.7974,-3.7974,-3.7974,-3.7974,-3.7974,-3.7974,-3.7974,-3.7974,-3.7974,-3.7974,-3.7974,-3.7974,-3.7974,-3.7974,-3.7974,-3.7974,-3.7974,-3.7974,-3.7974,-3.7974,-3.7986,-3.7785,-3.7691,-3.7691,-3.7465,-3.7346,-3.7346,-3.7346,-3.7346,-3.74,-3.7346,-3.7304,-3.7251,-3.7024,-3.6858,-3.6575,-3.6389,-3.6702,-3.7269,-3.653,-3.6398,-3.6828,-3.6639,-3.642,-3.6372,-3.5978,-3.5821,-3.5942,-3.5352,-3.5208,-3.5857,-3.5593,-3.5425,-3.5425,-3.5773,-3.5557,-3.5256,-3.5605,-3.5869,-3.54,-3.5857,-3.6062,-3.5665,-3.5136,-3.4775,-3.4775,-3.4775,-3.4775,-3.4811,-3.5054,-3.5247,-3.5391,-3.5584,-3.6001,-3.659,-3.6998,-3.7309,-3.7566,-3.8082,-3.8747,-3.8477,-3.8249,-3.8379,-3.8559,-3.9125,-3.9451,-3.9527,-3.9832,-4.0377,-4.0266,-4.0421,-4.0547,-4.0688,-4.0702,-4.0702,-4.0702,-4.0744,-4.0773,-4.0816,-4.083,-4.0844,-4.0873,-4.0887,-4.1001,-3.7974,-3.7974,-3.7974,-3.7974,-3.7974,-3.7974,-3.7974,-3.7974,-3.7974,-3.7974,-3.7974,-3.7974,-3.7974,-3.7974,-3.7974,-3.7974,-3.7974,-3.7974,-3.7974,-3.7974,-3.7974,-3.7974,-3.7974,-3.7974,-3.7974,-3.7986,-3.7892,-3.785,-3.7785,-3.7667,-3.7613,-3.756,-3.7465,-3.7423,-3.7358,-3.7251,-3.7131,-3.7131,-3.7131,-3.7131,-3.7131,-3.7131,-3.7024,-3.6916,-3.6742,-3.6588,-3.6191,-3.5543,-3.5748,-3.6567,-3.6346,-3.6137,-3.6756,-3.6733,-3.6677,-3.6845,-3.6285,-3.6194,-3.6423,-3.5761,-3.5581,-3.6158,-3.6086,-3.599,-3.599,-3.6242,-3.599,-3.5425,-3.5978,-3.5893,-3.5423,-3.5737,-3.5869,-3.5617,-3.5148,-3.4787,-3.4775,-3.4775,-3.4775,-3.4775,-3.4775,-3.4775,-3.4775,-3.4775,-3.5054,-3.5631,-3.6178,-3.632,-3.6461,-3.7163,-3.7579,-3.7302,-3.7487,-3.7763,-3.7887,-3.8328,-3.8689,-3.8854,-3.9135,-3.9837,-4.0343,-4.0473,-4.0645,-4.0645,-4.0702,-4.0702,-4.0702,-4.0702,-4.0744,-4.0744,-4.0702,-4.0702,-4.073,-4.0773,-4.0887,-3.7974,-3.7974,-3.7974,-3.7974,-3.7974,-3.7974,-3.7974,-3.7974,-3.7974,-3.7974,-3.7974,-3.7974,-3.7974,-3.7974,-3.7974,-3.7974,-3.7974,-3.7974,-3.7974,-3.7974,-3.7974,-3.7974,-3.7892,-3.788,-3.788,-3.7773,-3.7637,-3.7584,-3.7477,-3.7251,-3.7131,-3.7185,-3.7131,-3.7078,-3.7024,-3.7024,-3.7024,-3.697,-3.6916,-3.6916,-3.6916,-3.6916,-3.6808,-3.67,-3.6646,-3.6241,-3.5592,-3.4837,-3.4826,-3.6086,-3.5716,-3.5756,-3.6232,-3.6576,-3.6782,-3.6954,-3.6454,-3.6282,-3.6804,-3.5985,-3.5819,-3.6396,-3.6543,-3.6411,-3.6374,-3.6459,-3.623,-3.54,-3.6062,-3.611,-3.5809,-3.5677,-3.5581,-3.5497,-3.5087,-3.4811,-3.4775,-3.4775,-3.4775,-3.4775,-3.4775,-3.4775,-3.4775,-3.4775,-3.4823,-3.5114,-3.5523,-3.5619,-3.575,-3.6178,-3.6355,-3.6225,-3.6637,-3.7243,-3.7348,-3.7487,-3.775,-3.7978,-3.816,-3.8715,-3.9604,-3.9968,-4.043,-4.0616,-4.0659,-4.0702,-4.0702,-4.0702,-4.0616,-4.0702,-4.0702,-4.0702,-4.0702,-4.0744,-4.0773,-3.7974,-3.7974,-3.7974,-3.7974,-3.7974,-3.7974,-3.7974,-3.7974,-3.7974,-3.7974,-3.7974,-3.7974,-3.7986,-3.7974,-3.7974,-3.7974,-3.7974,-3.7974,-3.7974,-3.7974,-3.7974,-3.788,-3.7744,-3.7625,-3.7518,-3.7358,-3.7239,-3.7197,-3.7197,-3.7131,-3.7078,-3.7078,-3.6862,-3.6808,-3.6754,-3.6592,-3.6483,-3.6483,-3.6483,-3.6538,-3.6538,-3.6538,-3.6483,-3.6429,-3.6375,-3.611,-3.5531,-3.4946,-3.4607,-3.4566,-3.4679,-3.496,-3.5587,-3.5808,-3.5966,-3.5942,-3.5616,-3.5687,-3.6363,-3.5723,-3.5523,-3.7104,-3.6732,-3.6411,-3.6435,-3.6759,-3.629,-3.5569,-3.5821,-3.623,-3.6038,-3.5412,-3.5243,-3.5352,-3.5124,-3.4775,-3.4775,-3.4775,-3.4775,-3.4775,-3.4775,-3.4775,-3.4775,-3.4775,-3.4823,-3.4823,-3.492,-3.5005,-3.5187,-3.5427,-3.5427,-3.5427,-3.5655,-3.6178,-3.6273,-3.6414,-3.673,-3.6917,-3.7103,-3.7533,-3.8432,-3.9046,-3.9326,-3.9968,-4.0702,-4.0573,-4.0112,-4.0343,-4.0213,-4.043,-4.053,-4.03,-4.0156,-4.0386,-4.03,-3.7974,-3.7974,-3.7974,-3.7974,-3.7974,-3.7974,-3.7974,-3.7974,-3.7974,-3.7945,-3.7838,-3.7945,-3.7933,-3.7838,-3.7933,-3.7974,-3.7986,-3.7826,-3.7785,-3.7785,-3.7679,-3.7411,-3.7197,-3.7197,-3.7089,-3.7078,-3.697,-3.6916,-3.6916,-3.6808,-3.67,-3.67,-3.6592,-3.6538,-3.6549,-3.6375,-3.632,-3.632,-3.6266,-3.6266,-3.6266,-3.6266,-3.6266,-3.6266,-3.6231,-3.5956,-3.521,-3.4957,-3.4383,-3.3929,-3.3834,-3.4194,-3.4753,-3.4972,-3.5116,-3.5308,-3.5059,-3.5219,-3.5667,-3.5348,-3.5233,-3.6744,-3.6316,-3.62,-3.6168,-3.6482,-3.6213,-3.5567,-3.5653,-3.5954,-3.5689,-3.5292,-3.5052,-3.5051,-3.4955,-3.4775,-3.4775,-3.4775,-3.4775,-3.4775,-3.4775,-3.4775,-3.4775,-3.4775,-3.4775,-3.4823,-3.4823,-3.4908,-3.486,-3.5054,-3.5005,-3.4957,-3.4908,-3.5005,-3.5102,-3.5343,-3.5715,-3.5798,-3.5893,-3.6414,-3.7103,-3.7645,-3.8088,-3.8868,-3.9618,-3.9309,-3.8939,-3.9353,-3.9486,-3.9206,-3.9118,-3.9251,-3.9295,-3.9118,-3.9029,-3.788,-3.788,-3.788,-3.788,-3.788,-3.7814,-3.7814,-3.7814,-3.7868,-3.7679,-3.7596,-3.7838,-3.7785,-3.7702,-3.788,-3.7974,-3.7838,-3.7637,-3.753,-3.7477,-3.7292,-3.7078,-3.6862,-3.6808,-3.6808,-3.697,-3.6754,-3.6657,-3.6592,-3.6429,-3.6375,-3.632,-3.632,-3.632,-3.632,-3.632,-3.6266,-3.6266,-3.6266,-3.6266,-3.6266,-3.6266,-3.6266,-3.6266,-3.6094,-3.5692,-3.5014,-3.4647,-3.4234,-3.3373,-3.3281,-3.3499,-3.3814,-3.4116,-3.4395,-3.4888,-3.4587,-3.4793,-3.5113,-3.4941,-3.4836,-3.5486,-3.5462,-3.5553,-3.5746,-3.58,-3.5628,-3.5503,-3.5423,-3.5352,-3.4895,-3.4847,-3.4787,-3.4811,-3.4787,-3.4775,-3.4775,-3.4775,-3.4775,-3.4775,-3.4775,-3.4775,-3.4775,-3.4775,-3.4775,-3.4775,-3.4775,-3.4775,-3.4775,-3.4775,-3.4775,-3.4775,-3.4775,-3.4775,-3.4872,-3.4872,-3.5199,-3.5199,-3.515,-3.5475,-3.6001,-3.626,-3.6811,-3.7704,-3.8173,-3.7991,-3.8037,-3.84,-3.831,-3.7808,-3.7991,-3.8445,-3.831,-3.7854,-3.79,-3.7239,-3.7239,-3.7239,-3.7239,-3.7239,-3.7227,-3.7292,-3.7239,-3.7292,-3.7239,-3.7251,-3.753,-3.7637,-3.7637,-3.7892,-3.7892,-3.7637,-3.737,-3.7197,-3.7197,-3.7078,-3.6916,-3.67,-3.6646,-3.6592,-3.6429,-3.6375,-3.6375,-3.6386,-3.6332,-3.6266,-3.6266,-3.6266,-3.6266,-3.6266,-3.6266,-3.6266,-3.6266,-3.6266,-3.6266,-3.6266,-3.6266,-3.6266,-3.622,-3.5933,-3.5405,-3.4854,-3.436,-3.3866,-3.3361,-3.3292,-3.3338,-3.348,-3.3503,-3.3623,-3.3742,-3.3769,-3.3997,-3.4439,-3.4221,-3.4544,-3.5165,-3.5129,-3.4906,-3.5034,-3.5174,-3.5061,-3.4912,-3.4869,-3.4883,-3.4799,-3.4775,-3.4775,-3.4775,-3.4775,-3.4775,-3.4775,-3.4775,-3.4775,-3.4775,-3.4775,-3.4775,-3.4775,-3.4775,-3.4775,-3.4775,-3.4775,-3.4775,-3.4775,-3.4775,-3.4775,-3.4775,-3.4775,-3.4775,-3.4823,-3.4823,-3.4908,-3.4957,-3.4908,-3.4908,-3.5199,-3.5066,-3.5523,-3.6602,-3.7256,-3.7441,-3.7487,-3.7487,-3.7394,-3.7116,-3.7394,-3.7717,-3.7348,-3.6977,-3.7302,-3.7131,-3.7131,-3.7131,-3.7131,-3.7131,-3.7131,-3.7131,-3.7131,-3.7078,-3.7024,-3.7036,-3.7209,-3.7251,-3.7251,-3.74,-3.7453,-3.7251,-3.7036,-3.6916,-3.6862,-3.6754,-3.6646,-3.6429,-3.6429,-3.6429,-3.632,-3.6266,-3.6211,-3.6266,-3.632,-3.6266,-3.6266,-3.6266,-3.6266,-3.6266,-3.6266,-3.6266,-3.6266,-3.6266,-3.6266,-3.6266,-3.6266,-3.6266,-3.6128,-3.5707,-3.529,-3.4808,-3.428,-3.3786,-3.3396,-3.3281,-3.3281,-3.3281,-3.3281,-3.3281,-3.3281,-3.3292,-3.3411,-3.3781,-3.3584,-3.3858,-3.4187,-3.4156,-3.4152,-3.4228,-3.4355,-3.4421,-3.4491,-3.4482,-3.4628,-3.4775,-3.4775,-3.4775,-3.4775,-3.4775,-3.4775,-3.4775,-3.4775,-3.4775,-3.4775,-3.4775,-3.4775,-3.4775,-3.4775,-3.4775,-3.4775,-3.4775,-3.4775,-3.4775,-3.4775,-3.4775,-3.4775,-3.4775,-3.4775,-3.4775,-3.4775,-3.4775,-3.4775,-3.4775,-3.4775,-3.4823,-3.4823,-3.5054,-3.5667,-3.6178,-3.6602,-3.6225,-3.5941,-3.6131,-3.632,-3.6273,-3.6225,-3.6178,-3.6225,-3.6461,-3.658,-3.658,-3.658,-3.658,-3.6623,-3.6862,-3.6916,-3.6916,-3.6634,-3.6363,-3.6309,-3.6243,-3.6068,-3.6013,-3.6068,-3.6231,-3.6286,-3.5904,-3.5674,-3.5619,-3.5454,-3.5466,-3.5521,-3.5576,-3.5344,-3.5124,-3.5234,-3.5708,-3.5872,-3.6157,-3.6157,-3.5982,-3.6036,-3.6266,-3.6266,-3.6266,-3.6266,-3.6266,-3.6266,-3.6254,-3.5982,-3.5697,-3.5508,-3.5395,-3.4902,-3.4277,-3.3667,-3.3101,-3.2926,-3.2797,-3.2908,-3.3008,-3.3231,-3.3281,-3.3281,-3.3281,-3.3281,-3.3281,-3.3292,-3.3354,-3.3377,-3.3542,-3.3388,-3.3442,-3.3603,-3.3811,-3.3951,-3.4249,-3.4347,-3.4433,-3.4628,-3.4677,-3.4726,-3.4775,-3.4775,-3.4775,-3.4775,-3.4775,-3.4775,-3.4775,-3.4775,-3.4775,-3.4775,-3.4775,-3.4775,-3.4775,-3.4775,-3.4775,-3.4775,-3.4775,-3.4775,-3.4775,-3.4775,-3.4775,-3.4775,-3.4775,-3.4775,-3.4775,-3.4775,-3.4775,-3.4775,-3.4823,-3.5054,-3.5199,-3.515,-3.5427,-3.4908,-3.4775,-3.5235,-3.5379,-3.4957,-3.4957,-3.5331,-3.5379,-3.5475,-3.4814,-3.4814,-3.4814,-3.4814,-3.4969,-3.5872,-3.632,-3.6157,-3.5256,-3.4803,-3.4747,-3.4045,-3.3744,-3.3744,-3.3754,-3.3698,-3.3631,-3.3631,-3.3575,-3.3631,-3.3462,-3.3473,-3.3191,-3.301,-3.3462,-3.3575,-3.336,-3.3709,-3.4458,-3.5477,-3.5587,-3.5024,-3.5477,-3.6145,-3.5751,-3.5697,-3.6266,-3.6211,-3.6145,-3.5642,-3.4736,-3.3733,-3.3173,-3.2723,-3.2312,-3.1986,-3.1678,-3.1241,-3.1107,-3.1794,-3.179,-3.2269,-3.3069,-3.3281,-3.3281,-3.3281,-3.3281,-3.3281,-3.3281,-3.3281,-3.3281,-3.3281,-3.3281,-3.3331,-3.3431,-3.358,-3.3779,-3.4075,-3.4125,-3.4211,-3.4396,-3.4433,-3.458,-3.4677,-3.4726,-3.4775,-3.4775,-3.4775,-3.4775,-3.4775,-3.4775,-3.4775,-3.4775,-3.4775,-3.4775,-3.4775,-3.4775,-3.4775,-3.4775,-3.4775,-3.4775,-3.4775,-3.4775,-3.4775,-3.4775,-3.4775,-3.4775,-3.4775,-3.4775,-3.4775,-3.4775,-3.4775,-3.4775,-3.486,-3.4775,-3.4775,-3.4775,-3.4775,-3.4775,-3.4775,-3.4775,-3.4775,-3.486,-3.4775,-3.4775,-3.2815,-3.3427,-3.3427,-3.3427,-3.3484,-3.3979,-3.4202,-3.4101,-3.3652,-3.3427,-3.3371,-3.3077,-3.284,-3.2737,-3.2851,-3.284,-3.2783,-3.2556,-3.2602,-3.2499,-3.2499,-3.2545,-3.2659,-3.2613,-3.2602,-3.2442,-3.2499,-3.2338,-3.3031,-3.3473,-3.381,-3.3652,-3.3933,-3.4101,-3.4436,-3.4269,-3.4157,-3.4157,-3.4101,-3.3933,-3.3353,-3.2724,-3.2147,-3.1919,-3.1267,-3.0843,-3.0489,-3.0223,-3.0089,-3.065,-3.065,-3.0805,-3.1238,-3.1341,-3.1341,-3.1392,-3.2015,-3.2594,-3.3181,-3.3231,-3.3281,-3.3281,-3.3281,-3.3281,-3.3331,-3.3431,-3.358,-3.3828,-3.3878,-3.3965,-3.4174,-3.4211,-3.4347,-3.4482,-3.4628,-3.4726,-3.4775,-3.4775,-3.4775,-3.4775,-3.4775,-3.4775,-3.4775,-3.4775,-3.4775,-3.4775,-3.4775,-3.4775,-3.4775,-3.4775,-3.4775,-3.4775,-3.4775,-3.4775,-3.4775,-3.4775,-3.4775,-3.4775,-3.4775,-3.4775,-3.4775,-3.4775,-3.4775,-3.4775,-3.4775,-3.4775,-3.4775,-3.4775,-3.4775,-3.4775,-3.4775,-3.4775,-3.4775,-3.4775,-3.4775,-3.0869,-3.1707,-3.1994,-3.2166,-3.2234,-3.2442,-3.2659,-3.2623,-3.2281,-3.2166,-3.2052,-3.1822,-3.1649,-3.1717,-3.1602,-3.1476,-3.1592,-3.1707,-3.1707,-3.1707,-3.1707,-3.1592,-3.1419,-3.1534,-3.1534,-3.1765,-3.1361,-3.1091,-3.0917,-3.1197,-3.1822,-3.2166,-3.2737,-3.2794,-3.267,-3.284,-3.2954,-3.2897,-3.2509,-3.2281,-3.198,-3.1351,-3.0997,-3.0645,-3.0263,-2.9803,-2.9651,-2.925,-2.8996,-2.9503,-2.9493,-2.965,-3.0078,-3.0245,-3.0245,-3.0349,-3.0856,-3.1432,-3.2229,-3.2706,-3.3181,-3.3281,-3.3281,-3.3281,-3.3281,-3.3331,-3.3381,-3.3592,-3.358,-3.3729,-3.3927,-3.3977,-3.4162,-3.4286,-3.4433,-3.458,-3.4726,-3.4775,-3.4775,-3.4775,-3.4775,-3.4775,-3.4775,-3.4775,-3.4775,-3.4775,-3.4775,-3.4775,-3.4775,-3.4775,-3.4775,-3.4775,-3.4775,-3.4775,-3.4775,-3.4775,-3.4775,-3.4775,-3.4775,-3.4775,-3.4775,-3.4775,-3.4775,-3.4775,-3.4775,-3.4775,-3.4775,-3.4775,-3.4775,-3.4775,-3.4775,-3.4775,-3.4775,-3.4775,-3.4775,-2.9153,-2.9322,-3.048,-3.0937,-3.0985,-3.2166,-3.2545,-3.2156,-3.1323,-3.0927,-3.0752,-2.9952,-2.9549,-2.9431,-2.9667,-2.9608,-2.9381,-2.9263,-2.9549,-2.9558,-2.9263,-2.9608,-2.9717,-2.9717,-2.9549,-2.9549,-2.9776,-2.9608,-2.9272,-2.9608,-3.0177,-3.0869,-3.1544,-3.227,-3.2328,-3.1927,-3.1984,-3.1822,-3.1323,-3.0888,-3.0471,-2.9719,-2.8792,-2.8342,-2.7772,-2.728,-2.6983,-2.718,-2.752,-2.8295,-2.8339,-2.8658,-2.9144,-2.9303,-2.9303,-2.9408,-2.9765,-3.013,-3.0598,-3.1852,-3.3019,-3.3231,-3.3281,-3.3281,-3.3281,-3.3281,-3.3342,-3.3392,-3.3392,-3.3481,-3.363,-3.3767,-3.3915,-3.42,-3.4335,-3.4531,-3.4677,-3.4775,-3.4775,-3.4775,-3.4775,-3.4775,-3.4775,-3.4775,-3.4775,-3.4775,-3.4775,-3.4775,-3.4775,-3.4775,-3.4775,-3.4775,-3.4775,-3.4775,-3.4775,-3.4775,-3.4775,-3.4775,-3.4775,-3.4775,-3.4775,-3.4775,-3.4775,-3.4775,-3.4775,-3.4775,-3.4775,-3.4775,-3.4775,-3.4775,-3.4775,-3.4775,-3.4775,-3.4775,-3.4775,-2.8984,-2.9044,-2.9499,-2.9677,-2.9726,-3.0187,-3.0412,-3.0353,-2.9903,-2.9667,-2.9677,-2.9213,-2.8984,-2.8984,-2.8984,-2.8984,-2.8984,-2.8984,-2.8984,-2.8984,-2.8984,-2.8984,-2.8984,-2.8984,-2.9044,-2.8984,-2.8984,-2.8984,-2.9044,-2.8975,-2.9153,-2.9835,-3.0383,-3.0285,-3.0402,-3.0636,-3.0577,-3.0402,-3.0041,-2.9641,-2.9177,-2.8609,-2.7811,-2.7407,-2.7013,-2.6774,-2.6664,-2.6646,-2.6899,-2.7098,-2.726,-2.7628,-2.7994,-2.8048,-2.8101,-2.8155,-2.8562,-2.8817,-2.9071,-3.038,-3.1432,-3.237,-3.2807,-3.3181,-3.3019,-3.3231,-3.3281,-3.3281,-3.3281,-3.3381,-3.3431,-3.3481,-3.363,-3.4014,-3.4298,-3.4445,-3.4592,-3.4677,-3.4726,-3.4726,-3.4775,-3.4775,-3.4775,-3.4775,-3.4775,-3.4775,-3.4775,-3.4775,-3.4775,-3.4775,-3.4775,-3.4775,-3.4775,-3.4775,-3.4775,-3.4775,-3.4775,-3.4775,-3.4775,-3.4775,-3.4775,-3.4775,-3.4775,-3.4775,-3.4775,-3.4775,-3.4775,-3.4775,-3.4775,-3.4775,-3.4775,-3.4775,-3.4775,-3.4775,-3.4775,-2.8984,-2.8984,-2.8984,-2.8984,-2.8984,-2.8984,-2.8984,-2.8984,-2.9044,-2.8984,-2.8984,-2.8984,-2.8984,-2.8984,-2.8984,-2.8984,-2.8984,-2.8984,-2.8984,-2.8984,-2.8984,-2.8984,-2.8984,-2.8984,-2.8984,-2.8984,-2.8966,-2.8957,-2.8773,-2.8911,-2.8924,-2.8965,-2.8929,-2.9144,-2.9153,-2.8984,-2.8984,-2.8984,-2.8957,-2.8883,-2.8612,-2.8263,-2.7858,-2.7416,-2.704,-2.6747,-2.6646,-2.6591,-2.6646,-2.6691,-2.6691,-2.6636,-2.6636,-2.6646,-2.6591,-2.6845,-2.7206,-2.7707,-2.8082,-2.9134,-3.0182,-3.1062,-3.1597,-3.2026,-3.2331,-3.2544,-3.2645,-3.2745,-3.2969,-3.3231,-3.3231,-3.3331,-3.353,-3.3878,-3.3965,-3.4113,-3.4347,-3.4543,-3.458,-3.4628,-3.4726,-3.4775,-3.4775,-3.4775,-3.4775,-3.4775,-3.4775,-3.4775,-3.4775,-3.4775,-3.4775,-3.4775,-3.4775,-3.4775,-3.4775,-3.4775,-3.4775,-3.4775,-3.4775,-3.4775,-3.4775,-3.4775,-3.4775,-3.4775,-3.4775,-3.4775,-3.4775,-3.4775,-3.4775,-3.4775,-3.4775,-3.4775,-3.4775,-3.4775,-3.4775,-2.8984,-2.8984,-2.8984,-2.8984,-2.8984,-2.8984,-2.8984,-2.8984,-2.8984,-2.8984,-2.8984,-2.8984,-2.8984,-2.8984,-2.8984,-2.8984,-2.8984,-2.8984,-2.8984,-2.8984,-2.8984,-2.8984,-2.8984,-2.8984,-2.8984,-2.8984,-2.8966,-2.8819,-2.8526,-2.8838,-2.8783,-2.8709,-2.8856,-2.8984,-2.8984,-2.8984,-2.8984,-2.8984,-2.8984,-2.8938,-2.8755,-2.8407,-2.7985,-2.7572,-2.716,-2.6811,-2.6655,-2.6591,-2.6591,-2.6591,-2.6591,-2.6591,-2.6591,-2.6591,-2.6591,-2.6691,-2.6691,-2.6736,-2.6845,-2.8731,-2.9555,-2.9922,-3.0442,-3.0557,-3.0494,-3.0908,-3.1637,-3.1699,-3.228,-3.2869,-3.3081,-3.3181,-3.3269,-3.3469,-3.3519,-3.3878,-3.4162,-3.4359,-3.4396,-3.4445,-3.464,-3.4787,-3.4775,-3.4775,-3.4726,-3.4726,-3.4775,-3.4775,-3.4775,-3.4775,-3.4775,-3.4775,-3.4775,-3.4775,-3.4775,-3.4775,-3.4775,-3.4775,-3.4775,-3.4775,-3.4775,-3.4775,-3.4775,-3.4775,-3.4775,-3.4775,-3.4775,-3.4775,-3.4775,-3.4775,-3.4775,-3.4775,-3.4775,-3.4775,-3.4775,-2.8984,-2.8984,-2.8984,-2.8984,-2.8984,-2.8984,-2.8984,-2.8984,-2.8984,-2.8984,-2.8984,-2.8984,-2.8984,-2.8984,-2.8984,-2.8984,-2.8984,-2.8984,-2.8984,-2.8984,-2.8984,-2.8984,-2.8984,-2.8984,-2.8984,-2.8984,-2.8966,-2.8938,-2.8819,-2.8938,-2.8929,-2.8874,-2.8883,-2.8966,-2.8984,-2.8984,-2.8984,-2.8984,-2.8957,-2.8856,-2.859,-2.8214,-2.7829,-2.7426,-2.704,-2.6774,-2.6609,-2.6591,-2.6591,-2.6591,-2.6591,-2.6591,-2.6591,-2.6591,-2.6591,-2.6591,-2.6591,-2.6591,-2.6646,-2.753,-2.7994,-2.8668,-2.9292,-2.9618,-2.9974,-3.0182,-3.0442,-3.0546,-3.1021,-3.1289,-3.097,-3.1801,-3.2156,-3.2622,-3.2974,-3.3668,-3.4075,-3.4113,-3.4211,-3.4211,-3.4321,-3.4408,-3.4396,-3.4494,-3.4494,-3.4543,-3.458,-3.4738,-3.4738,-3.4787,-3.4787,-3.4775,-3.4775,-3.4775,-3.4775,-3.4775,-3.4775,-3.4775,-3.4775,-3.4775,-3.4775,-3.4775,-3.4775,-3.4775,-3.4775,-3.4775,-3.4775,-3.4775,-3.4775,-3.4775,-3.4775,-3.4775,-3.4775,-3.4775,-3.4775,-2.8984,-2.8984,-2.8984,-2.8984,-2.8984,-2.8984,-2.8984,-2.8984,-2.8984,-2.8984,-2.8984,-2.8984,-2.8984,-2.8984,-2.8984,-2.8984,-2.8984,-2.8984,-2.8984,-2.8984,-2.8984,-2.8984,-2.8984,-2.8984,-2.8984,-2.8984,-2.8966,-2.8929,-2.8728,-2.8911,-2.8957,-2.8957,-2.8984,-2.8984,-2.8984,-2.8984,-2.8984,-2.8984,-2.8957,-2.8801,-2.848,-2.8122,-2.7756,-2.7306,-2.6967,-2.6747,-2.6637,-2.6591,-2.6591,-2.6591,-2.6591,-2.6591,-2.6591,-2.6591,-2.6591,-2.6591,-2.6591,-2.6591,-2.6646,-2.67,-2.7206,-2.7628,-2.8412,-2.8721,-2.888,-2.9029,-2.923,-2.9387,-2.9608,-2.9817,-2.9974,-3.0856,-3.1062,-3.1513,-3.183,-3.2521,-3.3085,-3.3135,-3.3545,-3.3607,-3.4026,-3.4026,-3.4075,-3.4113,-3.4211,-3.4261,-3.4347,-3.4494,-3.464,-3.4689,-3.4689,-3.4726,-3.4677,-3.4677,-3.4726,-3.4775,-3.4775,-3.4775,-3.4775,-3.4726,-3.4775,-3.4775,-3.4775,-3.4775,-3.4775,-3.4775,-3.4775,-3.4775,-3.4775,-3.4775,-3.4775,-3.4775,-3.4775,-3.4775,-3.4775,-2.8984,-2.8984,-2.8984,-2.8984,-2.8984,-2.8984,-2.8984,-2.8984,-2.8984,-2.8966,-2.8948,-2.8948,-2.8938,-2.8938,-2.8957,-2.8984,-2.8984,-2.8984,-2.8984,-2.8984,-2.8984,-2.8984,-2.8984,-2.8984,-2.8984,-2.8984,-2.8966,-2.8865,-2.8535,-2.881,-2.8984,-2.8984,-2.8984,-2.8984,-2.8984,-2.8984,-2.8984,-2.8984,-2.8957,-2.8755,-2.8434,-2.8251,-2.7792,-2.7343,-2.7013,-2.682,-2.6683,-2.6591,-2.6591,-2.6591,-2.6591,-2.6591,-2.6591,-2.6591,-2.6591,-2.6591,-2.6591,-2.6591,-2.6591,-2.6591,-2.6636,-2.6899,-2.6899,-2.6745,-2.7053,-2.777,-2.8082,-2.8402,-2.8668,-2.9197,-2.966,-2.9713,-2.9859,-3.0068,-3.0172,-3.0805,-3.1472,-3.1942,-3.251,-3.2985,-3.3668,-3.3878,-3.3878,-3.3927,-3.3767,-3.3927,-3.4014,-3.4162,-3.431,-3.4396,-3.4445,-3.4543,-3.4531,-3.4531,-3.458,-3.458,-3.4592,-3.4543,-3.4592,-3.4592,-3.4689,-3.4677,-3.458,-3.4592,-3.4677,-3.4677,-3.4592,-3.464,-3.4689,-3.4677,-3.4677,-3.4775,-3.4775,-3.4775,-3.4775,-2.8984,-2.8984,-2.8984,-2.8984,-2.8984,-2.8984,-2.8984,-2.8984,-2.8975,-2.8856,-2.8581,-2.8865,-2.8856,-2.8599,-2.8847,-2.8957,-2.8984,-2.8984,-2.8984,-2.8984,-2.8984,-2.8984,-2.8984,-2.8984,-2.8984,-2.8984,-2.8957,-2.892,-2.8856,-2.8984,-2.8984,-2.8984,-2.8984,-2.8984,-2.8984,-2.8984,-2.8984,-2.8984,-2.8984,-2.8746,-2.8397,-2.8141,-2.7691,-2.7353,-2.6912,-2.6729,-2.6628,-2.6591,-2.6591,-2.6591,-2.6591,-2.6591,-2.6591,-2.6591,-2.6591,-2.6591,-2.6591,-2.6591,-2.6591,-2.6591,-2.6591,-2.6591,-2.6591,-2.6591,-2.6745,-2.689,-2.7196,-2.752,-2.7682,-2.8048,-2.8305,-2.8455,-2.8605,-2.8764,-2.9029,-2.966,-3.0276,-3.0587,-3.1165,-3.2004,-3.2684,-3.2996,-3.3108,-3.3358,-3.3258,-3.3481,-3.3679,-3.3828,-3.3965,-3.4064,-3.4249,-3.4359,-3.431,-3.4249,-3.4249,-3.431,-3.431,-3.431,-3.4359,-3.4408,-3.4359,-3.4347,-3.431,-3.4359,-3.4445,-3.4408,-3.4261,-3.4359,-3.4457,-3.4494,-3.4482,-3.4628,-3.4726,-3.4726,-3.4775,-2.8984,-2.8984,-2.8984,-2.8984,-2.8984,-2.8984,-2.8984,-2.8984,-2.8984,-2.8828,-2.8673,-2.8883,-2.8847,-2.8718,-2.8883,-2.8984,-2.8984,-2.8984,-2.8984,-2.8984,-2.8984,-2.8984,-2.8984,-2.8984,-2.8984,-2.8984,-2.8984,-2.8966,-2.8984,-2.8984,-2.8984,-2.8984,-2.8984,-2.8984,-2.8984,-2.8984,-2.8984,-2.8984,-2.8929,-2.8737,-2.8388,-2.7985,-2.7638,-2.7243,-2.6793,-2.6628,-2.6591,-2.6591,-2.6591,-2.6591,-2.6591,-2.6591,-2.6591,-2.6591,-2.6591,-2.6591,-2.6591,-2.6591,-2.6591,-2.6591,-2.6591,-2.6591,-2.6591,-2.6591,-2.6591,-2.6745,-2.6736,-2.6845,-2.6745,-2.6745,-2.6954,-2.7107,-2.7359,-2.7565,-2.8135,-2.8668,-2.8976,-2.9177,-2.9911,-3.0805,-3.133,-3.1648,-3.2015,-3.2381,-3.2684,-3.2734,-3.3058,-3.353,-3.3679,-3.3828,-3.4014,-3.4162,-3.4075,-3.3977,-3.3977,-3.4026,-3.4075,-3.4125,-3.4162,-3.4162,-3.4075,-3.4064,-3.4162,-3.4113,-3.4113,-3.4075,-3.4075,-3.4125,-3.4223,-3.4261,-3.4298,-3.4347,-3.4494,-3.4689,-3.4726,-2.8984,-2.8984,-2.8984,-2.8984,-2.8984,-2.8984,-2.8957,-2.8938,-2.8902,-2.8893,-2.8819,-2.8856,-2.8832,-2.8636,-2.8783,-2.892,-2.8957,-2.8984,-2.8984,-2.8975,-2.8984,-2.8984,-2.8984,-2.8984,-2.8984,-2.8984,-2.8984,-2.8984,-2.8984,-2.8984,-2.8984,-2.8984,-2.8984,-2.8984,-2.8984,-2.8984,-2.8984,-2.8975,-2.8865,-2.8682,-2.837,-2.7985,-2.7638,-2.7187,-2.6839,-2.6591,-2.6591,-2.6591,-2.6591,-2.6591,-2.6591,-2.6591,-2.6591,-2.6591,-2.6591,-2.6591,-2.6591,-2.6591,-2.6591,-2.6591,-2.6591,-2.6591,-2.6591,-2.6591,-2.6591,-2.6591,-2.6591,-2.6591,-2.6591,-2.6591,-2.68,-2.6845,-2.6944,-2.7053,-2.7368,-2.7726,-2.7931,-2.8349,-2.9019,-2.9807,-3.0338,-3.066,-3.0867,-3.1227,-3.1432,-3.1688,-3.1953,-3.2544,-3.2796,-3.2946,-3.3419,-3.3656,-3.3779,-3.3679,-3.3779,-3.3828,-3.3927,-3.3977,-3.3866,-3.3927,-3.3779,-3.3878,-3.4014,-3.3915,-3.3828,-3.3927,-3.3927,-3.3927,-3.3927,-3.4026,-3.4064,-3.4113,-3.4261,-3.4494,-3.4592,-2.8984,-2.8984,-2.8984,-2.8984,-2.8984,-2.8984,-2.8801,-2.8544,-2.8535,-2.8361,-2.8162,-2.8134,-2.818,-2.8232,-2.8452,-2.8645,-2.8911,-2.8828,-2.8957,-2.8902,-2.8883,-2.8856,-2.8957,-2.8911,-2.8957,-2.8984,-2.8984,-2.8984,-2.8984,-2.8984,-2.8984,-2.8984,-2.8984,-2.8984,-2.8984,-2.8984,-2.8975,-2.8902,-2.87,-2.8544,-2.8315,-2.7967,-2.7581,-2.7196,-2.6848,-2.6637,-2.6609,-2.6591,-2.6591,-2.6591,-2.6591,-2.6591,-2.6591,-2.6591,-2.6591,-2.6591,-2.6591,-2.6591,-2.6591,-2.6591,-2.6591,-2.6591,-2.6591,-2.6591,-2.6591,-2.6591,-2.6591,-2.6591,-2.6591,-2.6591,-2.6591,-2.6591,-2.6591,-2.6591,-2.6646,-2.6845,-2.7053,-2.7618,-2.8232,-2.8764,-2.9345,-2.9608,-2.9713,-2.9974,-3.0235,-3.0338,-3.039,-3.066,-3.0867,-3.1124,-3.2167,-3.2583,-3.322,-3.3319,-3.3319,-3.3108,-3.2946,-3.3047,-3.2996,-3.3158,-3.3431,-3.358,-3.3679,-3.353,-3.3481,-3.358,-3.363,-3.3481,-3.353,-3.3729,-3.3828,-3.3828,-3.4064,-3.4347,-3.4433,-2.8984,-2.8984,-2.8984,-2.8984,-2.8984,-2.8984,-2.8755,-2.8407,-2.8196,-2.7884,-2.7591,-2.7739,-2.7856,-2.793,-2.8122,-2.8342,-2.8627,-2.8489,-2.8388,-2.8407,-2.8535,-2.8563,-2.8636,-2.8746,-2.8874,-2.8911,-2.8966,-2.8984,-2.8984,-2.8984,-2.8984,-2.8984,-2.8984,-2.8984,-2.8984,-2.8975,-2.8883,-2.8709,-2.8489,-2.8306,-2.8168,-2.7856,-2.7563,-2.7196,-2.6985,-2.6774,-2.6609,-2.6591,-2.6591,-2.6591,-2.6591,-2.6591,-2.6591,-2.6591,-2.6591,-2.6591,-2.6591,-2.6591,-2.6591,-2.6591,-2.6591,-2.6591,-2.6591,-2.6591,-2.6591,-2.6591,-2.6591,-2.6591,-2.6591,-2.6591,-2.6591,-2.6591,-2.6591,-2.6591,-2.6591,-2.6745,-2.68,-2.7053,-2.7359,-2.752,-2.7897,-2.795,-2.8198,-2.8764,-2.9029,-2.9345,-2.9345,-2.9713,-2.9775,-2.946,-3.0505,-3.1176,-3.1597,-3.1812,-3.1494,-3.1432,-3.1483,-3.1699,-3.2066,-3.2167,-3.2319,-3.2958,-3.3281,-3.317,-3.317,-3.3331,-3.3331,-3.2969,-3.3231,-3.3481,-3.353,-3.358,-3.3817,-3.404,-3.415,-2.8801,-2.8828,-2.8874,-2.8856,-2.8847,-2.8883,-2.8627,-2.8196,-2.7904,-2.7471,-2.7215,-2.7491,-2.7847,-2.7985,-2.7921,-2.8077,-2.815,-2.8077,-2.795,-2.7914,-2.7923,-2.8134,-2.8278,-2.8407,-2.8663,-2.8874,-2.8975,-2.8984,-2.8984,-2.8984,-2.8984,-2.8984,-2.8984,-2.8984,-2.8975,-2.8893,-2.8755,-2.8553,-2.8324,-2.8049,-2.7875,-2.7776,-2.7462,-2.727,-2.7105,-2.6921,-2.6692,-2.6591,-2.6591,-2.6591,-2.6591,-2.6591,-2.6591,-2.6591,-2.6591,-2.6591,-2.6591,-2.6591,-2.6591,-2.6591,-2.6591,-2.6591,-2.6591,-2.6591,-2.6591,-2.6591,-2.6591,-2.6591,-2.6591,-2.6591,-2.6591,-2.6591,-2.6591,-2.6591,-2.6591,-2.6591,-2.6646,-2.6646,-2.6691,-2.6691,-2.6745,-2.68,-2.7107,-2.7663,-2.7931,-2.8242,-2.8615,-2.9081,-2.925,-2.8731,-2.889,-2.9197,-2.9408,-2.9513,-2.9869,-3.013,-3.039,-3.0557,-3.0918,-3.1011,-3.1216,-3.175,-3.228,-3.2796,-3.2846,-3.2443,-3.2392,-3.2128,-3.2544,-3.2757,-3.2846,-3.2796,-3.3147,-3.3385,-3.3706,-2.8051,-2.8079,-2.8361,-2.8324,-2.8162,-2.837,-2.8095,-2.7471,-2.7352,-2.7068,-2.683,-2.6784,-2.7031,-2.7407,-2.7352,-2.7517,-2.7868,-2.7748,-2.7794,-2.7831,-2.7656,-2.7737,-2.7976,-2.8251,-2.8608,-2.8819,-2.8948,-2.8984,-2.8984,-2.8984,-2.8984,-2.8984,-2.8984,-2.8966,-2.8929,-2.8801,-2.8581,-2.8388,-2.793,-2.7536,-2.7636,-2.7481,-2.7297,-2.7086,-2.6866,-2.6719,-2.66,-2.6591,-2.6591,-2.6591,-2.6591,-2.6591,-2.6591,-2.6591,-2.6591,-2.6591,-2.6591,-2.6591,-2.6591,-2.6591,-2.6591,-2.6591,-2.6591,-2.6591,-2.6591,-2.6591,-2.6591,-2.6591,-2.6591,-2.6591,-2.6591,-2.6591,-2.6591,-2.6591,-2.6591,-2.6591,-2.6646,-2.6646,-2.6636,-2.6636,-2.6636,-2.6691,-2.6745,-2.7062,-2.709,-2.7298,-2.7333,-2.7764,-2.7939,-2.7641,-2.7476,-2.7584,-2.7682,-2.8572,-2.9513,-2.946,-2.9618,-2.9723,-2.9869,-3.012,-3.0328,-3.0442,-3.0959,-3.1637,-3.133,-3.0764,-3.0774,-3.1238,-3.1032,-3.1187,-3.1688,-3.1942,-3.2359,-3.2935,-3.3469]}]]